GFSSGP_sfc_temp_000.txt.gz
Temp
86 96 99 94 90 89 78 79 88 83 84 91 90 89 82 83 80 72 94 93 91 90 93 90 83 84 83 83 83 83 83 83 83 83 83 84 84 84 84 84 84 85 85 85 85 85 85 85 84
98 94 95 99 87 78 77 87 84 87 88 91 89 88 85 77 86 86 88 93 91 91 94 93 81 83 83 83 83 83 84 84 83 83 84 84 84 84 85 85 85 85 85 85 85 85 85 85 85
94 94 95 95 87 79 78 86 86 88 91 90 85 90 86 77 87 89 94 94 92 90 90 89 83 83 83 83 83 83 84 84 84 84 84 84 84 85 85 85 85 85 85 85 85 85 85 85 84
98 97 98 89 82 86 85 87 89 88 90 93 90 80 86 92 88 93 95 94 91 93 93 85 83 84 84 84 84 83 83 84 84 84 84 85 85 85 85 85 85 85 85 85 85 84 84 84 84
99 99 91 85 84 88 91 92 92 88 88 88 90 81 80 87 93 94 95 96 94 93 93 91 83 84 83 84 84 84 83 84 84 84 85 85 85 85 85 85 85 85 85 85 84 84 84 84 83
98 100 87 82 84 89 91 93 94 90 88 87 85 82 77 90 91 94 97 97 99 96 95 92 84 83 84 84 83 84 84 84 84 84 85 85 85 85 85 85 85 85 85 85 85 84 84 83 83
94 97 87 87 84 86 89 96 93 90 88 87 91 80 75 86 92 95 97 98 95 97 94 93 92 88 84 84 84 84 84 84 84 85 85 85 85 85 85 85 85 85 85 85 85 85 84 83 83
101 99 88 90 86 84 92 94 96 93 87 94 94 80 73 84 92 95 96 96 92 93 89 89 89 92 91 90 84 84 84 84 85 85 84 84 85 85 85 84 85 85 85 86 85 85 84 84 84
101 94 87 87 88 88 95 91 94 97 90 87 89 92 90 90 93 92 91 92 92 93 94 95 92 91 91 92 90 85 84 84 85 86 85 86 95 94 93 90 85 85 85 85 85 85 85 84 84
97 95 89 94 96 93 93 93 92 90 88 83 86 89 89 90 89 88 88 88 89 89 92 95 95 93 92 95 90 91 92 93 92 92 91 92 94 94 92 88 85 85 85 85 85 84 84 85 91
98 91 94 93 96 98 94 92 95 91 87 87 82 84 87 88 88 88 88 89 88 90 93 94 92 92 92 92 93 93 94 94 93 90 90 92 93 93 94 95 95 94 89 94 93 93 94 92 92
92 94 96 94 96 97 94 97 89 90 87 90 88 88 88 87 89 89 89 89 88 88 90 92 91 89 90 93 93 94 95 94 94 94 89 88 91 91 91 93 93 90 93 90 91 94 90 90 91
94 93 95 96 97 97 97 91 86 85 89 90 89 88 88 89 89 91 92 92 90 88 90 91 90 87 88 88 92 93 94 94 95 94 92 92 92 91 92 88 92 91 93 92 89 91 91 90 91
96 95 95 97 96 97 92 90 91 85 90 88 87 88 90 90 90 89 90 89 89 90 90 92 90 89 87 85 86 86 92 92 93 94 93 90 91 91 92 89 91 92 93 87 89 88 89 89 90
95 89 91 94 94 93 96 86 83 87 90 87 88 89 89 90 90 89 90 90 91 92 92 91 90 91 86 85 86 88 92 93 93 94 91 90 89 89 86 86 89 87 87 86 88 87 88 89 91
92 93 84 91 93 92 91 78 84 90 90 87 87 88 88 88 90 91 91 91 92 91 89 90 93 92 86 84 84 85 92 93 93 93 94 91 89 85 81 84 86 88 88 89 88 86 85 84 89
90 83 85 85 94 90 91 82 87 91 91 88 88 88 89 89 90 92 92 92 92 92 90 90 90 91 90 88 89 90 89 90 92 93 91 89 84 85 81 80 83 82 85 85 85 86 86 83 83
82 84 86 84 90 89 87 85 88 90 91 89 90 89 89 90 90 92 92 92 93 93 91 90 90 88 88 88 87 85 85 84 85 85 88 87 87 86 86 87 85 84 85 83 83 82 86 86 86
91 87 85 88 92 88 86 85 86 90 90 90 91 89 91 91 94 94 93 93 93 92 90 89 87 87 87 85 83 85 84 86 86 89 89 88 87 86 84 82 85 83 83 85 84 83 80 83 85
89 86 85 86 88 89 85 83 87 89 89 90 90 89 90 92 92 92 92 93 93 91 90 88 87 87 87 88 86 85 85 90 90 87 86 87 87 86 85 84 86 85 86 83 82 80 80 83 82
88 86 86 84 85 89 84 80 81 87 89 90 91 93 92 91 91 92 92 92 94 91 89 88 87 87 86 87 89 88 89 89 90 91 90 90 86 85 84 84 84 84 82 83 81 78 77 78 82
84 91 89 86 80 76 86 74 79 84 83 86 89 90 92 91 92 94 94 92 93 91 91 88 87 86 86 86 87 83 85 84 86 86 87 85 86 84 84 83 83 82 83 79 80 79 77 77 77
84 89 87 86 82 81 79 77 83 85 81 85 89 91 92 93 93 94 95 93 93 91 90 89 87 85 86 85 85 86 84 87 86 85 82 81 83 83 84 83 81 81 83 80 78 76 77 76 76
89 86 84 86 84 72 81 78 80 84 83 88 90 92 91 93 94 94 95 93 90 92 90 89 86 84 85 85 84 82 81 81 82 82 81 84 85 85 84 82 81 80 80 80 79 78 77 76 75
90 85 73 70 70 70 80 77 80 89 87 91 91 91 92 92 92 92 91 88 88 88 88 88 85 82 84 85 84 83 81 80 79 79 83 79 83 84 82 79 79 81 79 80 79 77 76 74 75
86 86 77 62 68 74 76 72 81 88 91 94 94 95 94 91 92 91 89 88 88 88 87 86 84 83 84 84 82 81 81 85 84 83 81 83 82 83 80 80 80 80 80 80 79 80 81 79 77
85 80 90 76 79 73 79 80 86 89 88 88 89 91 92 90 91 91 90 90 88 88 86 85 84 83 83 84 82 81 81 80 81 80 80 84 80 83 82 80 79 79 80 79 77 80 79 78 77
89 93 78 81 65 63 73 74 80 82 86 88 87 88 91 90 91 92 91 89 89 89 88 87 85 83 84 84 83 84 82 81 81 80 79 79 80 80 79 80 80 80 80 79 78 78 77 75 76
83 83 84 85 79 69 68 76 88 86 88 88 89 89 90 90 91 92 92 90 89 90 88 87 85 84 83 84 83 82 82 82 81 80 81 80 80 79 79 79 79 79 79 79 77 77 78 76 75
92 87 86 76 70 77 74 75 92 91 91 91 91 91 92 91 92 92 92 90 88 88 88 88 87 86 86 85 83 82 81 81 80 80 81 81 79 80 79 79 79 79 79 79 77 76 76 74 73

GFSSGP_sfc_temp_003.txt.gz
Temp
89 99 105 100 92 90 81 82 92 87 87 95 95 91 86 87 85 73 92 90 92 90 92 91 83 84 83 83 83 83 83 83 83 83 83 84 84 84 84 84 84 85 85 85 85 85 85 84 84
104 102 102 99 87 79 81 90 85 88 92 95 95 94 88 81 91 90 89 93 94 94 94 91 82 83 83 83 83 83 84 84 83 84 83 84 84 84 85 85 85 85 85 85 85 85 85 85 84
98 102 94 97 89 80 80 88 89 92 96 93 92 95 89 84 92 92 94 93 93 90 91 88 82 83 84 84 84 84 84 84 84 84 84 84 84 83 85 85 85 85 85 85 85 85 85 85 85
103 103 103 89 83 88 88 91 94 93 95 96 92 84 92 97 95 97 95 93 92 91 92 86 83 84 84 84 83 83 84 84 84 84 84 84 84 85 85 85 85 85 85 85 85 85 85 85 84
103 101 90 87 84 91 95 96 98 92 93 94 92 83 85 95 99 99 95 95 90 91 92 91 83 84 84 84 84 84 84 84 84 84 84 85 85 85 85 85 85 85 85 85 85 85 85 85 84
88 105 86 81 84 92 96 99 97 93 94 93 88 85 85 96 96 98 99 97 100 93 94 92 84 84 84 84 84 84 84 84 84 84 85 85 85 85 85 85 85 85 86 86 85 85 84 84 84
75 90 90 89 87 88 93 100 96 93 91 90 94 81 87 93 98 101 101 95 97 94 93 92 92 88 84 84 84 84 84 84 85 85 85 85 85 85 85 85 85 85 85 86 86 85 84 84 84
104 103 89 90 87 86 97 99 100 97 92 99 97 81 82 92 98 101 101 98 97 95 92 88 91 93 91 90 84 84 84 85 85 85 85 85 85 85 85 85 85 85 86 86 86 85 85 85 84
109 90 90 90 91 92 100 96 101 101 94 95 96 94 94 96 99 98 97 93 92 95 92 93 91 91 87 92 89 85 84 85 85 86 85 86 94 87 92 89 87 85 85 86 86 85 84 84 84
101 95 93 100 100 97 99 98 97 95 91 91 93 96 96 95 94 93 93 92 93 93 95 91 93 89 89 96 89 91 92 92 91 92 88 92 91 89 92 89 86 86 85 85 85 85 84 85 91
103 94 98 98 102 103 99 97 100 97 90 91 87 89 92 92 92 92 92 93 92 93 96 98 92 94 94 88 93 95 95 91 94 91 89 90 84 87 85 84 90 85 85 95 88 85 91 90 93
95 99 100 100 101 101 98 100 94 93 93 96 93 93 92 91 92 92 92 92 92 92 94 96 95 92 93 90 95 88 87 96 92 88 90 89 91 85 86 91 84 91 94 91 90 87 92 91 92
98 98 100 101 102 101 100 94 90 89 95 96 95 93 91 93 93 94 94 94 93 91 93 94 93 90 90 90 95 95 88 95 91 94 94 93 86 84 88 90 91 90 92 87 86 84 82 87 91
101 99 99 101 100 100 95 93 92 90 95 92 92 92 93 93 93 93 93 92 92 92 93 94 93 88 88 87 88 89 93 93 92 91 86 88 92 86 86 86 90 86 88 91 89 87 88 88 90
101 94 97 98 99 97 99 89 86 92 93 91 92 93 93 93 94 92 93 92 93 94 93 90 88 88 88 87 87 86 93 95 91 85 91 93 91 89 82 82 87 89 88 86 87 86 87 86 91
95 95 87 96 97 95 71 78 88 95 93 90 91 92 92 93 94 95 94 90 92 90 88 91 92 93 88 87 88 90 92 92 88 96 95 93 91 88 83 85 86 85 84 89 88 88 87 88 88
93 85 85 89 98 88 73 83 90 97 95 91 92 92 92 92 94 95 95 89 95 93 92 91 93 94 91 89 90 90 91 93 93 86 91 91 88 88 86 86 86 85 86 87 86 85 83 84 85
84 86 90 87 94 94 83 84 91 95 95 92 93 92 93 93 94 95 96 97 97 96 94 93 93 92 91 88 88 89 85 89 92 92 91 88 86 88 83 83 85 85 82 83 85 83 84 81 81
94 90 88 92 96 93 90 87 89 94 95 93 94 92 93 94 97 97 97 97 97 96 94 92 90 88 88 85 84 84 85 85 88 84 88 87 86 86 84 84 85 83 83 84 83 84 81 81 82
91 89 88 93 95 92 89 88 91 93 93 94 94 93 94 95 95 95 95 96 96 94 93 92 91 88 89 90 86 85 87 92 93 92 90 90 90 86 87 86 87 88 88 85 83 81 77 79 84
90 88 89 88 92 94 86 85 87 92 94 95 97 97 97 95 95 95 94 95 97 94 92 91 90 90 89 88 89 89 90 88 91 93 92 91 89 89 87 86 85 84 85 86 83 79 77 73 79
85 94 93 90 86 79 91 75 82 88 89 92 94 96 97 97 98 98 97 95 97 95 95 92 91 90 90 89 90 86 85 86 88 88 90 87 87 87 86 85 84 83 84 82 80 81 78 74 73
88 96 91 90 87 85 82 80 80 81 84 89 93 95 97 98 98 98 99 97 98 96 95 93 90 89 89 88 87 88 87 89 90 88 84 83 84 86 86 85 83 80 84 81 80 78 77 76 72
96 91 90 90 87 75 82 76 82 79 85 90 93 96 97 98 98 99 100 98 97 96 94 92 88 86 87 88 87 85 84 83 84 84 83 86 87 88 86 84 82 81 81 81 81 80 77 77 75
93 87 75 72 73 73 86 82 83 92 95 95 95 95 98 99 98 97 97 95 93 92 92 91 86 84 86 87 87 86 84 83 81 82 85 81 86 86 84 81 81 82 81 80 80 80 78 79 77
88 88 78 64 70 76 84 74 83 95 98 98 99 100 99 97 98 97 96 94 92 92 90 90 86 84 86 86 85 84 84 86 86 86 83 84 84 85 83 82 82 81 81 81 81 81 82 79 77
87 82 94 83 83 77 81 85 92 93 93 94 96 98 98 97 97 97 97 95 92 91 89 88 86 85 86 87 84 84 83 82 82 82 82 85 83 86 84 82 81 82 82 81 80 82 80 79 75
92 95 81 83 67 66 77 77 80 85 89 93 94 95 97 99 97 97 97 94 93 93 91 90 88 85 86 87 86 87 85 84 83 82 81 81 81 82 81 81 82 82 81 81 80 80 81 78 79
88 85 87 88 81 72 71 77 91 88 91 91 94 95 97 98 96 96 96 95 93 93 92 90 89 87 86 86 86 85 84 85 84 82 82 82 82 81 81 81 80 81 80 81 79 77 78 76 75
95 88 88 77 73 80 78 78 95 94 95 95 94 96 97 98 96 96 97 95 93 91 92 91 91 89 88 89 86 85 84 83 83 82 82 82 81 82 81 81 80 80 81 80 79 77 78 76 72

GFSSGP_sfc_temp_006.txt.gz
Temp
85 93 97 98 82 86 75 79 90 86 86 92 85 76 72 71 80 65 89 88 91 89 86 86 83 83 83 82 82 83 83 83 83 83 83 83 83 84 84 84 84 84 85 85 85 85 85 84 84
95 100 102 93 83 75 75 86 82 87 91 95 92 88 83 76 85 84 85 91 92 92 90 87 82 83 83 83 82 83 83 84 83 83 83 84 84 84 84 85 84 84 85 85 85 85 85 85 84
93 99 91 90 84 76 76 86 88 92 95 93 88 91 87 81 88 85 91 92 92 88 87 84 83 83 83 83 83 83 83 84 84 84 84 84 84 84 84 84 84 85 85 85 85 85 85 85 85
102 95 96 87 81 86 86 90 92 91 93 92 90 83 91 92 88 90 91 91 89 89 88 84 84 84 84 84 84 84 84 84 84 84 84 84 85 85 85 85 85 85 85 85 85 85 85 85 85
89 79 86 84 84 90 94 95 95 91 91 90 89 82 85 90 93 93 92 93 90 89 88 86 84 84 84 84 84 84 84 84 84 84 84 85 85 85 85 85 85 85 85 85 85 85 85 85 85
82 88 83 79 84 87 95 98 96 93 90 89 85 83 84 95 93 94 94 92 95 91 89 87 84 84 84 84 84 84 84 84 84 84 85 85 85 85 85 85 85 85 86 86 85 85 85 84 84
81 81 83 81 77 74 76 99 93 91 89 87 91 80 87 92 96 97 96 93 95 93 90 87 86 85 84 84 84 84 84 84 84 85 85 85 85 85 85 85 85 86 85 86 85 85 84 84 84
79 82 85 84 81 76 83 97 98 94 90 98 94 80 81 92 99 97 96 90 92 93 90 87 86 87 85 85 84 84 84 84 85 85 85 85 85 85 85 84 84 86 86 86 86 85 85 84 84
95 83 85 86 88 87 97 93 99 101 94 95 96 91 93 97 100 95 89 90 88 89 91 90 89 88 85 86 86 84 85 85 85 85 85 85 86 81 73 78 81 86 85 85 85 85 84 84 84
99 88 89 94 98 81 75 87 95 93 92 92 91 94 95 96 96 92 90 89 90 88 89 92 90 90 88 91 84 85 87 86 85 85 84 85 86 83 80 78 81 85 86 85 85 84 84 84 84
100 92 98 98 99 87 80 86 80 73 86 91 86 89 92 93 93 93 91 91 91 90 93 93 88 89 88 80 87 87 87 88 87 86 86 84 85 76 87 77 79 84 85 86 86 86 86 83 84
95 100 100 100 95 94 95 91 78 74 75 95 93 93 92 91 91 92 93 92 91 92 92 87 85 84 84 84 90 88 89 87 83 85 86 85 85 85 86 86 86 83 83 84 84 84 83 85 86
96 98 100 100 99 98 97 91 83 82 91 96 95 93 91 91 92 93 94 94 92 91 93 91 85 85 88 83 87 84 84 87 89 86 85 87 85 83 84 85 85 84 84 83 83 84 84 83 85
100 99 99 101 99 98 93 91 90 90 94 92 92 91 92 92 93 92 93 91 91 91 92 93 87 87 88 86 85 85 85 84 89 86 84 87 84 81 83 81 84 83 82 84 80 80 81 81 83
100 93 96 97 97 94 96 86 84 91 93 90 90 91 92 93 94 91 93 91 91 91 90 89 88 89 85 85 86 87 87 91 89 85 87 87 84 85 83 81 80 81 82 83 82 81 81 82 84
94 94 85 94 92 90 91 77 87 93 91 89 91 92 92 92 93 93 94 93 91 89 84 85 90 88 86 85 85 86 87 87 87 86 84 85 87 86 81 80 81 82 82 81 79 78 77 79 80
91 82 83 86 92 90 87 81 89 95 93 90 92 92 92 91 92 92 92 91 89 86 87 86 86 87 85 84 85 85 87 87 85 83 85 84 87 86 81 81 81 81 80 80 80 80 77 75 76
83 82 85 84 90 89 86 84 90 94 93 91 92 91 91 92 92 93 91 90 90 88 84 84 85 89 84 82 84 85 83 84 87 82 83 84 83 85 81 79 78 78 77 76 75 75 75 76 77
93 89 84 89 90 86 85 84 88 93 93 90 91 90 91 92 94 95 94 93 93 92 88 84 83 88 87 83 82 82 82 82 84 85 86 85 85 83 82 79 79 79 77 78 78 78 76 76 77
93 89 87 92 95 91 83 82 89 92 92 92 91 90 92 93 92 93 93 95 94 91 88 88 86 85 85 82 84 84 82 82 82 84 84 85 84 82 84 83 81 80 80 78 79 78 75 75 73
90 87 88 88 92 93 89 80 74 89 94 94 95 94 94 93 91 91 91 92 94 91 89 88 86 85 86 86 84 81 83 84 83 84 80 82 84 84 83 83 81 80 79 78 76 76 74 71 74
84 94 92 91 86 77 89 72 74 83 88 91 93 94 95 94 94 93 92 92 93 91 91 87 88 87 86 87 86 82 81 78 82 83 81 81 84 83 83 82 81 79 78 76 76 76 74 72 70
87 96 92 91 86 84 84 76 76 86 83 87 92 94 96 96 96 94 94 93 94 93 92 89 87 86 85 84 85 82 81 80 81 81 81 81 79 81 83 83 80 78 78 76 76 75 74 72 70
97 92 91 90 86 74 81 80 73 75 83 87 91 95 96 97 97 97 96 95 94 94 92 89 85 83 84 84 84 83 83 81 79 78 78 79 80 81 80 80 79 78 77 76 76 75 75 73 72
94 86 73 70 71 70 85 80 80 87 91 90 77 76 97 98 98 96 94 93 91 90 90 87 83 81 82 83 83 84 83 82 81 79 79 79 78 80 77 79 79 77 77 77 76 74 73 73 72
88 86 75 63 68 74 85 74 80 94 96 94 94 93 98 97 97 95 94 92 90 90 88 85 82 80 82 83 82 82 83 81 80 80 79 78 78 79 82 80 80 78 78 78 77 75 75 74 72
87 81 92 80 83 76 80 84 91 94 94 95 96 98 95 96 98 97 97 91 90 89 86 84 81 80 81 82 80 81 81 81 80 81 81 79 81 80 78 80 79 78 77 77 76 75 74 75 73
91 94 79 81 66 65 76 78 78 83 87 92 93 95 97 97 97 98 97 91 90 90 88 85 83 81 81 82 81 81 80 81 81 81 79 79 79 80 79 79 78 77 77 77 75 74 74 72 73
88 85 86 86 81 70 68 70 87 86 90 91 94 96 97 98 95 97 97 91 90 91 88 86 84 82 82 82 82 82 82 82 80 80 79 80 80 80 79 78 77 76 76 76 75 74 73 71 72
94 87 86 75 72 78 76 75 94 93 93 94 94 96 97 98 97 97 97 93 90 89 89 87 86 85 84 83 82 81 81 81 81 80 80 81 79 79 78 77 76 75 76 75 74 73 74 72 71

GFSSGP_sfc_temp_009.txt.gz
Temp
83 84 84 81 66 68 69 72 79 72 70 76 77 73 72 73 71 60 78 83 83 81 82 83 82 83 83 82 82 82 83 83 83 83 83 83 84 83 84 84 84 84 84 84 84 84 84 84 84
87 91 85 78 68 63 64 77 75 79 79 79 80 79 74 70 79 78 78 84 84 83 81 81 82 83 83 82 82 83 84 83 83 83 83 83 84 84 84 84 84 84 84 84 84 84 84 84 84
85 92 78 72 69 65 65 78 81 84 81 81 79 83 78 72 81 81 86 87 85 82 81 82 82 83 83 83 83 83 83 84 83 83 84 84 84 84 84 84 84 84 84 84 84 84 84 84 84
86 80 81 73 69 77 78 82 85 83 85 87 82 73 80 85 83 85 87 85 82 81 82 83 83 83 84 84 83 83 83 83 83 84 84 84 84 85 84 84 84 84 84 84 84 84 84 84 84
83 75 66 70 75 81 84 88 87 82 82 81 80 72 73 83 87 87 86 86 82 80 81 82 83 83 83 83 83 83 84 84 83 84 84 84 84 85 84 84 85 85 85 85 85 85 84 84 84
75 74 65 68 73 80 86 89 86 82 83 81 76 74 74 84 85 86 88 85 84 82 81 82 83 83 83 84 84 84 84 84 83 84 84 84 84 84 84 85 85 85 85 85 85 84 84 84 84
71 68 61 73 73 76 80 89 83 83 82 81 82 71 76 82 86 89 88 87 85 84 81 80 81 83 84 84 84 84 84 84 84 84 84 84 84 84 84 85 85 85 85 85 85 84 84 83 83
77 71 69 70 74 73 84 87 88 85 81 90 88 73 73 82 88 89 88 87 84 82 81 79 79 79 79 80 84 84 84 84 84 84 84 84 84 84 84 81 82 85 86 86 85 84 83 84 83
90 64 67 65 69 74 85 86 91 92 86 87 89 85 86 89 88 85 83 84 82 83 82 81 80 79 77 79 82 83 84 84 84 84 84 83 77 75 78 79 82 83 85 85 84 84 83 84 84
78 70 78 80 84 77 82 82 79 84 84 82 84 89 90 89 84 82 82 79 80 80 82 83 82 81 80 85 79 78 80 79 78 79 78 76 76 74 77 78 82 84 85 85 85 84 84 85 79
85 78 88 88 89 83 80 81 81 78 79 82 79 83 88 86 82 82 82 81 79 81 83 82 81 80 80 77 77 77 76 77 78 78 77 76 77 74 75 73 76 76 81 80 82 80 80 79 80
88 93 91 88 87 82 78 78 81 80 79 88 87 87 86 85 84 85 85 82 84 82 84 82 82 79 79 80 78 78 80 78 77 79 81 75 76 75 77 76 77 77 78 80 78 77 79 79 80
88 90 92 92 89 82 83 77 77 80 86 90 89 88 84 84 84 85 85 85 83 83 84 83 80 79 78 78 78 80 82 81 82 79 79 82 78 76 78 77 77 78 77 77 76 77 77 77 79
93 91 91 91 88 89 82 78 79 81 88 88 87 84 85 84 84 84 83 81 84 83 83 83 80 82 80 79 78 78 80 80 82 78 80 82 80 77 76 76 76 76 76 76 75 75 75 75 76
94 84 90 89 88 85 88 78 78 86 88 85 85 85 86 86 86 83 83 82 82 83 83 82 79 80 79 78 78 78 78 80 78 79 81 80 79 78 75 75 75 75 75 76 76 75 75 75 77
84 81 71 82 85 87 81 68 81 86 84 82 85 86 86 84 85 85 85 83 82 83 84 84 86 81 78 77 77 78 78 78 79 82 81 82 81 78 75 75 75 76 76 75 73 73 72 72 72
77 67 72 76 83 84 78 72 82 86 84 82 84 85 85 83 84 85 86 84 83 83 83 83 82 80 78 78 77 77 78 77 77 78 81 82 81 79 75 75 75 76 73 73 72 73 71 71 71
68 71 75 74 81 83 77 74 82 85 84 83 84 84 83 84 84 85 85 85 83 85 81 83 80 79 79 76 76 76 75 76 77 76 75 78 77 79 75 73 73 73 72 71 71 71 71 71 70
82 79 75 82 86 79 75 77 80 84 84 81 80 80 82 83 84 85 86 86 84 83 81 80 81 78 75 74 73 73 72 74 74 76 79 78 77 78 75 73 74 72 72 72 72 72 71 69 70
82 79 74 80 86 78 75 75 81 78 78 84 82 81 82 81 82 83 84 84 84 82 79 79 78 78 77 75 75 75 74 75 75 76 77 77 78 78 78 74 73 72 71 70 70 69 67 68 69
79 74 77 76 82 84 77 68 66 77 81 85 86 85 85 82 81 81 82 83 84 81 79 78 77 77 77 77 76 75 75 74 73 76 76 78 79 77 75 75 73 72 70 69 69 69 68 65 67
68 84 85 82 76 62 76 55 63 70 73 82 84 84 84 83 84 83 82 80 82 82 82 79 78 77 78 78 75 74 71 68 71 71 71 73 75 75 76 75 73 71 69 69 69 71 68 67 64
78 86 82 81 71 67 70 61 64 70 68 78 82 84 86 85 85 84 84 84 84 85 82 80 78 77 77 75 73 70 68 70 69 69 69 70 72 74 76 74 72 70 69 68 69 68 68 67 65
89 80 77 75 66 55 65 64 58 66 73 81 84 87 88 86 86 86 87 87 84 85 83 81 77 75 75 74 73 71 70 68 67 68 68 68 70 69 72 73 71 70 69 69 68 68 68 66 66
80 65 55 53 54 55 66 65 62 77 83 83 78 81 82 89 86 85 85 85 83 82 82 80 76 73 73 73 73 72 71 70 70 70 68 68 67 68 69 71 70 69 69 70 68 68 67 67 66
73 68 56 50 52 61 74 64 68 84 86 87 85 85 89 82 89 86 85 85 83 82 80 79 76 72 72 72 71 71 71 70 69 69 68 68 67 68 70 70 71 71 71 70 69 68 67 67 66
74 65 74 62 66 58 65 71 77 82 81 84 83 83 86 87 87 87 86 85 84 81 79 77 76 73 72 72 71 71 71 71 69 70 70 68 69 72 71 72 71 70 70 69 68 66 66 66 66
77 80 63 60 50 50 61 64 63 69 74 79 78 78 80 82 88 88 85 85 84 82 80 78 77 76 74 72 72 72 71 71 70 70 69 69 69 70 70 70 70 70 69 69 68 66 67 66 65
71 68 66 65 60 53 52 58 69 75 77 77 80 82 81 83 82 79 82 85 83 82 79 78 77 76 74 73 72 72 71 71 70 70 70 69 69 70 70 70 69 69 68 68 67 67 67 66 64
79 73 68 57 57 59 58 61 84 79 79 80 81 82 83 83 83 84 86 84 84 81 78 77 78 75 73 73 73 71 71 71 70 69 70 70 69 70 70 69 68 68 69 68 67 67 68 66 64

GFSSGP_sfc_temp_012.txt.gz
Temp
84 84 83 78 66 66 61 67 71 68 68 75 77 76 70 73 71 59 74 78 79 79 81 82 82 83 83 82 82 83 83 83 83 83 83 83 83 83 83 84 84 84 84 84 84 84 84 84 84
84 85 81 73 63 57 59 72 67 73 76 77 78 77 72 68 76 73 73 80 81 80 80 81 82 82 83 82 83 83 84 83 83 83 83 83 83 83 84 84 84 84 84 84 84 84 84 84 84
86 88 74 68 63 61 61 72 74 77 79 77 76 79 74 69 77 77 80 81 81 79 79 81 82 83 83 83 83 83 83 83 83 83 83 84 84 84 84 84 84 84 84 84 84 84 84 84 84
83 78 77 70 64 72 72 73 77 76 78 82 78 70 77 83 81 82 83 82 79 79 81 82 83 83 83 83 83 83 83 83 83 83 84 84 84 84 84 84 84 84 84 84 84 84 84 84 84
79 74 66 64 69 76 78 79 77 75 77 76 77 69 71 80 83 82 81 81 77 78 80 81 83 83 83 83 83 83 84 84 83 83 84 84 84 84 84 84 84 84 84 84 84 84 84 83 83
74 73 63 59 68 77 80 83 81 77 76 75 72 71 70 81 81 82 82 79 80 78 79 81 83 83 83 84 83 83 84 84 83 83 84 84 84 84 84 84 84 84 85 85 84 84 83 83 83
73 67 62 65 70 72 76 83 76 74 74 75 79 68 71 77 82 83 81 80 80 80 79 79 81 83 83 83 84 83 84 84 83 84 84 83 84 84 84 84 84 85 85 85 85 84 83 83 83
79 73 66 63 68 70 80 80 83 78 76 84 83 68 67 78 84 84 82 79 79 78 78 77 77 78 78 81 84 84 84 84 84 84 84 84 84 84 84 81 82 84 85 85 85 84 83 83 83
82 64 63 68 69 71 82 78 85 86 79 82 84 79 80 84 85 81 79 77 77 78 77 76 76 76 76 78 82 83 84 83 84 83 84 82 76 77 79 80 82 83 84 84 85 84 83 84 83
77 67 70 78 77 73 82 81 81 79 78 78 80 83 84 84 82 78 76 74 75 75 76 77 77 77 77 82 78 77 79 77 77 77 76 76 75 74 77 78 82 84 84 84 85 84 84 84 79
79 76 81 81 82 81 78 79 82 78 74 79 75 78 81 81 79 78 78 77 76 78 78 78 77 77 76 76 75 75 75 75 75 76 75 75 75 73 75 73 74 74 79 78 80 79 77 76 77
77 80 86 84 83 78 78 78 77 78 79 85 81 81 80 79 79 79 78 78 77 78 79 79 78 77 77 77 77 75 75 75 74 75 76 74 74 72 74 73 74 74 75 76 76 76 76 77 77
79 81 86 86 81 79 80 76 77 79 84 87 85 82 79 79 80 81 81 81 81 78 80 79 79 78 76 78 75 76 77 77 77 77 76 76 78 74 75 74 75 74 74 74 74 74 74 75 76
87 85 84 83 79 79 76 76 79 81 85 84 84 81 81 81 81 79 81 79 79 82 83 82 80 78 77 75 75 74 77 79 77 80 78 78 79 76 74 74 75 74 73 74 74 73 73 73 75
89 79 82 80 79 79 82 74 75 82 84 81 81 81 82 82 82 80 81 80 79 81 84 81 78 78 77 76 76 76 75 77 76 78 77 81 78 76 75 73 73 74 73 74 74 74 73 73 74
79 78 66 76 81 81 76 64 77 83 81 78 81 82 82 80 82 82 82 81 80 81 79 81 84 80 75 75 75 76 76 76 76 74 77 79 80 78 74 71 73 73 73 73 70 71 70 70 70
69 65 69 72 80 79 72 67 78 82 80 77 79 81 82 80 81 82 83 82 81 80 80 80 79 77 76 76 76 76 76 75 75 74 75 77 79 77 73 72 73 72 70 70 70 70 70 69 69
63 64 72 70 77 76 72 70 77 80 79 79 79 81 81 80 81 81 83 83 82 79 81 80 77 76 76 75 74 74 74 74 74 74 74 77 74 75 74 74 72 72 71 70 70 69 69 69 68
72 72 70 77 81 74 72 71 76 79 79 78 79 79 79 79 82 83 84 84 82 81 77 77 76 75 74 73 72 71 71 72 73 74 76 75 75 76 73 72 72 71 70 69 69 69 68 67 68
73 72 72 75 81 75 71 71 77 79 79 79 79 79 80 79 78 80 80 81 80 78 77 76 76 74 75 73 72 73 72 72 73 74 75 75 77 76 76 72 71 70 68 67 67 67 65 66 67
72 72 74 71 77 76 73 65 67 76 81 80 82 82 81 78 78 79 79 79 79 77 76 75 75 75 74 74 73 73 72 72 70 71 72 77 78 76 73 72 70 69 67 66 67 67 66 63 65
64 79 82 76 73 61 72 55 62 72 74 76 78 79 80 79 80 80 80 78 79 79 77 76 74 74 75 74 73 72 69 68 67 69 69 71 73 73 73 71 70 68 67 67 67 68 66 65 62
74 81 79 77 72 64 64 56 68 65 68 72 75 80 81 80 80 79 80 81 81 81 79 77 74 74 74 74 73 70 67 66 66 66 67 67 68 70 73 70 69 68 66 66 67 66 65 65 63
85 76 69 65 60 52 63 63 56 61 70 73 75 81 82 81 81 82 83 82 81 82 81 78 74 73 73 71 70 69 67 65 65 64 65 65 65 67 69 70 68 68 67 67 66 66 66 65 64
75 61 53 52 50 51 58 62 67 69 77 77 76 80 83 83 81 81 81 79 79 80 79 78 76 72 71 71 69 68 67 66 66 65 64 64 65 65 67 67 67 67 67 67 66 66 65 65 64
68 64 52 48 48 55 63 57 68 76 81 80 84 84 84 82 83 81 82 81 80 81 79 78 75 74 72 71 69 68 68 67 66 67 65 64 64 66 67 67 68 68 68 67 66 65 65 65 64
70 61 68 57 51 54 58 66 72 76 77 81 78 83 81 82 83 82 83 83 81 80 79 79 76 75 73 70 67 67 67 67 67 67 67 66 66 68 68 69 68 68 68 67 66 64 65 65 64
76 73 60 54 49 46 54 58 60 66 72 77 78 79 80 83 82 83 83 83 81 82 81 79 77 75 71 68 68 69 68 67 67 67 67 66 66 67 67 68 68 67 67 67 65 64 64 63 63
67 63 60 61 54 51 48 55 67 68 74 75 78 81 77 79 83 83 82 83 82 82 81 78 77 74 69 69 68 68 68 68 67 66 67 67 66 67 67 67 67 67 67 67 65 64 65 64 63
72 68 63 56 54 53 53 56 73 74 76 79 77 79 75 77 79 84 83 83 81 80 78 77 76 74 71 71 70 69 68 68 67 66 67 67 66 66 67 67 66 66 66 65 65 64 65 64 63

GFSSGP_sfc_temp_015.txt.gz
Temp
82 82 79 73 64 63 58 62 68 68 69 74 77 73 68 69 68 58 72 76 77 77 77 80 81 82 82 82 82 83 83 83 83 83 83 83 83 83 83 83 83 83 83 84 83 83 83 83 83
82 82 76 69 60 54 58 68 66 70 74 76 78 75 70 66 74 69 71 77 79 78 77 79 81 82 83 83 83 83 83 83 83 83 83 83 83 83 84 83 83 83 83 84 83 83 83 83 83
84 87 69 66 61 55 57 67 69 74 78 76 73 77 73 67 73 73 77 79 79 76 77 79 82 82 83 83 83 83 83 83 83 83 83 84 84 84 84 84 83 83 83 83 83 83 83 83 83
81 76 72 63 62 67 68 71 74 73 76 78 75 68 76 80 77 77 79 79 77 77 79 82 83 83 83 83 83 83 83 83 83 83 84 84 84 84 84 84 84 83 83 83 83 83 83 83 83
77 71 63 62 64 70 73 76 76 72 74 74 75 68 70 77 79 79 78 78 76 76 79 80 83 83 83 83 83 83 84 83 83 83 84 84 84 84 84 84 84 84 83 83 83 83 83 83 83
70 69 61 58 64 71 74 77 76 75 74 72 70 69 68 78 77 78 79 77 78 77 77 80 82 83 83 84 84 83 84 83 83 83 84 84 84 83 84 84 84 84 84 84 83 83 83 83 83
70 65 60 62 65 68 72 79 72 71 72 71 76 65 69 74 78 79 78 78 78 78 77 77 79 82 83 83 84 84 84 83 83 83 83 83 83 83 83 84 84 84 84 84 84 84 83 83 83
74 68 62 62 65 65 75 75 76 75 73 81 79 65 65 74 80 79 78 76 76 76 76 76 76 77 77 79 84 84 83 83 83 83 83 83 83 84 84 82 82 84 84 84 85 83 83 83 83
83 64 61 66 67 69 78 72 79 81 76 80 81 76 77 80 80 76 74 74 74 76 75 75 75 76 76 77 80 83 83 83 83 83 83 82 76 76 78 80 82 83 83 84 85 84 84 84 83
74 64 69 76 75 73 77 76 75 75 74 74 75 79 80 80 77 73 72 70 72 73 74 75 75 75 75 80 76 76 78 77 76 76 76 75 75 74 76 79 82 83 84 84 84 84 85 83 76
73 69 77 78 78 81 77 77 79 73 69 73 71 74 78 78 75 74 74 73 73 74 75 75 75 75 75 76 75 75 74 74 74 74 74 74 74 73 74 73 74 73 78 76 78 77 76 76 75
72 79 81 79 81 77 76 78 76 75 74 80 78 78 78 76 75 75 74 74 74 74 76 75 75 75 75 74 74 74 74 74 73 73 74 72 72 72 72 72 73 73 74 75 75 74 75 75 75
75 78 82 82 78 78 78 75 75 76 81 82 80 79 77 76 76 77 78 77 76 74 76 76 76 75 75 74 74 73 74 74 74 74 74 74 73 74 72 73 72 73 73 73 73 72 72 74 75
80 78 80 78 76 76 74 75 76 78 80 78 78 76 77 77 77 77 77 76 76 77 77 78 77 76 74 74 74 74 74 75 76 74 77 75 75 75 73 72 73 72 72 72 72 72 72 72 73
83 73 77 76 73 74 78 70 70 79 79 76 76 76 77 78 79 77 78 77 78 78 80 79 78 76 74 74 75 74 74 74 73 73 76 76 77 74 73 73 71 72 72 73 72 72 72 71 72
74 70 64 71 75 77 73 61 73 79 78 74 76 77 77 77 78 79 80 79 79 79 78 81 83 78 74 73 74 74 74 74 74 73 74 75 76 73 72 70 70 72 70 71 70 70 70 70 69
68 63 62 68 77 75 69 63 74 79 78 76 77 77 78 77 78 80 81 79 79 79 78 78 80 77 75 74 74 74 74 74 74 73 74 75 76 75 74 71 71 72 70 70 70 70 69 68 68
64 61 65 66 75 74 68 66 74 77 76 75 76 78 78 77 77 80 81 81 79 79 78 78 78 75 74 73 73 73 73 73 73 72 73 74 74 74 72 72 73 71 70 69 68 68 68 67 67
70 67 67 72 76 70 68 66 71 75 75 74 75 76 77 78 80 81 81 81 79 78 76 76 74 73 73 72 71 71 71 72 72 72 74 74 74 74 73 71 71 70 68 67 68 67 67 66 66
71 67 67 72 75 70 66 66 73 74 74 76 75 76 77 77 76 78 79 79 78 76 76 74 75 73 74 72 71 71 70 70 72 72 73 74 74 74 73 71 69 69 67 66 66 66 64 64 65
66 65 67 68 73 71 68 62 67 73 76 78 79 79 79 77 76 77 78 78 79 76 74 74 75 74 73 73 71 71 71 70 69 69 70 72 76 76 74 70 68 67 65 65 65 65 64 62 63
58 74 75 72 69 58 69 51 61 68 71 74 77 78 79 79 79 78 78 77 77 77 77 75 74 73 73 73 72 71 69 67 66 67 68 70 72 71 71 70 68 67 65 65 65 66 64 63 61
70 76 74 71 68 59 60 55 59 67 64 71 75 78 79 80 79 78 79 79 79 80 77 75 73 72 73 72 72 70 67 66 65 65 66 65 66 69 70 69 67 66 65 65 65 65 64 63 62
77 72 65 59 58 51 60 60 55 60 69 73 77 78 80 80 80 80 81 81 79 80 78 76 73 73 72 72 71 70 68 65 64 63 64 63 63 65 68 69 67 66 65 65 65 65 64 63 62
70 61 50 48 48 48 58 58 63 69 76 78 76 76 79 80 80 79 79 78 78 77 78 77 74 72 72 72 69 68 67 65 65 64 63 63 63 63 65 66 65 65 65 65 64 64 63 63 62
64 62 50 45 44 52 56 53 66 77 79 82 82 80 80 79 80 79 79 79 79 79 78 78 75 74 72 70 68 66 65 65 64 63 63 63 63 64 65 65 66 66 67 66 65 63 63 63 62
63 58 65 53 45 49 52 60 71 72 74 79 80 78 78 79 79 79 80 79 80 79 78 78 76 75 71 72 68 66 65 66 64 64 64 64 63 66 66 66 66 66 66 66 65 63 63 63 62
73 69 56 51 46 43 51 54 58 67 67 72 75 76 78 80 79 80 80 79 80 81 80 79 78 75 71 68 69 69 66 68 67 65 65 65 65 66 65 65 66 66 66 65 64 63 63 62 62
63 59 55 56 50 48 47 53 64 70 68 69 74 79 80 80 79 80 80 81 80 81 80 78 77 74 69 69 66 65 65 66 65 65 65 65 64 65 65 65 65 65 65 65 63 63 63 62 61
67 65 62 59 50 47 50 54 69 70 70 75 75 78 79 81 80 81 81 81 80 79 80 78 77 74 71 71 67 65 65 65 66 65 66 65 65 64 65 65 65 65 65 64 63 63 63 63 62

GFSSGP_sfc_temp_018.txt.gz
Temp
82 81 78 74 63 63 56 60 67 65 67 72 75 72 66 67 66 57 70 75 76 75 77 80 81 82 81 82 82 82 83 83 83 83 83 83 83 83 83 83 83 83 83 83 83 83 83 83 83
81 81 75 67 61 53 55 65 63 68 72 74 75 73 68 65 71 68 70 76 77 76 75 77 81 81 82 82 82 83 83 83 83 83 83 83 84 83 84 83 83 83 83 83 83 83 83 83 83
82 83 67 64 61 54 55 65 67 72 75 75 71 75 70 65 71 72 75 77 77 75 76 78 81 82 83 83 83 83 83 83 83 83 83 84 84 84 84 83 83 83 83 83 83 83 83 83 83
79 74 70 61 58 66 65 67 71 71 75 75 73 66 73 77 75 75 78 78 76 75 78 81 83 83 83 83 83 83 83 83 83 83 84 84 84 84 84 83 83 83 83 83 83 83 83 83 83
75 68 61 60 61 67 70 72 73 70 72 72 74 66 68 75 77 77 76 77 74 75 78 80 82 83 83 83 83 83 84 84 83 83 84 84 84 84 83 83 83 83 83 83 83 83 83 83 83
67 66 59 56 60 67 70 74 73 71 71 71 69 67 66 75 75 75 77 75 77 75 77 79 82 83 83 84 83 83 83 83 83 83 84 84 84 83 83 83 83 83 84 84 84 83 83 83 83
68 63 58 58 61 64 68 75 70 69 70 70 74 64 68 71 75 76 75 76 76 77 76 77 78 81 83 83 83 83 83 83 83 83 83 83 83 83 83 84 84 84 84 84 84 83 83 83 83
72 66 60 60 62 62 72 73 74 72 71 78 76 64 65 71 77 76 75 74 74 75 76 75 76 77 77 79 84 84 83 83 83 83 83 83 83 84 84 83 82 83 84 85 85 84 84 83 83
77 62 59 63 64 66 74 70 77 79 74 77 77 73 75 76 77 74 72 72 73 75 74 75 75 75 76 77 80 83 83 83 83 83 83 82 78 78 80 81 82 83 84 84 84 84 84 83 83
70 63 66 73 72 68 74 73 73 72 72 71 72 75 76 76 73 71 70 72 73 73 75 74 75 75 75 79 77 77 78 78 78 78 77 76 77 76 78 78 82 83 83 84 84 84 84 82 78
71 68 74 76 77 77 72 73 76 71 66 70 68 70 73 73 72 71 71 72 72 74 76 75 75 75 75 76 75 75 75 75 76 76 76 75 76 74 75 75 76 75 79 79 79 78 78 79 78
71 76 77 76 78 75 72 75 72 72 72 77 75 75 74 72 71 72 71 72 72 73 74 75 74 74 74 75 75 74 75 75 74 75 75 74 74 74 74 74 75 75 76 75 77 77 77 78 78
72 74 77 78 75 75 77 73 72 72 77 78 77 75 74 73 73 74 75 74 74 72 74 74 74 74 74 74 74 74 74 75 74 75 75 75 74 74 75 73 74 74 75 75 75 75 75 75 77
75 76 75 75 73 74 73 72 74 74 77 75 75 74 75 74 74 74 74 73 73 74 74 75 74 74 74 74 74 74 74 75 75 75 77 75 75 75 73 73 74 74 74 75 74 74 74 74 75
77 69 73 72 72 72 77 68 69 75 76 73 74 74 75 75 76 75 76 74 75 75 76 75 75 75 74 75 74 74 74 75 74 74 75 76 74 74 75 72 72 73 74 74 75 74 75 75 76
70 67 62 68 72 74 72 60 71 75 74 71 73 74 75 75 76 77 78 76 76 76 75 78 80 76 74 74 74 74 74 74 74 74 74 75 75 75 74 73 72 73 72 74 73 73 73 73 73
64 57 60 65 73 72 67 61 71 74 73 70 72 73 74 74 76 78 79 77 77 77 76 76 78 76 75 74 74 74 75 74 74 74 75 75 76 76 74 73 72 74 72 72 72 72 72 71 71
58 59 58 63 70 71 66 63 70 73 72 71 72 73 73 74 75 78 79 79 78 77 77 77 77 76 74 73 73 74 73 74 74 74 74 75 76 77 74 73 73 74 71 71 71 71 70 70 70
67 65 66 68 72 67 64 64 68 72 73 71 72 72 73 75 78 79 79 79 78 77 75 75 74 73 72 72 72 72 72 73 73 74 75 75 75 75 73 73 72 72 71 71 71 70 70 69 69
68 64 65 67 72 68 63 63 69 72 72 73 73 73 74 75 73 75 77 77 77 75 75 74 74 72 74 72 72 73 72 72 74 74 74 75 75 75 74 72 72 71 70 70 70 69 67 68 68
64 67 64 68 68 68 65 60 63 69 73 74 75 76 77 76 72 73 74 75 77 75 74 74 74 74 74 73 72 72 72 72 71 71 73 74 75 75 74 73 71 70 69 69 69 69 68 66 67
59 70 72 67 65 57 66 51 58 66 68 71 73 75 76 77 77 75 76 75 76 76 76 75 74 74 74 73 72 71 70 70 70 70 70 72 73 73 72 71 70 69 68 68 68 69 67 66 65
68 72 69 69 63 58 57 54 59 64 63 68 73 75 77 78 79 76 76 77 78 79 76 75 73 73 74 73 74 72 70 70 68 68 68 69 69 70 71 70 69 68 69 68 68 68 67 66 65
74 68 61 57 56 48 57 59 55 56 66 71 74 77 78 79 79 79 79 79 78 79 77 76 73 73 73 73 72 72 70 67 66 66 66 66 66 68 70 70 69 68 68 68 68 68 67 67 66
66 58 49 46 46 46 56 54 64 66 70 75 75 76 79 80 80 78 76 77 76 76 76 76 73 73 73 72 72 72 71 67 67 66 65 65 65 66 68 68 67 68 68 68 67 67 67 67 66
61 60 49 44 43 49 53 52 63 76 78 77 79 78 79 78 80 79 77 77 77 77 76 75 74 73 72 72 72 70 69 68 67 66 65 66 67 68 68 68 68 68 68 68 68 67 67 66 66
60 56 61 50 44 47 50 58 69 71 73 73 75 74 75 78 79 79 79 79 78 77 76 75 74 74 72 72 71 68 68 66 66 66 66 66 66 68 68 68 68 68 68 68 68 67 67 67 66
67 65 56 48 43 40 48 51 56 62 68 72 70 74 76 77 78 79 79 79 79 80 79 77 76 74 73 72 70 70 68 68 66 65 65 65 66 67 67 67 68 68 68 68 67 66 67 66 66
60 56 52 53 48 46 44 50 61 66 69 71 73 75 76 76 77 79 78 80 80 80 80 78 76 75 72 70 69 69 68 68 67 67 67 66 66 67 67 67 67 67 67 67 66 66 67 66 65
67 61 60 56 47 46 48 53 69 69 71 69 69 74 74 76 78 78 79 79 78 78 79 79 78 76 74 72 69 68 68 68 66 66 67 67 67 67 67 67 67 67 68 67 66 67 68 66 65

GFSSGP_sfc_temp_021.txt.gz
Temp
85 85 85 82 75 77 66 68 75 72 72 78 79 77 70 72 71 66 80 84 86 85 85 84 81 82 82 81 81 82 83 83 83 83 83 83 83 83 83 83 83 83 83 83 83 83 83 83 83
87 85 84 76 72 66 66 73 71 75 76 80 79 77 74 67 75 75 79 83 86 86 86 86 80 82 82 82 82 83 83 83 83 83 83 83 83 83 83 83 83 83 83 83 83 83 83 83 83
87 87 78 77 71 66 67 73 74 77 80 79 75 79 75 68 76 79 84 84 85 84 85 85 81 82 82 82 83 83 83 83 83 83 83 84 83 83 83 83 83 83 83 83 83 83 83 83 83
85 84 82 76 69 72 72 76 78 77 79 79 79 72 78 82 79 82 85 85 85 85 86 83 82 83 82 82 83 83 83 83 83 83 84 84 84 84 84 83 83 83 83 83 83 83 83 83 83
86 82 76 73 71 74 78 80 80 76 76 77 78 71 72 78 84 84 84 85 86 87 87 85 82 83 83 83 83 83 84 83 83 84 84 84 84 84 83 83 83 83 83 83 84 83 83 83 83
80 81 76 71 71 75 78 81 80 77 77 76 75 74 72 81 82 83 86 86 88 87 87 87 83 83 83 84 84 83 84 84 83 83 84 83 83 83 83 83 83 83 84 84 84 84 83 83 83
79 79 72 73 71 73 76 83 79 76 76 75 81 72 72 79 83 85 85 86 87 88 87 86 86 85 84 84 84 84 84 83 83 83 83 83 83 83 83 83 83 84 84 85 85 84 84 84 84
85 84 74 74 73 73 79 81 82 79 75 83 84 71 68 79 84 85 85 85 86 87 86 85 85 87 86 87 84 84 83 83 83 83 83 83 83 83 84 83 83 84 84 85 85 84 84 84 84
86 81 73 73 74 77 82 78 82 85 79 80 81 80 83 82 84 83 82 82 82 83 85 87 86 86 85 86 86 84 83 83 83 84 83 85 90 87 87 84 82 83 84 85 85 84 85 84 84
84 80 79 83 84 81 80 81 79 77 78 77 77 81 81 81 81 80 80 79 81 82 83 86 86 86 85 87 86 86 87 89 87 87 86 87 86 86 86 84 82 83 83 84 84 83 84 86 91
84 81 84 83 86 87 82 80 83 77 75 79 75 77 79 80 80 80 81 81 81 83 84 85 84 85 85 85 85 86 87 87 87 85 85 85 86 86 87 87 89 88 86 90 89 89 92 87 89
82 85 87 87 86 85 81 84 79 80 81 85 82 81 80 79 80 81 81 82 81 82 83 85 84 83 83 85 86 86 86 86 87 87 84 84 85 85 85 86 87 85 89 85 87 89 87 88 87
83 85 86 86 86 86 85 81 80 80 82 85 83 80 79 80 81 83 84 84 83 81 83 83 83 82 83 82 85 85 85 86 86 86 86 86 86 84 82 84 84 83 87 87 83 86 86 86 87
85 84 82 84 84 84 82 80 82 81 82 80 80 80 81 81 82 82 82 81 81 82 83 84 83 83 83 82 82 83 85 86 86 86 87 83 85 85 78 84 84 82 87 87 84 82 82 85 85
85 79 80 81 83 80 85 74 77 83 82 79 79 80 81 82 82 81 83 82 83 84 85 84 83 84 82 82 83 84 86 86 86 86 85 84 81 84 80 83 84 85 86 83 84 82 85 83 85
81 82 75 79 82 80 84 74 81 83 81 78 79 80 80 81 83 84 85 84 85 84 83 84 87 85 83 83 84 85 86 86 85 81 85 84 83 83 83 84 82 86 84 85 82 83 84 84 85
76 74 75 73 83 79 80 76 83 83 82 79 79 80 80 81 82 85 86 85 85 84 83 83 84 85 83 82 84 84 83 85 86 86 82 84 84 83 84 81 82 79 84 80 84 85 82 82 83
73 73 75 74 78 79 76 77 78 80 82 80 80 80 80 81 82 85 86 87 87 86 84 83 85 83 83 84 82 83 84 85 86 85 86 84 84 85 82 83 82 83 82 83 84 80 82 81 81
82 79 77 77 81 77 76 76 77 79 80 80 80 80 81 82 86 87 87 87 86 85 84 83 82 83 83 82 82 83 83 85 84 86 84 84 84 84 84 83 81 82 83 83 81 82 79 82 80
79 78 78 78 79 79 76 75 80 79 78 81 80 80 81 83 84 84 85 86 86 84 83 82 82 83 82 84 83 85 84 85 85 86 84 84 85 84 83 83 83 82 82 79 80 79 80 80 79
77 77 76 77 78 79 77 74 76 78 80 81 83 84 84 83 83 84 84 85 85 83 82 82 82 83 82 83 83 82 82 82 82 83 84 84 84 84 82 82 83 80 82 82 80 79 76 77 79
74 80 80 78 74 69 78 66 74 78 76 78 81 83 84 84 86 87 85 85 85 85 85 84 83 82 83 82 82 80 82 82 84 84 84 84 83 83 83 82 81 80 82 79 80 80 78 76 76
79 82 80 80 76 74 70 68 77 74 73 77 81 83 85 87 87 87 87 87 87 86 86 85 83 82 83 82 82 82 81 84 84 82 80 80 80 82 82 81 80 79 82 79 78 76 76 78 78
81 78 74 75 76 62 72 70 74 74 75 80 84 84 86 87 88 89 89 89 87 87 86 85 82 81 82 81 81 80 81 81 81 80 80 80 81 81 80 80 79 79 79 78 78 77 76 76 77
81 76 64 61 60 62 75 68 74 84 85 86 87 85 86 88 88 88 87 86 85 85 85 85 82 80 81 81 81 80 80 80 79 79 80 79 80 80 78 78 78 79 78 78 78 76 76 76 76
76 78 67 55 58 64 67 63 73 85 90 88 89 91 89 88 88 88 87 86 85 85 84 83 81 80 81 81 81 81 81 82 78 80 82 80 82 82 80 79 79 78 78 78 76 78 78 76 76
75 69 84 71 65 66 71 71 78 83 84 87 89 88 87 88 88 88 89 87 87 85 83 83 82 81 82 82 81 80 81 80 80 79 76 80 78 81 79 79 77 77 77 77 77 79 77 76 76
79 83 69 70 59 56 65 66 73 78 82 86 87 87 88 89 89 89 90 88 88 87 86 85 83 81 82 82 82 82 80 79 80 77 72 76 78 78 78 77 78 77 77 77 76 77 77 75 77
73 72 72 77 71 64 61 68 81 83 86 89 91 90 90 90 88 89 89 89 88 88 87 86 84 83 83 82 82 81 80 78 73 77 71 71 73 74 76 75 76 77 77 77 75 75 76 74 75
83 77 76 69 62 67 69 71 85 85 90 90 88 91 89 89 89 89 89 88 88 87 88 86 87 86 85 84 82 79 76 71 76 77 75 71 71 72 73 73 75 76 77 77 75 75 76 74 74

GFSSGP_sfc_temp_024.txt.gz
Temp
85 91 96 89 71 76 71 72 84 78 79 86 84 78 78 80 77 69 91 87 84 87 89 88 82 81 82 82 82 83 83 83 83 83 84 84 84 84 84 84 84 84 84 84 84 84 84 84 84
96 92 92 88 76 72 75 81 79 83 85 88 87 85 82 75 86 86 87 91 91 91 91 89 80 81 82 82 83 83 83 84 83 84 84 84 84 84 84 84 84 84 84 84 84 84 84 84 84
97 96 90 90 84 76 76 81 83 84 87 86 82 87 83 77 86 88 93 93 94 91 89 87 81 81 82 83 83 83 84 84 84 84 84 84 84 84 84 84 84 84 84 84 84 84 84 84 84
95 94 93 86 77 80 82 84 86 84 86 87 86 78 85 90 88 92 93 94 93 93 92 84 82 83 83 83 83 83 84 84 84 84 84 84 84 84 84 84 84 84 84 84 84 84 84 84 83
97 94 87 81 79 83 88 88 88 85 84 85 87 79 79 87 93 93 91 92 93 95 92 90 83 83 83 83 84 84 84 84 84 84 84 84 84 84 84 84 84 84 84 84 84 84 84 84 83
92 94 86 79 79 83 87 89 88 86 85 84 84 81 79 90 90 92 95 94 97 92 93 91 83 83 83 84 84 84 84 84 84 84 84 84 84 84 84 84 84 84 84 85 85 84 85 84 84
88 90 84 84 81 81 84 91 87 86 85 84 90 80 82 88 92 94 96 97 97 96 89 90 91 87 84 84 84 84 84 84 84 84 84 84 84 84 84 84 84 84 85 85 85 85 85 85 84
94 94 85 86 82 81 88 89 90 88 84 93 93 78 78 88 92 95 96 96 97 96 89 91 90 91 90 90 84 84 84 84 84 84 84 84 84 84 84 84 83 84 85 85 85 85 85 85 85
97 88 85 83 84 84 90 86 90 93 87 88 90 90 91 92 94 92 91 92 92 92 90 93 93 92 92 92 89 84 84 84 84 85 84 85 96 94 92 85 83 84 84 85 85 85 85 85 85
92 89 86 93 94 90 90 89 88 87 85 85 86 93 92 91 90 89 89 89 89 89 90 96 95 93 92 95 90 91 92 93 92 92 91 93 94 93 91 88 84 84 84 84 85 85 86 85 99
94 88 93 93 95 96 91 89 92 87 83 88 85 87 88 89 89 89 90 90 90 91 93 95 93 92 92 92 93 93 94 94 93 90 90 92 93 94 95 96 95 96 88 97 93 93 92 94 95
89 93 95 95 95 96 91 94 88 88 90 94 92 90 89 88 90 91 91 90 90 90 91 93 92 89 90 93 93 94 94 94 94 94 90 90 91 91 91 96 94 90 94 91 94 96 92 93 94
91 93 95 96 96 96 96 90 89 88 91 96 93 90 89 90 91 93 94 94 92 89 91 91 91 88 89 88 92 94 93 94 95 94 92 93 93 91 92 92 92 93 93 94 92 93 92 92 93
96 94 92 95 95 95 91 90 90 90 91 92 90 89 90 91 91 92 92 91 91 91 91 92 90 89 89 88 88 90 92 94 94 94 94 90 92 91 85 90 93 92 93 94 92 88 89 89 91
95 88 89 91 93 91 94 84 85 91 91 89 89 89 90 91 92 90 92 91 91 92 93 92 91 91 88 88 89 90 93 94 94 94 92 91 89 89 85 90 90 92 92 88 88 88 91 91 93
91 92 84 90 91 90 91 80 88 93 90 87 88 88 89 90 92 92 93 93 93 93 90 91 94 92 89 88 89 91 94 94 94 92 93 90 90 88 87 85 90 93 91 92 90 87 91 91 91
89 82 85 83 92 87 88 83 90 93 91 88 88 89 89 90 91 93 94 93 94 92 91 90 91 92 90 88 90 90 90 88 93 90 91 91 90 90 89 90 91 88 90 88 90 91 88 88 89
81 83 87 83 87 87 85 86 88 91 91 90 89 89 89 90 90 93 94 95 94 94 91 90 91 89 89 90 88 88 86 86 92 93 89 90 90 90 90 91 89 87 90 88 91 85 88 87 87
90 87 85 90 91 86 86 85 89 90 91 90 91 89 90 91 94 95 94 95 94 93 91 89 88 88 89 89 89 90 89 86 90 93 90 90 89 89 89 92 90 87 88 88 87 87 85 87 87
89 86 86 90 89 87 87 85 89 91 89 90 91 91 90 92 93 93 93 94 94 92 90 88 87 87 87 90 89 91 91 94 94 93 92 90 90 89 89 88 90 88 91 86 85 84 85 87 87
87 85 86 85 86 89 87 83 86 91 92 91 93 94 94 92 93 93 92 93 94 92 90 89 87 87 87 88 90 89 90 89 90 91 91 92 90 90 88 88 89 87 87 90 85 85 81 84 86
81 91 89 87 83 76 87 74 85 90 88 89 91 93 95 94 95 96 94 93 94 93 93 90 88 87 88 88 89 86 88 88 92 92 93 92 90 90 89 88 87 85 90 85 87 88 83 81 83
85 93 88 88 84 83 81 76 83 89 86 90 92 93 95 97 97 96 96 95 95 95 94 92 89 88 88 88 87 89 85 92 92 92 88 86 88 88 89 88 86 85 88 85 84 83 81 85 83
92 88 87 88 85 73 81 79 80 86 86 92 95 95 95 97 98 98 98 98 96 97 95 94 89 87 87 88 86 85 87 87 90 88 88 90 91 89 87 87 85 85 86 84 84 83 81 81 81
88 83 71 69 70 70 85 78 81 91 96 96 97 97 97 98 98 97 96 97 95 94 94 94 90 86 87 87 87 86 85 86 86 86 88 89 90 89 84 84 83 85 83 83 83 81 81 81 81
83 84 74 61 67 72 82 73 81 94 98 100 102 101 102 99 98 97 96 96 95 94 93 91 89 86 87 87 87 87 86 89 89 88 91 91 91 90 86 83 85 85 84 83 82 83 83 82 81
83 78 90 80 81 75 79 82 89 94 95 97 99 101 99 100 99 99 99 98 96 95 93 91 89 87 88 88 87 86 86 86 89 88 87 90 88 90 86 85 82 83 83 83 81 83 82 81 81
88 90 77 81 65 63 74 76 79 85 90 95 98 99 101 102 101 101 100 99 98 97 95 92 90 87 88 89 88 88 87 87 87 85 84 86 85 85 83 83 83 82 81 81 80 83 82 80 82
82 80 83 84 79 69 67 75 90 89 93 95 99 102 103 104 103 102 101 101 99 98 97 94 92 89 88 90 89 88 88 88 84 85 85 84 82 79 79 80 81 80 80 81 79 80 81 80 79
88 82 83 74 70 78 76 78 97 96 96 98 99 102 105 105 105 104 103 100 100 96 98 96 95 93 92 92 89 88 88 87 84 83 81 82 80 79 76 75 75 76 80 81 80 79 82 79 78

GFSSGP_sfc_temp_027.txt.gz
Temp
85 91 91 80 69 75 74 75 83 76 78 85 88 83 80 80 75 61 78 83 88 88 89 87 82 82 82 82 82 83 83 83 84 84 84 84 84 84 84 84 84 84 84 84 84 84 84 84 84
97 96 96 84 68 62 72 81 76 79 87 87 89 85 82 79 86 82 83 89 91 90 92 91 81 82 82 83 83 83 84 84 84 84 84 84 84 84 84 84 84 84 84 84 84 84 84 84 84
99 99 86 79 71 72 74 79 85 89 93 89 88 92 86 82 89 85 92 92 90 91 92 87 82 82 83 83 83 84 84 84 84 84 84 84 84 84 84 84 84 84 84 84 84 84 84 84 84
98 92 93 82 82 86 84 86 91 90 92 93 90 83 91 96 90 93 92 90 90 91 90 84 83 83 83 83 84 84 84 84 84 84 84 84 84 85 84 84 84 84 84 85 84 84 84 84 84
101 95 88 85 82 88 90 93 93 84 90 91 90 82 84 92 98 97 91 92 90 91 93 89 83 83 83 83 84 84 84 84 84 84 84 84 85 85 85 85 85 85 85 85 85 85 85 84 84
93 99 88 82 83 89 92 94 93 92 92 90 88 84 83 96 95 97 97 95 94 97 96 91 84 83 83 84 84 84 84 84 84 84 84 84 84 84 84 85 85 85 85 85 85 85 85 85 84
91 90 90 87 84 86 89 96 93 92 90 89 93 82 87 93 97 98 98 94 97 100 95 92 91 86 84 84 84 84 84 84 84 84 84 84 84 84 85 85 84 85 85 85 86 85 85 85 85
99 94 87 91 87 84 93 95 97 94 91 99 98 82 83 93 99 100 95 94 93 97 94 92 91 91 90 89 84 84 84 84 84 84 84 84 84 85 85 85 84 84 85 85 85 85 85 85 85
104 83 83 88 88 89 95 92 97 100 93 94 96 93 95 97 100 98 97 91 89 93 92 95 89 92 92 92 89 85 84 84 84 85 84 86 91 91 90 86 85 84 84 85 85 85 86 86 86
96 75 88 97 98 93 94 94 94 92 91 90 93 97 96 96 96 95 95 91 93 90 90 94 94 95 94 97 89 91 92 92 92 92 89 92 95 94 93 90 86 85 85 86 86 86 86 86 90
99 77 94 98 99 100 95 95 97 92 88 91 89 91 93 93 93 94 95 95 94 92 95 99 96 95 96 95 93 95 95 96 95 93 92 94 95 92 96 89 90 83 83 87 87 87 88 85 92
92 96 99 99 100 99 95 98 94 94 95 98 97 95 93 92 94 95 95 95 94 93 96 98 96 92 94 96 96 98 98 97 97 95 91 91 92 92 91 86 85 90 90 93 90 85 92 90 88
96 97 99 100 100 101 100 94 94 93 99 101 98 95 93 94 95 97 98 97 95 93 95 96 94 91 92 91 95 97 97 97 98 97 94 94 95 86 87 83 93 88 94 84 84 86 88 92 90
100 99 98 99 100 99 95 95 95 95 99 97 95 93 95 95 96 96 97 95 94 94 95 96 94 92 91 91 90 93 95 97 96 98 96 92 93 88 92 91 92 84 94 90 88 90 89 89 89
101 92 96 97 99 97 99 90 90 97 98 95 94 94 95 96 97 95 97 95 95 95 96 95 94 94 90 90 91 92 95 96 96 97 95 93 92 91 86 87 92 91 84 90 90 89 84 84 89
94 95 87 96 98 97 95 83 93 97 96 93 93 94 94 95 97 97 98 97 97 97 94 95 97 95 91 91 92 93 96 96 92 93 86 87 90 90 89 90 91 88 91 84 86 88 83 92 92
92 84 87 88 98 95 93 69 94 98 96 93 93 94 94 94 96 98 99 98 98 96 94 93 94 95 92 91 92 92 92 94 95 87 95 90 92 91 90 87 88 87 90 90 83 81 88 88 90
84 85 90 86 93 93 90 88 94 96 96 94 94 94 93 94 95 98 98 99 98 97 95 93 94 92 92 92 90 92 91 90 93 96 93 87 92 92 88 85 91 91 90 86 78 86 88 87 89
93 90 85 93 96 91 89 90 92 95 95 94 95 94 95 95 98 99 98 99 98 97 93 92 90 90 91 91 90 91 90 89 91 91 85 91 90 90 88 84 82 90 89 80 88 87 86 87 89
92 89 89 94 93 93 90 89 94 95 94 96 96 95 95 97 97 97 97 98 97 95 93 91 90 89 89 92 91 94 92 96 95 96 94 93 93 90 91 90 89 82 81 87 87 84 84 88 87
90 89 89 89 92 94 91 86 90 96 97 97 98 100 99 97 97 97 96 96 97 94 93 91 89 89 89 90 93 91 92 92 94 94 94 95 92 93 89 90 89 88 89 90 86 86 83 84 87
84 94 93 92 81 79 91 76 86 93 93 95 96 98 100 99 99 100 98 96 97 96 95 93 90 89 90 89 90 88 90 90 93 94 97 95 93 93 91 90 90 88 91 85 88 88 84 82 83
88 96 93 92 85 83 84 80 83 92 89 93 97 98 100 102 101 100 101 98 99 98 97 95 91 89 89 88 88 91 88 93 95 95 92 90 90 91 92 90 88 88 89 85 85 84 82 85 83
96 92 92 92 89 73 83 77 83 82 91 95 99 100 101 102 103 102 103 102 100 100 98 97 91 88 89 89 88 87 89 88 92 92 91 92 92 91 90 90 88 86 87 86 85 84 83 81 82
91 87 75 73 74 73 84 81 77 94 96 99 99 101 102 103 103 102 100 101 99 98 97 97 91 87 89 89 89 87 88 89 88 90 91 91 93 93 88 88 85 84 84 86 85 82 82 82 82
86 86 76 64 69 75 87 77 86 99 102 101 102 106 106 103 103 102 101 100 100 98 96 95 92 88 89 89 88 88 88 90 91 90 93 93 94 94 87 86 84 85 85 84 83 84 84 83 82
86 81 92 82 84 78 83 87 93 97 99 100 101 103 104 105 104 103 103 102 101 98 96 94 92 89 89 90 88 88 88 88 90 89 89 93 92 94 88 86 85 84 84 84 83 81 83 82 82
89 94 80 84 68 67 78 79 82 88 92 97 99 101 104 106 106 106 104 102 102 101 99 97 94 90 90 91 90 90 89 88 89 91 89 89 90 90 88 85 83 83 81 82 80 81 82 81 83
84 85 87 87 82 72 70 78 95 92 94 95 99 102 105 107 107 107 106 105 103 102 101 98 95 93 91 91 90 89 90 90 89 90 89 88 89 87 85 83 83 82 79 81 79 80 82 81 80
90 85 86 80 73 80 80 81 101 99 99 100 101 104 107 108 109 109 108 107 105 102 102 100 99 95 93 93 91 90 90 90 89 88 89 88 86 85 84 83 82 82 82 80 78 78 83 80 79

GFSSGP_sfc_temp_030.txt.gz
Temp
84 87 87 75 63 65 64 69 79 76 79 86 77 71 70 68 72 60 81 83 84 82 83 83 81 83 83 82 82 83 83 83 83 83 84 84 84 83 84 84 84 84 84 84 84 84 84 84 84
91 91 79 69 60 56 69 78 70 80 86 88 86 82 79 72 80 79 79 85 87 87 87 85 81 82 83 83 83 83 83 83 83 83 83 84 84 84 84 84 84 84 84 84 84 84 84 84 83
94 94 67 62 71 59 70 80 78 87 90 84 79 86 82 75 83 83 87 89 90 88 88 83 82 82 82 83 83 83 83 84 83 84 84 84 84 84 84 84 84 84 84 84 84 84 84 84 84
89 80 78 68 73 79 78 79 87 86 90 91 87 77 87 91 86 87 89 89 88 89 87 83 82 82 83 83 83 83 83 84 84 84 84 84 84 85 84 84 84 85 84 85 84 85 84 84 84
91 84 77 81 78 84 89 87 89 86 84 86 86 76 78 89 92 91 90 92 88 90 87 85 83 83 83 83 83 84 84 84 84 84 84 84 85 85 85 85 85 85 85 85 85 85 85 84 84
82 85 74 80 83 87 90 92 90 88 88 87 83 78 78 90 90 90 92 90 91 89 89 86 83 83 83 84 84 84 84 84 84 84 84 84 85 85 85 85 85 85 85 85 85 85 85 85 84
84 84 79 86 83 86 90 97 88 90 88 86 89 76 83 84 92 92 91 92 94 93 89 86 85 85 84 84 84 84 84 84 84 84 84 84 85 85 85 85 85 85 85 85 85 85 85 85 85
93 81 81 87 84 83 93 92 94 94 87 97 94 79 77 90 93 94 93 96 95 92 89 86 85 85 84 84 84 84 84 84 84 84 84 84 85 85 85 85 85 85 85 85 85 85 85 85 85
97 73 80 84 86 86 95 92 98 97 94 88 93 91 91 96 94 94 93 92 91 92 91 90 88 86 85 86 86 84 84 84 84 84 84 84 83 85 86 86 85 85 85 85 85 85 85 85 85
65 61 76 85 94 91 95 94 93 92 90 90 90 95 96 97 93 90 85 86 89 88 91 92 91 89 88 92 83 85 87 86 85 85 84 84 81 83 88 87 86 86 85 85 85 85 85 83 78
70 66 81 84 98 98 94 94 97 90 86 91 87 90 93 95 93 90 90 87 89 89 89 91 89 89 89 85 86 87 88 88 87 83 84 87 86 86 85 84 83 84 80 77 86 77 80 88 84
69 68 78 96 100 98 95 97 93 93 93 97 95 93 93 93 94 94 92 92 88 89 91 91 89 86 86 86 89 91 90 89 90 89 88 86 87 85 86 85 82 83 84 79 75 80 82 87 86
80 79 89 100 100 100 99 94 93 94 98 99 96 93 91 92 94 96 97 96 91 89 91 91 90 87 89 88 89 88 89 91 92 86 87 87 85 82 84 81 86 84 84 83 77 77 84 83 85
99 96 97 100 99 100 95 94 94 95 99 96 93 91 92 93 94 94 95 93 92 92 93 92 91 88 89 88 89 88 90 85 90 86 86 88 88 78 80 86 85 78 82 81 83 83 83 83 84
99 93 97 97 98 97 99 88 89 96 98 94 92 92 93 94 95 94 95 93 93 93 94 92 91 89 86 87 88 88 89 92 88 88 86 88 87 84 85 85 84 81 82 85 82 81 81 82 85
93 94 85 95 97 98 95 73 91 97 96 92 92 92 92 93 95 96 97 95 94 93 91 92 95 91 87 86 87 88 89 89 86 88 87 85 88 88 85 85 84 85 81 77 77 81 78 78 82
89 81 85 86 98 95 90 68 83 92 95 91 91 92 92 93 95 96 97 96 95 93 91 90 91 91 87 86 87 87 87 88 89 81 86 85 83 86 83 83 82 83 82 82 79 81 78 78 78
80 83 86 83 92 94 77 64 77 86 95 92 92 92 92 92 94 96 97 97 97 94 91 89 91 89 85 86 85 87 85 84 86 88 85 85 84 84 81 82 82 82 83 79 80 78 81 80 78
89 87 85 88 79 91 84 75 70 82 93 93 93 92 92 93 96 98 97 98 96 94 90 88 87 86 87 86 83 84 84 84 86 87 87 84 84 86 84 85 80 82 81 81 79 81 78 79 79
88 85 86 89 83 86 89 76 77 83 93 94 93 93 93 94 95 95 95 96 95 92 89 87 86 86 86 86 83 84 85 86 86 87 85 84 85 84 85 83 80 80 78 79 81 79 76 76 79
86 84 86 85 89 93 90 84 88 93 95 96 97 97 96 95 95 94 94 94 95 91 88 87 85 85 85 86 85 85 86 86 82 83 83 84 86 86 84 85 83 81 81 80 81 80 79 74 77
80 92 90 88 84 76 89 73 84 91 90 92 95 97 97 97 98 98 96 94 94 92 91 87 86 85 85 85 85 84 83 83 85 86 85 85 87 87 85 85 83 81 81 80 79 80 78 76 73
86 94 91 90 84 83 79 74 82 88 86 90 94 96 99 100 99 99 98 95 96 95 92 89 85 85 85 84 84 84 84 86 87 87 84 84 84 88 85 84 84 82 82 79 79 78 77 77 75
95 91 90 90 86 73 78 73 74 83 86 87 96 98 99 101 101 100 101 98 96 97 94 91 85 83 84 84 84 83 82 83 85 85 83 84 84 84 86 85 83 82 82 79 78 78 79 77 76
91 84 73 70 72 71 84 75 77 90 91 89 89 95 100 102 102 99 98 98 94 93 93 92 85 83 84 85 84 83 83 83 82 85 85 83 84 84 82 83 81 81 80 80 78 76 77 76 76
85 85 74 61 67 73 85 76 80 92 92 87 88 91 102 101 101 100 98 98 96 94 92 91 85 83 84 84 84 83 83 86 86 85 86 86 86 86 82 83 82 81 80 80 78 77 77 76 76
85 79 89 78 81 75 81 86 94 96 91 91 93 98 97 97 102 102 101 100 98 94 91 90 86 84 84 85 84 84 84 83 85 85 84 87 84 86 83 82 81 81 80 78 78 77 76 76 76
88 92 77 79 64 64 76 77 80 85 83 93 91 97 98 99 103 103 103 100 99 98 94 92 89 85 85 86 85 85 85 84 85 85 84 84 85 84 82 81 81 80 79 79 78 76 78 76 76
83 81 83 84 80 70 68 76 94 89 90 93 95 98 102 104 104 104 103 102 99 99 96 93 90 87 86 86 86 85 85 86 84 86 85 84 84 83 80 80 80 80 79 78 76 76 76 75 74
89 83 82 73 70 78 76 79 98 95 96 98 98 100 103 103 106 106 105 103 100 97 97 94 93 91 89 88 86 85 85 85 85 84 86 86 83 82 80 80 79 79 78 78 76 75 77 76 74

GFSSGP_sfc_temp_033.txt.gz
Temp
81 82 81 72 62 61 61 67 72 72 72 76 80 75 69 69 69 58 74 76 77 76 77 80 81 83 83 82 82 83 83 83 83 83 83 83 83 83 83 84 84 84 84 84 84 84 83 83 83
83 83 76 68 60 55 63 72 70 73 77 79 80 76 71 66 75 72 72 79 80 79 78 79 81 82 83 83 83 83 83 83 83 83 83 83 83 84 84 84 84 84 84 84 84 84 83 83 83
86 84 67 62 60 56 63 73 77 78 83 80 78 81 75 68 76 76 80 82 81 80 80 80 82 82 83 83 83 83 83 83 83 83 83 84 84 84 84 84 84 84 84 84 84 84 83 83 83
84 73 69 61 60 68 74 76 82 80 82 84 81 73 79 83 80 82 85 85 82 80 80 82 82 83 83 83 83 83 83 83 83 83 84 84 84 84 84 84 84 84 84 84 84 84 84 83 83
80 71 63 64 68 76 78 84 84 79 78 79 80 72 72 81 85 86 85 86 80 79 80 81 82 83 83 83 83 83 83 83 83 83 84 84 84 84 84 84 84 84 85 85 85 85 84 84 84
70 68 60 65 75 81 83 84 84 81 79 79 76 72 71 83 83 84 86 85 83 80 80 81 83 83 83 83 83 83 83 83 83 83 84 84 84 84 84 84 85 85 85 85 85 84 84 84 84
71 64 66 71 76 79 84 86 83 80 78 77 81 69 74 80 85 86 85 86 85 83 80 79 80 82 84 83 83 83 83 83 83 84 83 84 84 84 84 85 85 85 85 85 85 85 84 84 84
67 63 63 76 76 72 85 85 89 84 79 87 83 70 70 80 85 87 87 84 84 82 80 79 78 78 78 79 84 84 83 83 84 84 84 84 84 84 85 84 84 85 85 85 85 85 84 83 84
73 59 58 72 76 78 87 83 90 92 83 84 87 80 82 86 87 84 82 81 81 81 80 80 79 77 77 78 82 83 84 83 84 83 84 82 79 79 82 83 83 85 85 85 85 84 84 84 82
66 58 66 84 82 78 86 85 85 82 80 78 83 86 86 87 84 80 80 78 79 79 80 81 80 79 79 84 78 77 79 77 77 78 77 78 77 77 81 82 85 85 85 84 85 85 84 83 77
68 64 79 82 86 88 86 86 90 82 77 82 79 83 84 86 84 83 81 82 81 82 83 82 82 82 81 81 78 78 78 78 78 77 78 76 80 78 78 74 76 75 80 77 81 78 76 79 76
71 76 82 81 88 87 85 88 86 86 85 88 87 87 85 84 83 83 82 82 82 82 83 84 83 82 80 80 79 80 80 79 79 80 80 78 78 78 76 77 74 77 76 75 74 76 77 80 81
75 78 87 88 86 84 92 87 87 89 90 91 90 89 86 85 82 84 84 84 84 82 83 85 83 78 82 83 80 80 82 82 81 81 81 80 77 76 78 78 79 79 79 75 73 75 76 78 80
83 82 90 91 82 89 89 86 87 88 91 88 87 85 85 85 82 85 85 82 83 83 85 86 84 81 83 82 80 81 84 81 83 79 83 81 78 76 79 77 77 77 78 78 76 76 76 79 80
89 78 86 89 87 87 91 81 82 88 89 85 85 85 86 85 87 84 84 83 84 85 86 84 83 81 80 80 80 80 79 82 85 80 82 82 79 77 78 77 76 78 77 78 77 76 76 77 78
82 79 73 86 87 90 83 67 86 88 86 82 84 85 86 85 87 86 88 86 86 85 84 85 89 83 79 79 79 80 80 79 80 81 81 81 81 79 76 77 77 77 75 74 74 74 73 75 73
73 67 72 80 90 89 78 68 83 87 87 82 83 85 85 85 86 87 89 87 86 85 83 84 84 82 80 79 79 79 80 78 81 79 81 81 81 81 78 77 77 80 78 76 74 76 74 72 71
65 67 73 76 82 82 73 70 83 84 82 83 83 84 84 85 85 88 88 89 87 86 84 83 82 82 82 80 78 78 77 79 79 77 80 80 78 80 79 77 77 79 75 73 74 74 77 72 71
78 75 74 81 83 74 73 72 78 80 78 79 83 83 84 85 88 89 90 90 88 86 84 83 80 79 81 79 78 75 74 76 77 78 80 79 78 79 76 77 77 79 76 75 77 72 71 69 71
77 74 74 78 83 79 74 74 75 80 80 80 84 83 85 85 87 87 88 89 87 84 83 83 82 79 81 81 80 76 76 77 78 77 79 79 80 79 80 76 76 76 75 75 73 72 67 68 70
76 73 74 73 81 80 78 69 69 81 84 84 85 87 87 86 85 86 87 87 87 84 82 82 81 80 81 79 79 76 76 78 77 79 78 82 81 79 79 79 78 75 76 73 73 72 69 66 69
70 82 82 78 73 62 78 60 66 74 78 81 83 86 87 87 89 88 87 86 87 84 84 83 81 80 79 79 78 76 77 73 76 83 82 77 79 79 78 78 76 76 74 73 71 73 69 67 66
76 84 82 81 70 71 72 63 64 73 73 77 85 87 89 89 89 88 88 89 88 87 84 82 82 80 82 81 78 78 74 77 76 76 76 80 78 78 79 78 77 75 74 72 72 71 70 68 67
86 81 79 78 72 54 71 64 64 69 77 82 86 89 90 91 91 91 91 90 89 88 85 83 81 81 81 81 79 77 76 76 75 75 76 77 76 76 77 78 76 74 73 72 71 72 70 70 69
81 72 61 58 60 55 69 67 69 79 82 87 87 89 92 92 92 91 89 89 88 87 85 83 80 79 81 80 79 80 77 76 76 76 75 75 75 73 74 75 76 77 75 75 71 71 70 72 71
75 73 63 48 54 60 69 60 69 85 87 88 91 89 89 88 93 92 91 90 88 88 85 83 80 80 81 80 80 80 80 78 79 77 76 78 79 78 76 76 77 77 74 72 71 69 70 70 68
69 69 76 61 65 57 65 71 76 86 80 81 85 89 85 89 91 93 92 91 89 88 85 84 80 80 80 81 81 80 80 80 79 77 78 77 77 79 77 77 77 76 73 72 70 69 69 69 69
78 74 66 69 55 53 64 64 65 75 74 80 82 83 84 83 90 94 94 92 90 90 88 86 82 81 81 81 82 82 81 81 80 76 78 77 78 77 78 78 77 75 73 72 70 69 70 69 69
69 72 67 66 68 56 53 64 73 75 78 78 83 86 90 92 92 93 94 94 90 90 89 87 83 82 81 82 82 82 81 81 80 80 78 76 79 77 77 78 75 74 73 73 71 69 69 69 68
81 73 67 61 52 59 64 65 82 83 84 85 85 87 90 93 94 96 95 94 91 89 89 87 83 82 83 83 82 81 81 81 80 81 81 82 78 77 78 77 75 75 73 73 71 70 72 70 68

GFSSGP_sfc_temp_036.txt.gz
Temp
81 81 81 73 61 60 59 63 74 70 70 76 78 73 66 69 66 56 73 74 75 74 76 79 81 83 83 82 83 83 83 83 83 83 83 83 83 83 83 83 83 83 84 84 83 83 83 83 83
82 81 76 67 58 54 59 70 67 71 75 77 77 74 70 65 72 68 69 76 77 76 75 79 81 82 83 83 83 83 83 83 83 83 83 83 83 83 84 84 83 83 83 83 83 83 83 83 83
83 83 67 62 58 54 59 72 71 75 79 79 74 77 72 65 72 71 76 77 78 76 77 79 82 82 83 83 83 83 83 83 83 83 83 83 83 84 84 83 83 83 83 83 83 83 83 83 83
81 74 69 60 58 66 72 73 74 75 80 79 76 68 76 80 76 77 79 79 77 77 79 82 83 83 83 83 83 83 83 83 83 83 83 84 84 84 84 84 84 84 84 84 84 84 83 83 83
77 68 61 61 66 73 77 80 78 75 76 74 76 67 70 78 81 79 79 80 76 76 78 80 83 83 83 83 83 83 83 83 83 83 84 84 84 84 84 84 84 84 84 84 84 84 84 83 83
69 68 59 59 68 74 77 80 79 76 76 73 71 69 67 80 78 79 81 78 79 77 77 80 82 83 83 83 83 83 83 83 83 83 84 84 84 84 84 84 84 84 85 85 84 84 84 84 83
67 59 59 60 64 72 76 82 76 75 74 74 77 66 69 76 81 82 80 79 79 79 77 78 79 82 83 83 83 83 83 83 83 83 83 83 83 84 84 84 84 84 84 85 84 84 84 84 84
67 63 59 65 69 71 80 79 80 77 75 82 81 66 65 76 82 83 81 79 78 77 77 76 76 77 77 79 83 83 83 83 83 83 83 83 84 84 84 84 83 84 85 85 85 84 84 84 83
73 60 58 66 74 76 83 77 82 85 78 80 82 77 78 82 83 80 78 76 76 77 75 75 75 75 75 77 81 83 83 83 83 83 83 82 77 77 81 82 84 85 85 85 85 85 84 83 83
66 58 65 73 79 78 85 79 79 77 76 77 77 80 82 82 81 77 76 72 73 74 75 76 75 75 75 82 76 76 78 77 76 76 76 77 76 76 79 81 85 85 85 83 84 85 84 83 75
70 66 76 81 83 84 82 79 83 76 72 75 73 76 80 80 79 78 77 76 75 76 77 77 77 76 76 77 74 74 74 74 74 75 75 75 77 74 77 74 75 75 81 76 79 77 76 77 75
65 74 81 81 83 84 82 83 79 79 79 82 80 81 80 78 77 78 76 77 77 76 77 77 78 77 76 74 75 75 75 74 73 76 75 74 73 75 73 73 73 74 74 74 74 74 76 75 78
71 77 83 86 86 84 88 83 79 81 84 85 83 81 79 79 79 80 81 80 79 77 79 78 79 78 78 76 76 75 76 76 76 76 76 76 75 74 76 73 74 75 74 73 72 73 74 75 78
79 79 83 84 84 86 83 83 82 82 85 83 80 79 80 81 81 80 81 79 79 80 80 80 79 79 79 78 74 75 78 80 77 78 78 80 76 74 75 73 73 73 76 73 74 74 74 76 77
83 75 81 84 85 81 86 76 76 82 84 80 79 80 81 82 83 81 81 81 81 82 82 81 80 80 79 79 77 78 81 79 81 81 78 80 76 74 75 75 75 76 76 75 74 75 74 74 75
72 69 63 81 83 85 81 67 78 83 82 79 79 81 82 81 81 83 83 82 83 82 81 83 85 81 79 78 78 78 78 77 78 78 77 78 77 77 75 75 74 75 74 73 72 73 72 74 72
63 59 64 70 86 83 77 65 79 83 81 79 80 82 82 79 81 83 85 83 83 82 82 81 84 80 79 76 76 77 78 76 76 76 77 78 78 77 76 75 75 76 75 73 72 74 72 71 69
58 59 61 69 80 81 74 68 78 81 80 78 79 81 81 81 82 83 83 85 84 82 82 82 83 81 79 76 75 75 75 75 76 76 77 77 78 78 76 75 76 76 75 73 72 72 71 69 68
68 66 64 72 80 78 73 72 76 79 79 77 78 79 80 82 85 84 85 85 85 81 81 81 80 79 79 74 73 72 72 73 74 75 78 77 76 78 76 75 75 74 73 75 73 71 69 67 67
71 68 67 73 78 74 71 72 80 76 78 79 78 79 80 81 83 83 83 84 84 81 81 81 79 79 79 79 79 75 74 74 75 75 77 77 77 78 76 74 73 73 75 72 71 70 65 66 67
69 67 67 68 75 75 73 67 70 76 76 79 81 82 83 82 82 83 83 83 84 83 80 81 79 79 80 79 77 73 73 73 73 73 75 76 80 79 77 75 74 72 72 71 70 69 67 65 66
61 76 76 73 67 63 74 60 64 73 72 76 79 81 82 83 85 84 85 83 84 83 83 82 79 78 79 79 79 77 73 74 75 75 76 77 77 77 77 76 74 73 72 71 70 70 67 65 65
68 77 74 73 65 59 64 56 61 69 71 72 77 81 83 85 85 85 85 86 85 85 83 83 81 78 79 79 80 78 74 76 75 74 80 73 74 76 77 75 74 73 71 71 70 68 67 66 65
79 73 69 65 60 56 65 63 58 64 68 75 80 82 84 85 86 87 88 88 86 86 84 83 80 79 79 79 79 77 77 73 74 72 72 72 74 75 75 76 73 72 71 70 69 68 67 66 66
73 58 51 51 51 52 62 60 65 76 76 78 81 82 85 87 87 86 86 86 85 84 83 82 79 79 79 79 78 78 77 76 74 73 73 71 72 71 73 73 72 72 71 70 69 68 67 66 66
64 67 56 43 45 50 60 57 65 78 85 83 86 88 88 88 88 87 86 86 86 84 82 81 79 79 80 79 79 78 78 78 77 74 75 76 77 77 75 75 75 73 72 70 69 67 67 67 66
65 61 68 53 48 50 56 62 71 78 77 82 84 87 86 88 89 88 88 88 87 84 82 81 79 80 80 80 79 79 79 78 77 74 76 75 76 76 76 76 75 74 72 70 68 67 67 67 66
74 69 57 50 48 49 52 58 60 68 74 78 82 85 88 88 90 90 90 88 87 87 84 83 81 80 80 81 80 80 79 80 78 76 76 76 77 77 75 76 75 74 72 71 68 67 67 66 66
66 64 56 61 57 55 49 60 68 71 74 76 82 87 88 86 87 90 91 91 89 88 85 82 81 81 80 81 80 80 79 79 80 78 77 77 77 77 76 76 76 74 72 70 69 67 68 66 66
76 70 65 61 50 51 63 63 73 76 77 79 82 87 88 87 89 90 93 93 89 87 87 83 82 81 81 81 81 80 80 79 79 79 80 78 78 75 77 77 76 74 73 71 70 68 70 67 66

GFSSGP_sfc_temp_042.txt.gz
Temp
80 80 77 71 61 59 58 61 67 68 67 70 75 70 65 65 64 58 71 73 76 74 76 78 81 83 83 82 82 83 83 83 83 83 83 83 83 83 83 83 83 83 83 83 83 83 83 83 82
79 78 74 67 58 54 58 65 63 65 69 73 72 70 66 62 70 67 69 75 77 75 74 75 81 82 82 82 83 83 83 83 83 83 83 83 83 83 83 83 83 83 83 83 83 83 83 83 82
80 81 65 61 59 54 55 65 65 70 74 73 69 73 69 64 70 70 73 75 75 73 74 75 82 82 83 83 83 83 83 83 83 83 83 83 83 83 83 83 83 83 83 83 83 83 83 83 82
76 71 67 60 58 64 64 67 70 69 73 73 71 64 71 75 71 73 75 76 74 73 75 80 82 83 83 83 83 83 83 83 83 83 83 83 83 83 83 83 83 83 82 83 83 83 83 83 82
76 68 59 58 60 66 69 73 72 69 70 71 72 63 65 72 74 75 74 75 73 73 75 79 82 83 83 83 83 83 83 83 83 83 83 83 83 83 83 83 83 83 84 84 84 83 83 83 83
65 66 58 55 61 68 72 74 73 70 69 69 67 65 65 72 72 74 76 74 75 74 75 78 82 83 83 83 83 83 83 83 83 83 83 83 83 83 83 83 83 84 84 84 84 83 83 83 83
63 61 59 60 62 65 71 75 70 69 69 68 73 63 66 69 73 75 75 75 75 76 75 76 78 81 83 83 83 83 83 83 83 83 83 83 83 83 83 83 83 84 84 84 84 83 83 83 83
66 62 59 60 61 62 74 75 74 72 70 77 74 61 63 69 75 75 74 73 73 74 74 74 75 76 76 78 83 83 83 83 83 83 82 83 83 83 84 83 82 84 84 84 84 84 84 83 83
72 58 56 62 62 68 76 72 77 78 72 75 75 71 73 74 75 72 71 71 71 73 73 74 74 74 75 76 80 82 83 83 83 82 83 82 78 78 80 81 83 84 84 84 83 84 84 83 83
63 57 62 72 73 68 75 74 73 71 71 70 71 73 74 74 72 69 70 70 70 71 72 73 73 74 75 79 77 76 77 77 77 77 77 77 77 76 80 81 83 84 84 84 84 84 83 80 78
65 62 70 74 76 76 75 73 75 71 66 69 66 69 72 72 71 69 70 70 70 72 74 74 73 74 74 76 74 74 74 75 75 75 75 75 77 75 76 75 76 76 79 77 79 78 77 78 77
61 68 71 74 78 77 74 76 73 73 73 77 73 73 72 70 70 70 70 70 71 71 73 74 74 74 73 73 73 73 73 73 73 74 74 74 73 74 74 75 75 75 75 76 75 76 76 77 77
65 69 74 78 78 77 78 76 74 74 78 78 76 74 71 71 71 73 73 73 73 71 73 73 74 73 73 72 72 72 72 73 73 74 74 75 74 73 75 74 75 74 75 75 75 75 75 77 77
72 72 74 78 78 77 75 75 75 75 78 75 73 72 72 72 73 73 73 72 72 73 73 75 74 74 73 72 71 72 72 73 73 74 74 75 74 73 75 74 74 73 75 75 75 75 75 76 77
74 68 72 74 74 75 78 68 70 76 77 73 73 72 73 73 75 73 74 73 74 74 75 74 74 74 72 71 71 71 72 75 74 75 75 76 75 75 75 75 75 75 74 76 75 75 75 75 75
64 64 57 71 74 76 74 63 74 76 75 72 73 73 73 73 75 76 77 76 76 75 74 74 78 75 72 71 72 73 73 74 75 78 77 76 76 75 74 75 75 75 75 75 74 74 74 74 74
57 54 58 66 75 74 72 64 73 76 74 71 73 72 73 73 75 76 78 78 77 76 75 74 75 75 73 72 72 73 74 74 76 75 77 76 76 76 75 75 75 75 75 74 74 74 74 72 73
53 54 56 63 71 71 67 66 71 74 73 72 72 73 73 73 74 77 78 79 78 77 76 75 76 75 74 74 73 73 73 74 75 74 75 75 76 77 75 75 75 76 75 74 73 73 72 71 71
63 60 61 65 70 68 66 64 67 72 73 71 72 72 73 73 77 78 79 80 78 77 75 75 74 74 74 73 72 72 73 73 74 75 76 75 76 77 75 75 75 75 75 75 74 72 72 71 69
63 59 60 65 71 67 65 66 68 71 72 72 72 73 73 74 75 77 78 79 78 76 76 75 75 75 74 75 76 75 75 73 75 75 76 76 76 77 77 75 74 75 74 73 73 72 70 69 69
58 60 59 61 68 66 65 60 63 70 72 74 75 76 76 75 75 76 77 78 79 77 76 75 75 75 75 76 75 72 72 72 72 73 74 75 76 77 77 76 74 74 74 73 72 71 70 69 68
51 65 66 66 60 53 65 50 57 66 68 71 73 74 75 77 78 78 77 78 78 78 78 77 76 76 76 75 75 74 75 73 74 73 75 76 76 77 77 76 75 74 73 72 72 72 70 69 69
61 69 66 65 57 52 56 52 57 64 64 68 72 75 77 79 80 79 78 79 80 81 79 78 77 76 76 75 76 75 75 75 73 73 74 73 75 76 77 76 75 74 73 73 71 70 69 68 68
70 63 58 54 52 46 56 54 53 57 65 69 74 76 78 80 81 82 80 81 81 82 80 78 76 75 76 75 76 75 75 72 72 71 72 73 74 75 75 76 75 75 73 72 71 70 69 68 69
65 53 42 42 42 48 56 52 64 66 73 74 74 77 79 81 81 81 81 80 79 78 79 78 75 73 75 75 75 76 75 74 74 73 73 71 72 73 75 75 74 73 73 73 71 69 69 69 69
58 55 41 36 37 51 51 50 59 73 75 78 79 80 81 81 82 81 82 82 80 79 78 77 75 74 75 75 75 76 76 76 77 75 75 75 75 75 75 75 75 74 73 73 70 70 69 69 69
54 53 59 46 40 42 48 54 67 69 72 73 77 80 80 81 82 82 83 84 82 80 78 77 76 75 75 75 75 75 76 76 76 75 74 75 75 76 75 75 75 74 73 72 70 70 69 69 68
61 64 51 44 39 37 45 47 54 62 67 71 71 75 78 80 82 83 84 84 84 83 81 80 78 76 77 76 77 77 77 76 77 76 73 74 74 75 74 75 75 73 73 71 70 69 69 68 68
56 53 50 55 45 43 39 48 59 64 69 75 79 79 78 79 81 83 84 85 84 84 82 80 79 77 77 77 77 77 77 77 77 77 75 75 74 74 74 74 74 74 72 71 70 69 69 68 68
70 63 52 52 44 45 45 51 66 70 72 70 73 77 76 78 81 83 85 85 84 82 83 81 80 79 79 78 77 77 77 77 76 76 76 75 74 74 74 74 74 74 73 72 71 70 71 69 68

GFSSGP_sfc_temp_045.txt.gz
Temp
81 84 81 75 62 62 63 67 75 71 72 76 79 75 72 68 66 60 74 77 76 78 81 81 82 83 83 82 82 83 83 83 83 83 83 83 83 83 83 83 83 83 83 83 83 83 83 83 83
84 78 76 71 62 56 63 71 68 73 74 79 78 75 72 66 71 69 73 82 82 84 84 85 81 83 83 83 83 83 83 83 83 83 83 83 83 83 83 83 83 83 83 83 83 83 83 83 83
82 82 67 64 66 60 65 71 72 75 78 77 73 77 73 67 73 74 81 83 84 84 85 84 82 83 83 83 83 83 83 83 83 83 83 83 83 83 83 83 83 83 83 83 83 83 83 83 83
80 77 73 67 66 70 71 74 76 75 77 77 77 69 74 79 77 80 82 84 84 85 86 84 83 83 83 83 83 83 83 83 83 83 83 83 83 83 83 83 83 83 84 83 83 83 83 83 83
83 75 67 67 67 72 77 79 78 75 74 75 75 67 66 74 81 81 82 84 85 86 85 87 83 83 83 83 83 83 83 83 83 83 83 83 83 83 83 83 83 84 84 84 84 83 83 82 83
73 73 65 66 68 73 77 80 79 76 74 73 72 71 68 78 79 81 84 85 87 86 87 87 83 83 83 83 83 83 83 83 83 83 83 83 83 83 83 83 84 84 84 84 84 83 83 83 83
70 68 65 66 67 71 76 82 78 76 74 73 78 68 67 74 81 82 84 85 86 87 86 86 87 85 83 83 83 83 83 83 83 83 83 83 83 83 83 83 83 84 84 84 84 84 83 83 83
75 72 68 70 70 71 80 80 81 79 74 82 81 67 65 73 82 83 84 84 85 85 85 84 85 86 86 87 83 83 83 83 83 83 83 83 83 84 84 83 82 84 84 84 84 84 84 84 83
77 69 68 70 70 75 82 77 82 83 78 79 80 78 80 79 82 81 80 81 81 83 85 86 86 85 85 86 86 84 83 83 83 84 83 85 91 88 87 83 83 85 85 85 85 84 84 83 83
72 69 72 78 79 78 80 81 79 77 77 75 75 80 79 79 78 77 76 76 80 80 83 85 86 86 85 87 85 86 87 88 87 87 86 88 87 87 86 85 82 83 83 83 84 84 83 85 92
72 71 77 80 83 84 82 81 83 78 74 77 73 74 76 77 77 77 78 79 80 82 83 85 84 84 85 84 86 86 87 87 87 84 84 85 86 87 89 88 90 89 85 92 90 90 92 88 92
69 74 78 81 84 83 80 84 80 80 81 86 80 78 77 77 78 78 79 79 80 80 82 84 84 82 83 85 86 86 86 86 86 86 83 84 86 85 85 89 88 87 89 87 87 90 87 89 89
71 75 79 82 84 85 85 78 81 80 83 84 80 78 77 78 79 81 82 82 81 79 82 83 83 82 82 81 84 85 85 86 87 86 85 86 86 84 86 86 88 87 89 89 86 87 88 86 89
79 78 80 84 85 85 81 81 81 82 81 79 78 78 79 79 80 80 80 80 80 81 82 84 82 82 82 82 81 83 84 85 85 86 86 84 85 84 87 87 88 88 88 88 88 83 87 88 87
81 75 79 82 84 83 85 75 76 82 80 77 77 78 78 79 81 80 81 80 81 82 83 83 82 83 81 81 82 83 85 86 86 86 84 84 84 85 83 87 87 89 86 84 86 85 84 89 85
76 76 73 81 83 84 83 74 81 82 80 77 77 77 77 79 81 82 83 82 83 83 81 82 85 84 82 82 82 83 85 85 86 87 87 84 85 84 84 86 87 88 86 83 82 87 87 80 79
72 71 71 76 83 82 81 77 84 83 82 77 77 78 78 78 80 82 84 84 84 83 82 82 83 83 82 81 82 83 83 84 86 87 87 84 85 85 85 87 87 85 86 85 82 86 85 83 82
66 67 72 73 82 82 78 78 80 82 82 79 78 79 79 79 80 83 84 85 85 84 83 82 82 82 81 82 81 83 84 85 86 86 87 84 85 85 84 80 82 86 86 80 80 83 84 85 85
72 71 72 77 82 80 79 79 81 81 82 80 80 79 80 81 84 85 85 86 85 84 82 81 80 80 81 81 81 82 82 84 85 86 85 85 85 85 84 79 85 82 82 84 83 84 82 84 83
71 69 71 76 79 78 80 78 81 80 80 81 80 79 80 82 83 82 84 84 84 83 82 81 80 80 80 82 82 84 84 86 86 87 86 86 86 85 85 81 84 84 86 82 82 81 82 83 82
69 68 71 72 76 79 77 75 74 79 80 82 83 83 81 83 82 83 82 83 84 83 82 81 80 81 80 82 82 82 84 83 83 84 86 86 86 86 85 80 82 84 84 85 82 81 80 82 81
66 74 74 72 70 66 77 66 71 77 75 78 81 82 84 84 84 86 85 84 84 84 84 82 81 81 81 81 81 80 82 82 85 85 87 87 86 86 86 85 84 83 86 83 83 83 82 80 80
69 76 73 73 71 70 72 68 75 75 73 76 80 82 84 87 86 86 86 86 86 87 85 84 82 80 81 81 81 82 81 85 87 86 84 83 85 85 86 85 84 84 85 83 82 80 79 82 83
78 74 72 70 71 60 69 69 72 73 75 79 82 84 84 87 88 88 88 88 87 88 87 85 81 80 81 81 80 80 80 82 83 83 84 85 86 87 84 85 84 84 84 83 83 81 80 80 80
75 70 59 56 57 57 74 67 70 81 83 86 84 84 86 87 88 88 87 87 86 86 86 85 81 78 80 80 81 81 80 81 81 82 84 85 86 86 85 83 83 85 83 83 82 80 80 79 80
70 71 63 52 56 62 68 62 71 84 88 87 89 90 89 87 88 87 88 88 86 86 85 84 81 79 80 81 80 80 81 84 84 84 86 86 87 87 86 84 85 84 84 83 81 82 82 80 80
69 66 77 67 62 61 68 72 78 82 85 87 86 88 88 88 88 88 89 90 89 86 84 84 81 79 80 81 80 80 81 81 83 83 83 86 85 88 86 85 84 84 84 83 81 83 79 79 79
74 77 62 66 53 53 63 63 69 75 80 84 86 86 88 90 90 90 91 90 90 89 87 86 83 80 81 82 82 82 82 82 83 83 82 83 85 84 86 84 84 84 83 82 80 82 80 78 80
68 68 70 71 66 59 58 66 77 78 82 83 87 88 90 91 92 92 92 92 91 91 89 86 85 83 82 82 82 82 82 83 83 84 83 83 84 83 84 84 84 83 82 82 80 80 81 78 78
76 71 71 62 57 63 66 67 80 83 86 86 87 90 91 92 93 93 94 92 91 90 90 88 87 85 84 84 82 82 82 83 83 83 84 84 82 83 83 84 84 83 83 82 80 80 81 78 78

GFSSGP_sfc_temp_048.txt.gz
Temp
83 88 87 76 63 70 71 73 83 79 79 85 87 82 75 76 69 64 80 75 78 85 79 86 82 83 83 83 83 83 83 83 83 83 83 83 83 83 83 84 83 84 84 84 84 84 84 83 83
85 81 84 82 67 69 71 80 78 82 83 86 85 83 81 71 75 72 77 77 83 88 88 87 81 82 83 83 83 83 84 83 83 83 83 84 84 84 84 84 84 83 84 84 84 84 84 84 83
84 85 81 72 68 71 73 80 81 83 86 84 80 86 82 72 79 80 83 83 91 90 86 87 82 83 83 83 83 83 84 83 84 84 84 84 84 84 84 84 83 83 83 84 84 84 84 84 83
84 78 81 66 76 79 80 82 84 83 84 85 85 77 81 85 82 87 87 89 92 92 92 85 83 83 84 83 83 84 84 84 84 84 84 84 84 84 84 84 84 84 84 84 84 84 84 83 83
84 84 75 73 78 81 86 86 86 82 82 82 83 73 71 79 87 88 87 90 93 94 94 91 83 83 84 84 84 83 83 84 84 84 84 84 84 84 84 84 84 84 84 84 84 84 83 84 84
82 84 76 80 78 82 86 88 86 84 82 81 80 73 69 84 83 87 90 91 96 95 95 92 84 83 84 84 84 84 84 83 83 84 84 84 84 84 84 84 84 85 85 85 84 84 84 84 84
79 78 77 78 78 81 84 90 86 84 82 81 86 75 75 80 85 88 92 93 95 97 95 92 91 87 84 84 84 84 84 83 83 84 84 84 84 84 84 84 84 85 85 85 84 84 84 84 84
85 81 79 82 80 80 87 88 89 87 83 90 89 75 73 81 87 90 91 93 93 96 94 91 91 91 90 89 83 83 83 83 84 84 84 84 84 84 84 84 84 85 85 85 85 85 84 84 84
86 77 79 81 81 84 90 86 90 92 85 86 87 86 87 87 87 86 88 87 86 91 94 95 93 92 91 92 89 84 83 83 83 85 84 85 96 94 93 85 84 86 85 85 85 85 84 84 84
82 81 82 88 89 88 89 89 87 86 84 83 84 89 88 87 82 83 86 84 85 89 92 95 95 93 92 95 90 91 92 94 93 92 91 96 93 93 92 87 83 84 84 84 85 84 85 85 92
83 82 87 88 89 91 90 89 91 87 82 86 82 83 85 86 84 86 88 88 88 90 93 95 92 92 92 92 93 93 94 95 93 89 90 93 94 94 98 97 96 95 87 91 92 94 99 95 94
80 85 88 90 91 91 89 93 88 88 89 93 89 87 86 85 87 89 89 89 89 89 91 93 91 89 90 93 93 94 95 94 95 94 89 91 93 92 94 98 95 93 96 93 93 91 92 96 95
82 86 89 92 92 92 93 89 89 88 92 95 91 87 86 87 88 90 91 91 90 88 90 91 90 87 88 88 92 93 93 94 95 94 92 94 94 91 95 89 97 95 95 96 92 93 94 95 94
89 87 89 91 92 92 89 88 89 90 92 91 88 86 87 88 89 89 90 89 89 89 90 91 90 88 88 88 87 90 92 94 94 95 94 90 92 93 96 93 97 97 97 95 91 90 90 91 91
89 82 87 90 92 90 92 84 84 91 90 87 87 87 87 89 90 88 90 89 90 91 91 90 90 91 87 87 88 89 93 94 94 94 91 91 90 91 87 95 95 97 94 91 92 91 94 90 92
84 86 80 90 92 92 91 81 89 92 89 86 86 86 86 88 90 91 91 91 91 91 89 90 93 92 88 88 89 91 93 94 94 95 95 91 90 89 90 93 96 95 91 92 92 92 85 89 89
83 78 80 84 93 90 88 83 92 94 90 87 87 87 87 87 89 91 92 92 92 91 89 89 90 91 89 87 89 90 90 91 94 95 95 92 91 91 90 94 96 91 95 93 93 89 92 89 91
77 78 84 82 88 89 86 86 91 94 92 90 88 88 87 88 89 91 92 93 93 92 90 88 90 88 87 89 87 91 92 92 94 94 95 92 91 91 90 92 89 89 90 92 90 87 92 92 91
84 81 80 85 91 87 86 87 90 94 91 91 89 88 89 89 92 93 92 93 93 92 89 87 86 86 87 88 88 88 89 90 92 93 92 91 91 91 89 93 88 90 89 89 88 89 85 91 91
81 78 80 87 88 85 86 86 91 94 90 91 91 89 90 91 91 91 91 92 92 90 89 87 86 86 86 89 89 91 90 93 93 94 92 91 91 90 91 88 91 89 93 87 87 86 91 91 91
77 78 79 80 85 88 85 82 86 91 92 93 94 94 93 92 91 91 90 91 92 90 89 87 86 86 86 88 89 88 90 90 91 92 92 92 91 92 90 90 88 89 90 91 87 87 85 89 89
73 82 81 80 78 74 87 72 83 89 88 90 93 94 94 92 94 95 93 92 92 91 91 89 87 86 86 86 88 85 87 88 92 92 94 94 92 92 92 90 89 87 93 90 89 90 88 85 87
77 86 81 80 78 78 79 75 81 89 85 88 91 93 95 96 96 95 95 93 94 94 93 91 88 86 86 86 86 88 86 91 93 94 91 89 91 91 92 91 90 89 91 90 88 87 85 89 89
84 81 81 80 78 68 76 77 78 84 85 90 93 95 95 97 97 97 98 97 95 96 95 93 88 86 86 86 84 86 86 87 91 90 91 92 93 93 89 91 90 89 90 89 89 87 85 86 87
81 77 67 64 65 65 81 76 78 88 94 93 94 96 96 97 98 96 95 96 95 94 93 93 88 84 85 86 86 85 85 86 87 88 91 91 94 94 92 89 88 90 88 90 88 86 86 85 86
76 77 70 58 65 70 80 71 80 93 96 96 98 100 99 98 97 97 96 96 95 94 94 92 89 85 86 86 85 86 86 89 90 90 93 94 94 95 93 90 90 89 90 89 88 89 88 87 86
76 72 84 77 78 71 78 80 88 92 93 94 96 98 99 99 98 98 99 98 97 95 93 91 89 86 86 87 86 86 86 86 90 89 90 92 92 96 93 91 89 90 89 89 87 89 87 87 85
83 84 72 75 61 60 72 74 77 84 86 92 94 97 99 102 101 100 100 99 99 98 96 93 91 87 87 88 88 88 87 87 88 89 88 90 92 91 93 90 90 89 89 88 87 89 88 85 87
77 76 77 80 75 67 65 74 90 87 89 90 95 98 100 102 102 101 101 101 100 100 98 95 92 90 88 89 89 88 89 89 88 89 89 89 89 90 89 90 89 89 89 88 86 86 88 84 84
84 78 78 69 66 73 74 77 93 91 94 95 95 98 102 103 105 104 104 102 101 99 100 98 95 93 91 91 89 88 88 89 89 88 89 90 88 89 89 89 89 89 89 88 86 86 88 85 83

GFSSGP_sfc_temp_051.txt.gz
Temp
82 90 86 74 64 73 63 75 71 81 80 89 91 83 79 79 72 63 75 77 80 88 90 87 82 83 83 83 83 83 83 83 83 83 83 84 83 83 84 83 83 84 84 84 84 84 84 84 83
86 86 78 73 65 58 73 82 72 83 90 92 90 87 83 71 82 78 72 78 84 89 90 87 81 83 83 83 83 83 84 84 83 84 84 84 84 84 84 84 84 84 84 84 84 84 84 84 84
91 89 73 72 74 62 65 82 86 89 91 88 87 86 81 75 84 82 78 86 87 88 87 87 82 83 83 83 83 84 84 84 84 84 84 84 84 84 84 84 84 84 84 84 84 84 84 84 84
90 78 82 69 63 82 80 86 89 89 90 91 87 78 85 88 85 86 87 91 87 90 92 84 83 83 84 83 84 84 84 84 84 84 84 84 84 84 84 84 84 84 84 84 84 84 84 84 84
85 77 69 66 66 83 89 92 89 88 88 88 83 76 72 82 89 88 90 87 92 91 92 89 83 83 84 84 84 84 84 84 84 84 84 84 84 84 84 85 85 85 85 84 84 84 85 85 84
74 88 73 58 73 85 92 93 93 91 89 88 82 78 75 85 85 89 89 90 94 94 95 91 84 83 84 84 84 84 84 84 84 84 84 84 84 84 84 85 85 85 85 85 85 85 85 85 84
82 82 77 77 82 82 88 96 92 90 88 87 88 74 78 82 87 89 90 93 93 99 95 91 91 87 84 84 84 84 84 84 84 84 84 84 84 84 85 85 85 85 85 85 85 85 85 85 84
88 86 79 85 81 73 91 93 95 93 88 96 92 78 74 82 88 91 91 90 95 99 95 91 90 91 89 89 84 84 84 84 84 84 84 84 85 85 85 85 85 85 86 86 85 85 85 85 84
94 80 80 80 80 84 95 91 96 98 91 91 92 90 89 87 89 87 87 88 89 96 96 96 94 92 92 92 89 84 84 84 84 85 85 86 85 87 90 85 86 86 86 86 86 85 85 85 84
87 83 73 89 79 88 94 93 93 91 89 88 91 93 90 89 85 83 84 83 86 92 95 97 97 95 94 97 89 91 92 93 90 87 90 81 91 90 91 90 86 86 86 86 86 86 85 84 88
90 69 74 94 96 90 95 92 96 91 86 90 86 87 88 87 83 85 85 85 89 94 97 98 96 94 95 95 94 95 95 96 95 92 93 92 94 87 85 86 90 87 88 83 86 84 81 85 80
86 91 95 96 96 96 88 95 94 93 94 97 94 91 89 87 86 89 88 88 91 93 95 97 95 92 93 95 96 97 97 97 97 95 91 92 91 93 95 85 89 90 85 92 89 76 93 88 89
89 90 95 96 97 97 97 92 92 94 98 99 95 92 90 89 90 94 95 95 94 93 95 96 94 91 91 91 95 97 97 97 98 96 93 96 95 89 82 90 80 86 93 89 92 90 92 88 85
94 93 94 96 95 97 94 93 93 95 99 95 92 91 92 92 93 94 95 94 94 94 94 96 93 91 91 90 91 93 95 97 97 97 96 92 94 92 84 93 83 85 83 83 90 90 82 90 89
95 88 91 94 96 95 98 89 90 95 97 92 92 91 92 93 94 93 95 94 94 95 95 94 93 93 89 89 90 92 96 98 96 97 94 93 92 92 89 83 86 87 85 91 91 92 89 79 95
88 89 81 92 95 97 95 79 93 97 95 91 91 91 91 92 95 95 96 95 95 95 93 94 96 94 90 89 91 93 96 97 97 97 97 92 92 91 91 90 83 87 91 94 93 93 77 92 92
86 79 82 85 97 95 92 70 72 97 95 92 91 92 92 92 94 95 96 96 96 94 92 92 93 94 91 90 91 92 93 94 97 98 98 92 92 92 91 84 78 92 79 82 86 87 88 89 92
79 80 85 83 93 94 90 82 77 96 96 93 92 92 91 92 93 95 96 97 97 95 93 91 93 92 91 91 90 93 94 94 96 96 97 94 93 93 92 91 92 92 90 88 90 87 89 91 91
88 86 84 90 93 91 87 86 89 94 95 94 93 92 92 93 96 97 97 97 96 95 92 90 89 89 91 90 89 90 90 92 93 96 95 94 93 92 89 92 86 92 89 89 89 89 87 80 91
85 85 86 91 89 92 87 88 92 96 95 96 96 93 93 94 95 95 95 96 95 93 92 90 89 89 89 91 91 92 92 94 94 95 94 93 93 92 92 91 91 78 79 89 89 88 78 92 91
83 83 84 85 91 93 88 84 89 96 98 98 99 98 97 95 95 94 94 94 95 93 92 90 88 88 88 89 91 91 93 92 93 94 94 94 93 94 91 91 91 91 90 83 88 88 87 79 90
78 88 87 86 84 78 89 74 84 92 93 95 96 98 98 97 97 97 96 94 95 94 94 92 89 88 89 88 89 86 88 89 92 93 95 96 93 93 93 91 91 89 92 88 90 91 89 87 88
82 90 86 86 83 83 83 79 85 91 88 92 96 98 100 100 99 98 97 96 97 97 96 94 90 87 89 87 87 90 87 92 95 95 92 90 92 92 94 93 91 90 91 92 90 89 86 89 89
90 86 86 85 82 71 79 81 82 87 90 94 97 100 100 101 101 100 100 99 98 99 97 95 89 87 87 88 86 86 86 87 91 92 93 94 94 94 91 93 92 91 91 91 89 89 87 86 89
86 81 70 67 68 68 83 79 82 93 97 98 98 99 101 103 101 100 99 99 97 97 96 96 89 86 87 88 87 85 87 87 87 90 92 93 95 96 92 89 90 91 90 91 91 88 88 86 87
81 81 71 60 65 72 82 74 82 96 100 102 103 103 103 102 103 101 99 99 98 97 96 95 90 87 88 87 87 87 87 91 90 91 94 95 96 98 96 91 91 90 91 90 90 91 89 88 87
81 76 87 79 82 76 81 84 92 97 97 99 99 102 102 103 103 102 102 102 100 98 96 94 92 88 88 88 87 87 86 87 90 88 90 94 94 98 97 94 91 90 90 91 89 90 88 89 86
86 89 75 78 65 66 77 79 81 87 91 96 98 99 102 104 103 104 104 102 103 101 100 97 94 90 89 89 89 89 88 87 89 90 89 90 92 93 95 93 92 90 90 90 89 90 89 87 89
80 80 82 83 79 71 70 78 94 92 93 94 97 100 102 104 104 105 105 105 103 103 101 99 96 93 91 90 90 89 89 90 89 90 91 90 91 92 91 92 91 90 89 90 88 88 90 87 86
87 82 83 74 70 78 79 81 97 97 99 99 98 101 104 105 107 107 107 106 105 102 102 101 99 96 95 92 90 90 90 90 90 89 91 92 89 91 91 90 91 90 90 89 88 87 90 89 86

GFSSGP_sfc_temp_054.txt.gz
Temp
82 87 86 76 63 66 61 66 77 73 80 87 88 82 74 80 73 62 78 81 83 86 85 84 83 83 83 83 83 83 83 83 83 83 83 83 83 83 83 83 83 84 84 84 84 84 84 83 83
87 87 76 71 61 54 60 76 71 73 84 88 86 83 80 73 77 71 71 80 84 90 87 85 82 82 83 83 83 83 84 83 83 83 83 83 84 84 84 84 84 84 83 84 84 84 84 83 83
90 89 70 68 65 58 59 81 80 88 89 86 80 85 82 74 77 75 78 82 88 89 88 83 82 82 83 83 83 83 83 83 83 83 84 84 84 84 84 84 84 84 84 84 84 84 84 84 84
87 78 78 65 62 68 70 83 89 87 88 86 84 76 83 85 82 82 85 88 90 88 87 82 82 83 83 83 83 83 83 84 84 84 84 84 84 84 84 84 84 84 84 84 84 84 84 84 84
84 76 68 65 61 66 80 91 91 87 83 84 83 73 72 83 87 86 86 90 88 88 86 85 83 83 83 83 84 83 84 84 84 84 84 84 84 84 84 85 85 84 84 84 84 85 84 84 85
73 78 59 56 65 76 89 93 91 89 84 84 78 75 74 83 84 87 90 90 89 89 89 85 83 83 83 84 84 84 84 84 84 84 84 84 84 84 85 85 85 85 85 85 85 85 84 84 84
79 75 69 59 65 77 88 95 89 90 88 81 85 72 75 80 87 89 87 89 92 93 89 86 86 85 84 83 84 84 84 84 84 84 84 84 84 84 85 85 85 85 85 85 85 85 85 84 84
88 82 75 67 68 73 86 93 95 91 85 93 87 72 68 80 87 90 90 88 93 92 89 86 85 85 84 85 84 84 84 84 84 84 84 84 84 85 85 84 85 86 86 86 85 85 85 84 84
94 77 73 77 82 81 85 91 95 96 90 90 90 82 82 86 88 88 87 81 83 91 90 90 88 87 86 86 85 84 84 84 84 84 84 84 83 85 85 86 85 86 86 86 86 85 85 84 84
85 75 63 79 84 85 83 93 92 90 89 88 85 85 85 86 85 80 85 83 85 87 90 91 90 89 87 91 83 84 86 86 85 85 79 80 84 83 90 87 85 86 86 86 85 83 84 83 83
88 66 72 82 85 90 82 91 96 89 85 86 80 81 84 83 83 83 83 87 87 89 92 93 90 89 89 85 85 87 88 88 83 84 76 80 82 85 88 85 86 85 85 82 78 76 80 82 84
84 73 74 82 85 88 81 80 92 92 91 93 88 86 85 82 82 84 83 86 88 89 91 92 90 87 87 89 89 90 90 88 89 89 89 87 84 80 75 81 80 76 79 77 75 75 76 78 78
88 77 84 83 89 80 81 84 90 92 96 96 91 88 85 84 83 85 87 87 89 88 91 91 89 86 89 87 88 89 89 92 86 88 89 87 79 80 82 78 77 81 76 75 74 82 80 78 81
94 93 92 95 96 91 80 89 91 92 97 92 89 87 87 86 87 87 87 87 88 91 92 92 89 87 89 88 87 86 91 90 92 90 88 90 85 81 80 81 81 80 81 79 80 85 81 83 83
95 87 92 90 93 93 97 80 81 79 95 90 89 88 88 88 89 87 90 89 89 92 93 90 90 88 86 87 87 89 91 93 90 91 87 91 88 88 85 82 81 83 82 84 85 84 81 81 86
88 86 76 91 92 94 94 68 69 91 91 88 89 89 89 90 92 93 95 93 93 93 89 91 94 89 86 85 87 88 90 90 90 90 89 88 89 89 86 79 79 81 82 80 83 79 80 82 83
85 75 79 83 93 93 91 71 71 78 73 88 88 89 89 90 92 94 97 95 94 92 89 90 90 89 85 85 86 86 87 89 90 90 90 87 88 89 85 76 74 74 79 81 84 79 83 78 83
76 77 82 82 89 91 88 81 78 73 68 73 89 89 89 89 92 94 96 96 95 93 90 88 89 87 84 86 85 87 87 88 89 89 90 86 87 88 84 79 78 79 81 80 82 82 82 82 82
84 82 80 87 93 88 88 76 75 71 71 69 90 89 89 90 94 95 95 96 95 93 88 86 86 85 85 85 84 84 84 85 86 88 90 87 89 88 86 85 80 84 82 84 85 83 83 78 82
83 81 83 88 93 83 84 78 73 72 71 74 87 88 91 91 92 92 93 94 93 90 87 85 85 84 85 86 84 85 85 87 87 87 88 89 88 88 87 83 82 84 81 83 85 84 76 78 81
80 80 82 84 87 88 86 78 76 76 80 89 92 90 94 92 92 92 91 92 93 89 87 85 84 84 85 85 85 85 86 86 85 86 86 88 89 89 87 85 83 82 84 80 82 83 81 73 80
75 86 86 86 79 72 87 65 80 90 91 93 94 91 94 94 95 94 93 92 92 91 90 86 84 84 85 84 84 82 82 82 84 85 87 87 87 88 88 85 85 85 84 82 81 84 83 81 78
80 89 85 85 82 81 78 76 82 89 87 91 94 95 95 97 96 95 95 93 94 94 91 88 84 83 84 83 83 84 82 85 86 86 84 85 85 87 89 87 86 84 84 82 81 82 83 83 80
90 86 85 84 81 71 78 76 77 84 86 92 96 97 97 98 98 98 97 96 94 95 92 90 84 82 83 83 82 82 81 82 84 84 85 87 87 87 86 88 85 84 84 83 84 83 83 81 81
86 80 68 66 67 66 81 77 80 91 94 94 95 97 100 100 99 97 95 95 92 92 92 90 84 82 83 83 83 82 83 81 81 83 85 85 87 88 85 85 85 85 84 85 83 83 82 82 81
81 80 69 57 62 68 79 72 79 94 99 101 101 100 101 101 100 98 96 94 92 92 90 89 84 82 83 83 83 82 82 85 84 84 87 88 89 89 86 85 85 85 85 84 84 84 83 82 81
80 74 85 75 78 71 76 80 89 94 95 98 99 101 100 101 101 100 99 97 94 92 90 88 85 82 83 84 83 83 82 82 85 83 84 87 86 91 90 86 85 85 85 84 83 84 82 83 81
85 88 73 76 61 61 72 75 77 84 89 94 96 99 101 102 102 101 100 98 96 95 93 91 88 83 84 85 84 85 84 83 84 85 83 84 86 89 90 85 85 85 84 84 83 83 84 82 82
80 79 80 80 76 66 66 75 93 87 90 93 97 99 101 103 102 103 101 100 98 97 95 93 90 87 85 85 85 84 85 85 84 85 85 85 85 85 86 87 85 84 84 84 83 83 83 82 81
86 80 81 71 67 75 75 77 94 97 97 97 97 100 102 103 104 103 103 101 100 97 97 95 94 92 89 87 85 85 85 85 85 84 86 86 85 86 86 86 85 84 84 84 83 83 84 83 81

GFSSGP_sfc_temp_057.txt.gz
Temp
80 81 80 73 61 61 58 64 71 66 69 82 85 79 71 76 69 59 72 75 77 78 79 81 82 83 83 82 83 83 83 83 83 83 83 83 83 83 83 84 84 84 84 84 84 83 83 83 83
80 82 76 68 60 53 57 70 69 69 80 83 83 81 76 66 72 69 70 78 80 80 79 80 82 82 83 83 83 83 83 83 83 83 83 83 83 84 84 84 84 84 84 84 84 84 83 83 83
84 85 68 63 60 55 57 69 72 77 84 81 78 81 77 66 72 73 77 80 83 81 79 80 82 82 83 83 83 83 83 83 83 83 83 84 84 84 84 84 84 84 84 84 84 84 84 84 83
82 73 69 60 58 64 64 70 80 81 83 83 80 72 76 77 75 76 80 81 82 79 80 81 82 83 83 83 83 83 83 83 83 83 84 83 84 84 84 84 84 84 84 84 84 84 84 84 83
80 70 62 60 62 64 73 80 81 78 79 76 77 68 68 75 79 79 80 84 81 79 79 80 83 83 83 83 83 83 84 84 83 84 84 84 84 84 84 84 84 84 84 84 84 84 84 84 84
67 67 58 55 60 68 75 80 85 82 79 76 71 70 69 77 78 80 83 84 83 80 80 81 83 83 83 84 84 84 84 84 84 84 84 84 84 84 84 84 85 85 85 84 84 84 84 84 84
69 66 60 59 61 67 76 77 82 80 77 75 78 67 70 75 81 83 85 84 83 82 80 79 80 82 84 83 84 84 84 84 84 84 83 83 84 84 84 85 85 85 85 85 85 84 84 83 83
77 72 65 62 62 65 82 87 87 81 77 84 81 66 65 76 82 84 85 84 84 81 80 78 77 77 77 79 84 84 84 84 84 84 84 84 84 84 85 84 84 85 85 85 85 84 84 84 83
86 68 64 66 66 74 81 79 86 89 80 82 84 77 78 81 83 82 80 78 80 81 80 79 78 77 76 78 82 83 84 84 84 83 84 82 78 78 82 82 84 85 85 85 85 85 84 84 84
76 64 67 77 77 75 82 80 84 82 77 74 75 80 82 82 80 78 77 77 77 78 80 80 80 79 79 84 77 77 80 78 78 78 76 76 77 76 82 83 84 85 84 85 84 84 84 83 77
79 69 73 77 81 83 82 82 91 81 71 73 71 76 80 81 80 80 79 80 79 80 82 81 82 81 80 80 76 76 77 77 77 76 73 75 77 76 79 79 78 77 79 72 76 76 74 79 78
76 78 79 81 83 83 79 82 87 84 78 80 79 80 80 79 78 80 81 81 81 81 83 83 82 82 80 79 78 79 79 78 78 75 76 74 75 76 75 75 76 73 74 73 75 72 74 75 78
81 76 83 84 84 81 84 82 84 80 81 82 81 81 79 78 80 82 83 85 84 82 84 84 83 80 81 82 80 80 81 82 82 81 79 75 74 74 76 75 73 72 73 73 73 74 75 75 77
84 80 83 85 81 83 81 82 82 82 83 80 80 78 79 80 81 81 82 82 83 84 85 84 84 80 83 81 79 81 81 82 85 81 80 77 74 75 76 75 77 75 75 73 72 76 75 76 78
86 81 81 82 81 76 84 74 73 77 84 79 78 78 79 80 82 81 82 82 82 82 86 83 83 80 80 79 80 81 80 83 81 80 81 80 79 76 77 75 77 77 76 76 77 80 78 78 79
78 78 70 82 82 83 79 58 71 79 74 78 80 79 80 79 81 83 84 84 85 84 84 84 88 81 78 78 79 79 80 82 80 81 80 81 81 80 76 73 73 75 77 75 79 74 74 74 76
72 66 69 75 86 87 80 57 69 77 74 77 80 80 80 80 81 84 85 86 86 85 84 83 83 82 78 78 78 79 79 79 80 79 79 80 81 82 75 73 73 75 75 75 76 77 76 74 78
63 65 69 72 82 85 71 67 67 72 74 75 74 73 81 80 82 85 86 88 87 85 84 84 81 81 80 78 77 77 77 78 79 79 79 80 80 81 76 74 75 75 76 76 76 78 76 75 75
74 74 71 80 86 82 77 68 70 73 77 76 76 73 76 82 86 88 88 89 88 85 83 83 78 79 80 79 78 74 75 76 77 78 79 80 80 81 77 75 74 76 75 76 77 76 75 76 73
75 71 71 79 85 82 73 67 71 72 69 73 75 72 74 84 85 87 87 88 86 83 84 79 80 79 80 80 80 75 76 76 77 78 79 80 81 80 79 76 75 77 76 76 76 75 73 72 73
72 69 71 72 81 80 74 66 69 73 71 74 75 76 80 84 84 85 86 86 86 82 82 82 79 79 80 79 79 76 76 75 75 76 77 79 81 81 80 78 76 76 76 75 75 75 74 71 71
65 78 78 77 74 60 77 58 62 69 71 72 75 77 80 86 87 86 86 85 85 83 83 82 79 79 80 79 79 79 79 75 74 76 77 78 81 81 80 79 78 77 75 76 76 78 74 73 71
71 80 77 76 72 71 68 64 62 71 69 71 76 78 79 84 88 86 86 87 87 86 83 82 82 80 81 80 80 78 74 74 75 75 76 76 78 80 81 79 79 77 76 75 75 76 75 74 72
83 76 75 75 71 60 66 66 63 69 70 74 78 79 80 86 89 89 89 89 88 87 84 82 80 80 81 79 76 78 76 75 73 74 74 75 78 81 80 81 80 78 77 76 75 75 76 73 74
77 67 54 53 55 55 65 65 64 78 81 82 82 81 82 89 89 88 87 87 87 85 84 82 80 78 80 80 80 76 76 76 75 75 75 75 76 80 78 79 79 79 78 77 77 76 76 74 74
71 69 55 44 48 56 65 58 67 81 86 92 91 88 90 89 90 89 88 87 87 86 84 82 79 79 80 79 79 81 78 78 80 75 77 78 77 81 83 82 80 80 79 78 77 76 76 75 74
69 66 70 56 56 52 59 66 76 84 82 87 89 90 89 91 90 90 89 89 88 87 84 83 80 79 80 80 80 79 80 78 79 80 75 76 78 81 81 82 80 79 79 78 76 76 76 75 75
75 75 62 64 47 49 59 61 66 73 79 80 85 89 91 92 91 91 90 89 89 89 87 85 82 80 80 80 81 80 80 80 78 78 75 79 78 79 80 81 81 80 79 80 77 76 76 75 74
70 67 69 62 57 48 48 61 75 76 81 82 85 84 92 92 92 91 90 91 89 90 88 85 83 81 80 80 80 81 80 80 80 78 79 78 76 79 78 78 79 81 80 78 78 75 76 75 75
77 72 67 61 53 55 54 62 78 81 86 87 86 88 87 94 93 93 92 91 89 88 89 86 84 82 81 82 81 80 81 81 79 79 79 79 79 76 79 79 80 80 80 79 77 76 80 77 75

GFSSGP_sfc_temp_060.txt.gz
Temp
79 80 77 73 60 59 57 63 65 68 73 81 81 77 70 68 66 57 70 72 75 76 77 80 82 83 83 82 82 83 83 83 83 83 83 83 83 83 83 83 83 84 84 84 83 83 83 83 83
78 79 74 68 59 52 56 64 64 69 75 79 80 78 72 63 70 67 67 75 77 77 77 79 81 82 83 83 83 83 83 83 83 83 83 83 83 83 84 83 84 84 84 84 83 83 83 83 83
79 82 66 63 60 55 57 66 71 77 82 80 76 77 71 65 70 70 75 77 79 76 77 79 82 82 83 83 83 83 83 83 83 83 83 83 83 83 83 83 83 84 83 83 83 83 83 83 83
78 73 69 60 59 64 65 69 73 77 80 81 76 67 72 76 73 75 78 80 77 77 79 82 82 83 83 83 83 83 83 83 83 83 83 83 83 84 84 84 83 83 83 84 83 83 83 83 83
77 70 61 58 61 64 69 72 71 73 76 75 75 64 65 73 76 79 79 80 75 76 79 81 82 83 83 83 83 83 83 83 83 83 83 84 84 84 84 84 84 84 84 84 84 84 83 83 83
68 65 58 55 61 69 73 76 73 75 75 72 69 68 65 74 75 77 79 77 78 77 78 81 82 83 83 83 83 83 83 83 83 83 83 83 84 84 84 84 84 84 84 84 84 83 83 83 83
65 64 59 60 62 64 74 76 73 74 73 71 76 63 65 72 77 79 79 78 78 78 78 78 80 82 83 83 83 84 83 83 83 83 83 83 84 84 84 84 84 85 85 84 84 84 83 82 82
70 65 62 61 61 64 78 77 80 77 74 81 77 63 61 73 79 80 79 78 77 77 77 75 75 76 76 79 84 83 83 83 83 83 83 83 84 84 84 83 84 85 85 85 84 84 83 83 82
80 64 58 64 67 69 77 77 80 82 76 79 79 73 75 78 79 78 75 74 75 77 75 75 74 74 75 77 81 82 83 83 83 83 83 82 76 77 81 82 84 85 85 85 84 84 84 83 83
70 60 63 75 74 73 78 77 77 75 73 72 73 77 79 79 76 75 73 72 73 73 74 74 74 73 74 82 76 75 78 77 77 77 76 75 75 75 81 81 84 85 85 84 84 83 83 83 75
73 63 72 77 82 78 78 80 82 72 67 70 68 72 76 77 76 75 75 73 73 75 76 75 76 74 74 77 74 73 74 75 75 75 73 74 76 75 77 77 77 76 80 73 75 74 74 76 74
67 75 77 79 84 81 79 82 77 78 73 77 76 76 77 75 75 76 75 75 75 75 77 77 77 76 74 74 74 75 75 75 75 73 73 73 73 74 74 73 75 74 74 73 73 72 74 75 76
71 75 81 83 83 82 84 80 77 75 78 79 78 77 76 76 77 79 79 78 77 76 77 77 78 77 77 75 74 74 75 76 77 76 74 74 73 72 73 73 72 72 72 72 72 72 74 74 77
77 78 81 83 81 79 79 78 76 75 78 76 76 75 77 77 77 79 79 78 78 79 78 79 78 78 78 77 73 74 75 76 78 78 76 75 73 72 72 72 73 72 73 72 72 72 74 73 75
78 73 79 81 82 78 81 71 69 75 77 74 75 76 77 77 79 78 81 80 80 80 81 80 79 79 78 78 77 78 79 80 82 79 77 76 74 74 73 72 73 73 73 73 73 73 74 73 76
70 71 65 77 78 80 75 60 71 76 74 72 74 76 76 77 79 80 81 81 82 81 80 81 84 80 79 78 77 77 77 76 78 78 78 78 77 75 74 73 73 74 74 73 72 72 72 73 74
61 57 63 71 81 77 72 63 71 76 73 72 73 75 76 76 79 80 83 81 81 80 81 81 82 79 78 76 77 77 77 76 76 76 77 77 78 76 73 72 73 74 73 73 74 72 74 73 75
55 56 62 67 78 76 70 67 71 74 74 72 73 73 75 75 77 81 83 84 84 80 82 82 82 79 76 75 75 75 75 75 75 76 76 77 77 76 73 73 74 73 73 73 73 73 75 73 72
67 64 64 71 78 72 67 67 70 73 70 73 73 73 74 76 80 82 83 84 85 79 80 81 80 78 77 73 71 71 72 73 74 75 78 77 77 78 75 73 73 74 73 74 74 73 73 72 70
68 65 66 72 79 78 70 68 71 71 70 73 75 74 75 76 78 80 82 83 84 79 81 79 79 78 78 79 78 73 72 73 75 75 76 77 78 77 76 74 73 73 73 73 74 73 71 70 69
67 64 66 66 74 76 70 62 64 69 73 74 79 77 78 78 78 79 80 82 84 81 79 79 78 77 78 78 75 72 73 72 72 73 73 76 78 78 77 76 74 75 73 73 72 73 72 69 69
61 73 73 72 67 59 71 48 60 66 68 70 71 76 77 78 82 82 82 82 84 83 82 81 78 78 79 77 77 77 77 75 72 73 74 75 78 78 78 77 76 75 73 73 73 75 72 71 68
66 74 71 71 63 58 68 56 58 67 63 68 73 75 77 78 83 83 84 84 85 86 83 81 78 78 79 77 79 77 76 74 71 72 74 73 75 77 79 77 76 75 74 74 73 74 72 71 70
77 70 68 62 59 51 61 64 57 60 66 72 76 77 78 79 84 86 86 86 84 85 84 82 78 77 78 78 78 77 76 71 72 71 72 72 73 76 77 79 77 76 74 74 73 73 73 72 71
72 57 50 45 48 49 61 57 65 70 74 76 75 78 80 81 81 85 84 84 83 81 82 81 79 77 77 78 77 77 76 74 73 72 73 70 72 73 75 76 76 76 75 75 74 74 73 72 71
64 65 51 42 42 53 57 54 65 75 80 81 80 81 81 83 82 84 85 86 84 82 81 81 79 79 78 78 77 78 77 77 77 75 72 74 75 77 78 78 78 77 77 75 74 73 74 73 72
62 59 68 50 45 47 53 62 71 75 75 80 80 81 81 83 83 84 87 86 86 82 81 80 79 79 79 79 79 77 76 78 78 73 74 75 73 77 77 79 78 78 77 76 74 73 73 74 73
71 68 55 49 48 43 50 54 64 68 72 74 79 81 82 83 84 86 88 86 87 85 83 81 80 80 80 80 80 80 79 77 76 77 73 73 74 76 77 77 79 79 77 77 74 74 74 74 73
66 64 57 59 51 50 43 57 68 69 72 74 77 83 83 83 84 87 88 88 87 87 84 82 80 80 79 80 80 79 79 79 78 75 77 77 75 74 75 77 78 78 78 76 75 74 75 74 74
69 63 63 57 49 48 50 60 73 75 76 77 79 85 86 86 87 89 89 88 87 86 85 82 81 80 80 80 80 79 79 78 77 77 76 77 75 75 78 75 76 77 78 76 77 75 77 75 73

GFSSGP_sfc_temp_063.txt.gz
Temp
79 79 76 71 59 59 57 60 66 69 71 77 78 75 70 68 66 55 69 71 74 74 76 80 82 83 83 82 82 82 82 83 83 83 83 83 83 83 83 83 83 83 83 83 83 83 83 83 83
77 77 72 67 58 51 57 64 64 68 72 78 77 74 68 62 69 66 66 73 76 75 76 77 81 82 82 82 82 83 83 83 82 83 82 83 83 83 83 83 83 83 83 83 83 83 83 83 83
78 80 67 63 59 55 56 65 68 75 77 78 70 72 69 65 69 69 73 75 76 75 76 77 82 82 83 83 83 83 83 83 83 83 83 83 83 83 83 83 83 83 83 83 83 83 83 82 83
75 71 69 60 58 61 64 68 72 76 76 74 71 64 70 75 72 73 75 77 75 75 77 81 82 83 83 83 83 83 83 83 83 83 83 83 83 83 83 83 83 83 83 83 83 83 83 82 82
75 68 61 56 60 64 70 70 74 72 71 71 72 63 63 72 75 76 76 77 74 75 77 80 82 83 83 83 83 83 83 83 83 83 83 83 83 84 83 83 83 83 83 83 83 83 83 83 82
66 66 57 55 61 68 72 74 72 73 71 69 66 65 65 72 73 75 77 75 76 75 77 79 82 83 83 83 83 83 83 83 83 83 83 82 83 83 83 84 84 84 84 84 83 82 83 83 83
65 61 60 61 62 65 72 77 70 71 71 70 73 62 64 70 74 76 75 76 76 77 76 77 78 81 83 83 83 83 83 83 83 83 83 83 83 84 84 84 84 84 84 84 83 83 82 83 83
69 64 59 61 62 64 75 74 77 74 72 78 75 60 59 70 76 76 75 74 74 75 74 74 75 75 76 78 83 83 83 83 83 83 83 83 83 84 84 83 84 84 84 84 84 83 82 83 83
78 60 55 62 63 70 76 71 79 80 73 78 77 71 74 75 76 73 71 72 74 74 72 72 73 74 74 76 80 82 83 83 83 82 83 81 75 76 80 82 84 84 85 84 84 83 83 84 84
66 57 62 72 75 70 76 77 73 73 73 70 70 74 75 75 73 70 70 71 72 72 72 72 72 73 74 80 75 75 77 76 75 76 76 74 74 74 79 81 84 85 84 83 82 82 83 80 74
68 60 68 73 78 78 74 75 79 72 66 70 65 69 73 73 72 71 71 72 72 72 73 72 72 72 73 75 73 73 73 74 74 74 74 73 75 73 75 74 75 75 79 72 75 74 73 76 73
62 71 72 75 79 79 76 78 74 75 73 76 73 74 73 72 72 72 71 71 71 72 73 73 72 71 72 72 72 72 73 73 73 73 73 72 72 72 73 73 73 74 73 72 72 71 73 74 74
67 70 75 78 79 78 82 77 76 74 76 76 76 75 73 73 73 75 74 74 73 72 73 73 73 71 71 71 71 72 72 73 73 73 72 73 72 72 72 72 72 72 72 72 71 72 75 73 75
72 74 74 77 80 81 79 75 73 73 76 74 74 73 74 74 74 75 74 73 73 74 73 74 74 73 72 71 70 71 72 73 74 75 74 74 72 72 72 72 71 72 72 72 72 70 72 72 73
73 68 73 76 80 76 79 69 68 73 75 71 72 73 74 75 76 75 75 74 75 75 75 74 74 74 72 72 72 72 73 76 77 77 75 75 73 73 73 72 71 72 72 72 72 71 71 71 75
64 64 56 71 78 80 76 59 68 73 72 69 72 73 73 74 76 77 78 77 77 77 75 75 80 76 74 73 73 74 75 75 76 77 75 76 75 74 72 72 72 73 72 71 71 70 70 71 72
56 52 58 65 77 75 74 63 68 72 70 69 70 72 73 74 76 78 80 79 78 78 77 76 77 76 75 74 74 74 75 73 74 74 75 75 75 75 73 72 72 73 72 71 71 70 71 71 71
50 53 56 62 71 73 71 64 67 69 70 69 70 72 73 73 75 78 80 81 80 79 79 78 78 77 75 75 73 73 73 73 73 73 74 75 75 75 73 72 73 72 72 71 72 74 73 71 69
61 60 60 66 74 71 69 66 66 68 69 68 70 71 72 73 78 80 80 81 80 79 78 77 77 77 75 72 71 70 71 71 72 73 75 75 75 75 73 72 72 72 72 72 72 72 71 70 68
61 59 59 66 74 69 68 68 68 68 68 70 70 70 72 73 76 78 79 81 80 77 79 78 78 77 77 78 77 72 71 72 73 73 74 75 76 75 75 73 72 71 72 72 72 72 69 69 67
59 58 61 61 70 72 67 63 66 69 70 72 73 73 74 74 74 76 77 79 81 76 77 77 78 77 78 79 72 70 71 71 71 71 72 74 76 76 76 74 73 72 72 72 71 72 70 68 67
53 66 68 66 64 59 66 48 58 67 66 68 71 73 73 75 77 77 78 78 81 80 78 78 78 78 78 75 76 73 77 74 72 71 72 73 75 76 77 75 74 73 72 72 71 73 70 69 68
61 69 66 65 61 58 64 52 57 64 63 65 70 74 75 76 77 77 78 80 82 83 79 79 78 78 78 75 77 75 72 73 69 70 72 71 73 75 77 76 74 73 72 72 72 72 71 70 68
71 65 62 58 62 53 58 58 55 57 63 68 72 74 76 77 79 80 81 82 81 83 82 79 77 77 77 76 76 75 74 69 68 68 70 69 71 73 75 77 75 74 73 72 72 72 72 71 70
67 53 45 42 46 48 56 54 64 66 72 73 73 75 77 79 79 80 80 80 81 81 81 79 76 75 76 75 76 75 75 72 72 70 70 69 69 70 73 74 74 73 73 73 73 72 72 71 70
61 59 45 37 39 50 55 49 61 73 76 79 79 79 80 79 80 80 82 82 82 82 82 79 76 76 76 75 76 76 75 75 75 73 71 71 72 75 74 76 75 75 74 74 73 72 72 72 71
59 55 62 47 42 44 50 55 67 72 71 75 76 78 79 79 81 81 84 84 84 82 82 79 77 77 77 76 77 76 76 75 75 72 73 73 72 75 75 75 76 75 75 74 73 73 72 72 71
65 63 52 46 45 40 45 50 59 64 67 70 73 77 78 81 81 82 84 84 83 83 82 81 80 78 78 78 78 77 77 76 77 73 72 71 72 73 75 73 75 74 75 75 74 73 72 72 72
55 59 52 55 49 48 41 52 61 66 70 70 73 77 79 80 81 82 83 86 85 84 82 81 80 79 79 78 78 78 77 76 77 75 74 74 73 73 74 73 73 74 75 75 74 73 74 73 73
54 52 59 51 46 45 46 56 71 71 72 72 73 79 82 83 83 85 84 86 85 84 82 81 80 79 80 79 79 78 77 76 75 75 75 75 74 73 73 72 73 74 76 75 75 75 76 74 73

GFSSGP_sfc_temp_069.txt.gz
Temp
82 83 82 72 62 62 61 61 68 68 71 79 80 76 73 72 70 64 79 81 84 84 86 86 82 83 83 83 83 83 83 83 83 83 83 83 83 83 83 83 83 83 83 84 83 83 83 83 84
84 79 73 67 61 60 63 66 64 69 77 80 77 77 74 67 73 71 74 83 85 86 88 87 82 82 83 83 83 83 83 83 83 83 83 83 83 83 83 83 83 83 83 84 83 83 83 83 83
83 80 67 62 62 62 62 68 69 70 79 78 70 75 73 67 73 76 82 84 86 85 87 85 82 83 83 83 83 83 83 82 82 83 83 83 83 83 83 84 83 83 83 83 83 83 83 83 83
79 71 67 61 63 67 67 72 75 73 77 78 76 68 73 76 76 80 83 85 85 86 87 84 83 83 83 83 83 83 83 83 83 83 82 83 83 84 84 84 83 83 83 83 83 83 83 83 83
80 70 65 64 62 68 73 74 76 74 74 74 75 66 65 72 80 81 83 85 85 87 87 87 83 83 83 83 83 83 83 83 83 83 84 83 83 83 84 84 84 83 82 83 83 83 83 83 83
69 72 63 63 62 70 73 73 77 76 73 73 72 70 67 76 77 80 85 85 87 87 88 87 83 83 83 84 83 83 83 83 83 83 82 83 83 83 84 84 84 84 84 83 83 83 83 83 83
65 66 65 65 66 69 73 77 75 76 73 74 77 68 67 72 80 82 84 86 87 88 87 86 87 85 83 83 83 83 83 83 83 83 83 82 83 83 83 84 84 84 84 84 84 83 83 83 83
74 72 66 67 64 69 74 77 78 78 73 81 80 67 65 73 79 83 84 85 85 86 85 84 85 87 86 86 83 83 83 83 82 83 83 83 83 84 83 82 83 84 83 84 84 84 83 83 83
79 64 66 69 69 72 77 75 80 82 75 77 78 76 80 78 80 80 78 79 81 82 85 87 86 86 85 86 86 83 83 83 83 84 82 84 88 87 87 83 83 84 84 84 84 84 84 84 84
72 64 68 76 78 75 78 78 78 76 75 73 74 79 78 79 78 75 76 75 79 80 83 86 86 86 85 87 86 85 87 88 86 85 85 87 86 86 88 85 84 83 84 84 84 84 83 85 91
73 65 73 77 81 81 80 78 81 77 72 75 72 73 76 78 77 74 77 78 79 81 84 85 83 84 85 85 85 86 87 87 86 84 84 84 86 87 89 88 86 85 83 90 89 87 91 87 90
68 73 75 77 81 80 78 82 78 79 80 83 79 77 77 77 77 74 77 78 78 78 82 83 83 82 83 85 85 86 86 86 87 86 83 84 87 85 85 83 87 83 87 85 87 88 86 87 87
70 73 77 79 81 81 82 80 80 79 81 82 79 77 77 78 78 77 81 81 80 76 81 82 82 81 82 81 84 85 85 86 87 86 85 86 86 86 87 82 87 86 86 86 85 86 88 88 88
76 76 77 79 81 82 79 80 80 76 80 77 76 76 78 78 79 77 80 80 80 79 81 83 82 82 82 82 81 83 84 86 86 87 87 84 87 85 87 83 86 85 87 86 86 86 86 88 89
76 70 75 78 81 80 83 74 75 76 78 74 75 76 77 78 79 76 80 80 80 81 82 82 82 83 81 81 82 83 85 87 86 87 85 85 85 85 84 83 82 86 85 84 85 84 85 89 90
72 72 67 77 80 82 81 71 71 76 76 73 74 74 76 77 79 79 81 81 82 82 80 82 85 83 81 81 82 84 85 86 87 87 88 85 85 84 84 87 83 85 85 87 85 83 88 89 89
68 67 66 71 81 81 78 72 73 76 75 73 73 74 76 77 79 81 82 82 82 82 81 81 82 83 82 81 82 83 83 84 87 87 88 86 85 84 86 87 85 82 85 86 87 87 87 87 89
64 65 67 69 77 79 76 74 72 74 74 73 74 74 75 77 78 81 82 83 83 83 81 81 82 82 80 82 81 83 84 85 86 86 87 86 86 85 85 87 83 83 82 85 87 85 86 86 86
69 66 69 72 79 77 75 75 73 73 74 73 74 74 76 77 81 82 83 83 83 82 81 80 79 80 80 81 81 82 83 84 85 85 85 85 85 85 83 86 84 86 85 85 84 83 82 85 84
67 65 67 73 76 76 76 75 77 73 73 74 73 73 76 78 79 80 82 83 82 81 80 79 79 79 80 82 82 84 84 85 87 87 85 86 86 86 85 83 84 83 84 81 83 84 86 86 85
65 65 65 68 74 78 73 70 71 73 75 76 78 78 77 78 78 79 80 81 83 81 80 80 79 79 80 82 82 81 82 83 84 85 85 86 86 87 85 84 83 83 84 82 83 84 83 85 84
61 70 68 67 66 64 75 62 69 72 71 73 76 77 79 79 80 82 82 82 83 82 83 81 80 80 81 81 81 80 82 82 85 85 87 86 85 86 86 85 84 83 86 82 82 84 85 84 84
65 71 68 68 65 66 67 64 73 73 70 72 76 78 80 82 82 82 82 83 84 85 84 83 80 80 81 80 81 82 82 85 85 85 83 83 84 85 86 85 85 82 84 83 83 82 81 85 86
73 68 68 69 67 56 65 65 68 71 72 76 79 79 80 82 83 83 85 85 84 86 85 84 80 79 80 80 80 80 81 82 82 82 84 86 87 87 85 86 85 85 83 83 84 83 82 82 84
69 65 55 52 53 53 70 63 67 78 80 83 80 80 81 83 83 83 82 83 83 84 83 84 80 78 80 80 81 81 81 81 80 82 84 85 86 86 85 84 84 86 85 84 84 83 83 83 83
65 66 58 47 52 57 68 59 68 81 85 84 86 86 85 83 83 83 83 83 83 84 83 83 80 79 80 80 80 80 81 84 84 83 86 86 87 87 86 85 86 85 85 85 84 85 86 85 84
65 60 71 61 60 58 65 68 76 79 82 85 85 85 84 84 84 84 85 85 85 84 83 82 81 79 80 81 80 80 81 81 83 83 83 86 85 87 85 86 85 85 85 85 85 86 84 84 84
66 72 59 61 49 48 59 62 66 73 77 82 82 84 85 87 85 86 86 86 86 86 85 84 83 80 81 82 82 82 82 81 82 82 81 83 84 83 85 84 85 85 85 85 84 85 85 83 85
60 62 64 65 62 54 53 60 76 77 80 82 86 86 87 87 86 87 86 87 87 87 86 85 83 82 82 82 82 82 82 82 82 83 82 83 83 83 83 84 84 85 85 85 83 83 85 83 83
56 58 63 56 55 60 61 62 80 81 83 83 84 87 88 88 89 87 88 87 86 86 87 86 86 84 84 83 82 82 82 82 82 82 83 83 82 83 83 83 83 84 85 85 83 83 86 83 83

GFSSGP_sfc_temp_072.txt.gz
Temp
85 90 89 79 64 69 63 65 71 75 77 86 85 81 80 81 75 66 88 91 92 91 90 88 83 83 83 83 83 83 83 83 83 83 83 83 83 83 83 83 83 83 84 84 83 84 84 84 84
91 87 84 68 65 62 70 67 68 74 82 86 86 84 80 76 83 81 84 92 93 93 94 91 82 83 83 83 83 84 84 83 83 83 84 84 83 83 84 84 83 83 84 84 83 84 83 84 84
91 86 70 69 68 68 70 74 77 81 85 77 80 84 82 76 83 84 92 93 94 91 94 88 82 83 83 83 84 83 83 83 83 83 83 83 84 84 84 84 84 84 84 84 84 84 83 83 83
87 79 78 64 67 74 73 76 77 81 83 86 84 77 82 84 86 90 93 95 94 95 95 85 83 83 84 83 83 83 83 83 83 83 83 84 84 84 84 84 84 84 84 84 83 83 83 83 83
88 76 67 70 70 74 81 83 83 78 82 83 85 75 72 82 89 92 93 95 95 96 94 91 83 83 83 83 83 83 84 84 84 83 83 83 83 84 84 84 84 84 84 84 84 84 84 84 84
74 79 69 65 64 78 82 81 86 84 83 84 81 78 73 85 87 91 95 95 98 96 96 92 84 84 83 84 83 83 83 83 84 83 84 84 84 84 84 84 84 84 84 84 84 84 84 84 84
69 73 71 69 68 75 80 85 85 83 83 82 88 77 74 80 88 93 95 97 98 97 94 92 92 87 84 84 83 83 83 83 83 83 83 83 84 83 84 84 84 85 84 84 84 84 84 84 84
81 77 74 73 71 75 83 84 87 87 83 90 89 76 71 81 86 94 95 95 97 96 94 91 91 92 91 90 84 84 83 83 84 84 84 84 84 84 84 83 84 84 85 85 84 84 84 84 84
88 73 74 77 73 80 82 77 83 91 84 85 87 85 87 81 86 91 91 92 92 93 94 95 94 92 92 91 88 83 84 83 84 84 82 84 94 93 91 85 84 85 85 85 84 84 84 84 84
82 75 76 86 87 84 85 86 86 84 83 81 83 88 86 83 82 87 88 88 90 90 92 95 95 94 93 93 90 91 91 94 93 92 90 95 93 92 93 88 85 85 85 85 84 84 85 84 94
83 72 82 85 88 84 88 86 90 85 81 84 81 82 84 83 82 87 88 89 89 90 93 95 93 92 93 92 93 93 94 93 91 89 90 91 93 93 95 93 93 92 88 95 91 90 96 93 92
78 83 83 87 89 85 83 91 87 87 88 92 88 86 85 84 86 88 88 90 89 89 91 92 91 89 91 92 93 94 94 94 94 93 90 90 93 92 93 96 92 91 96 91 95 95 92 93 94
80 83 86 88 88 87 88 86 86 86 90 92 89 86 85 87 87 90 91 92 90 88 90 90 90 88 89 88 92 94 93 94 95 93 92 95 94 89 93 91 94 95 94 93 92 93 94 93 94
85 85 86 87 88 88 84 87 87 87 90 88 86 85 87 88 87 88 89 88 88 89 90 91 90 88 89 88 87 90 93 93 94 95 93 90 94 87 91 91 94 93 95 95 93 91 93 95 96
87 80 84 86 88 86 90 83 83 87 88 85 85 86 87 88 88 87 89 88 89 89 91 90 90 90 87 88 88 90 93 95 94 95 91 91 91 88 88 92 93 94 93 90 91 90 93 95 96
80 82 77 87 87 88 88 78 85 87 86 83 84 85 85 87 88 88 90 90 91 90 88 90 93 91 88 88 89 91 93 94 95 95 95 91 90 89 88 92 92 89 92 95 93 92 93 94 91
79 74 76 81 89 88 86 80 83 87 86 83 83 84 85 86 88 88 90 91 91 90 88 88 90 91 89 87 89 90 90 92 95 95 96 91 91 92 91 90 91 90 92 94 93 93 92 91 95
74 74 81 78 84 86 83 81 83 85 86 84 84 83 84 85 86 88 90 91 92 91 89 88 90 88 87 89 87 91 92 93 94 95 96 91 93 91 91 89 90 91 93 93 94 91 93 94 95
78 78 78 82 87 83 83 83 82 82 85 84 85 83 85 86 89 90 90 91 91 90 88 87 86 86 87 88 88 89 89 91 92 94 92 91 91 91 90 92 90 91 89 91 89 90 88 92 93
76 74 76 83 86 83 83 82 87 84 83 86 85 84 85 86 88 88 88 90 90 89 88 86 85 85 85 89 89 91 91 93 94 95 92 93 92 91 91 90 90 87 89 88 88 87 92 92 93
73 73 76 77 82 84 82 79 82 87 85 87 88 88 88 87 87 87 87 88 90 88 87 86 85 84 85 88 89 88 90 91 90 91 92 93 92 92 90 90 91 88 85 90 89 89 88 91 91
70 79 77 76 74 70 82 69 79 84 82 84 86 87 88 89 89 90 89 89 90 90 90 88 86 84 85 86 88 85 88 88 92 93 94 94 92 92 92 91 90 88 91 87 89 91 91 89 89
72 81 77 75 73 75 76 72 80 85 80 82 86 88 90 90 91 91 90 90 91 91 91 89 86 85 86 85 86 87 86 92 93 93 91 89 90 91 93 91 89 88 92 89 88 87 86 92 92
79 75 75 76 74 64 73 73 76 77 82 85 88 89 90 92 92 92 93 93 92 93 92 91 86 84 85 85 84 85 86 88 91 90 91 92 93 93 91 92 90 90 91 89 90 87 87 88 90
75 71 63 60 61 61 77 72 76 86 89 90 90 90 91 93 93 92 91 91 91 90 90 90 87 83 84 85 85 85 85 86 86 87 90 91 93 94 92 90 89 91 89 90 90 88 87 88 89
72 73 65 54 60 66 76 68 75 88 90 94 95 96 95 93 93 93 92 92 91 90 90 89 87 84 85 85 85 85 86 89 90 89 93 93 94 95 93 91 91 91 91 91 90 89 91 89 89
72 66 79 71 73 67 74 76 84 89 89 90 91 93 94 95 95 94 94 93 92 90 90 89 88 84 85 86 85 85 86 86 90 89 90 92 92 95 92 91 90 91 91 90 90 91 89 89 88
73 80 66 69 56 56 68 71 72 79 82 88 90 93 95 97 97 96 95 94 94 93 92 90 89 85 86 88 87 88 87 87 88 89 87 89 91 90 92 90 90 90 90 90 88 91 90 88 91
69 67 71 74 69 61 60 69 85 83 86 86 91 94 97 98 99 98 97 96 95 95 94 92 90 87 87 88 88 88 88 89 88 89 88 88 88 89 88 89 89 90 90 90 88 88 90 89 88
68 69 72 63 61 68 68 71 88 88 91 91 92 95 98 99 100 99 99 96 95 94 94 93 92 90 89 90 88 87 88 89 89 88 89 89 87 88 88 89 89 89 90 90 88 88 91 89 88

GFSSGP_sfc_temp_078.txt.gz
Temp
84 88 88 76 63 67 63 66 76 77 80 88 88 83 72 73 75 65 86 91 91 89 86 85 82 83 83 83 83 83 82 83 83 83 83 84 83 83 83 83 84 84 84 84 84 84 84 84 83
91 90 82 73 62 58 59 76 74 81 86 91 89 86 82 76 84 82 84 90 91 90 88 86 82 83 83 83 83 84 84 84 83 83 83 84 83 84 83 84 84 84 84 84 83 84 84 83 83
84 89 69 68 65 56 63 79 80 86 91 89 83 87 83 77 83 84 90 92 93 90 89 83 83 83 83 84 84 83 84 83 83 84 84 84 84 84 84 84 84 83 84 84 84 84 84 84 83
83 79 75 65 66 68 74 81 86 84 86 89 86 79 85 89 86 89 93 93 93 91 88 83 83 84 84 83 83 84 83 84 84 84 84 84 84 84 84 84 84 84 84 84 84 83 84 84 83
88 75 66 68 68 77 82 87 88 83 84 85 84 77 79 86 92 91 91 93 93 91 88 86 83 83 83 84 84 84 84 84 84 84 84 84 84 84 84 84 84 84 84 84 84 84 84 84 84
76 76 65 66 72 82 85 88 86 85 85 84 83 78 79 88 88 92 94 94 94 91 90 86 84 83 83 84 84 84 84 83 84 84 84 84 84 84 84 84 84 84 84 84 84 84 84 84 83
77 70 66 67 73 78 83 91 86 84 84 82 87 75 82 85 88 93 96 97 95 94 89 85 86 84 84 84 84 84 84 84 84 84 84 84 84 84 84 84 84 84 85 85 84 84 84 84 83
85 74 63 70 70 63 85 88 86 75 81 92 92 77 77 84 89 95 97 95 95 93 90 87 85 86 84 84 83 83 83 84 84 84 84 84 84 84 85 84 84 85 85 85 85 84 84 84 83
93 75 64 68 67 64 83 83 81 81 79 84 88 87 89 91 94 92 91 94 92 92 91 91 89 87 86 86 84 84 84 84 84 84 84 83 84 85 86 85 85 85 85 85 84 84 84 84 84
84 76 70 70 71 64 72 84 80 78 80 86 89 91 91 91 92 89 92 90 91 90 92 93 92 89 88 90 84 85 86 86 85 85 81 75 78 85 89 85 85 85 85 85 84 79 80 81 76
86 77 74 67 67 75 77 85 88 78 78 87 82 85 88 89 90 91 93 92 90 91 94 94 88 88 90 86 86 87 86 87 87 85 82 82 83 82 83 84 85 84 84 85 84 79 77 80 75
83 87 82 74 71 72 77 82 76 83 80 85 89 90 90 87 89 92 92 92 90 91 93 88 90 82 85 88 89 86 86 87 89 88 88 77 84 74 74 76 84 81 81 79 74 75 78 80 78
86 87 90 81 78 86 82 72 72 79 88 87 91 90 89 89 90 94 95 94 91 91 92 89 89 78 77 88 85 87 90 90 91 89 79 74 78 80 80 81 76 76 76 74 75 79 80 78 84
92 91 91 86 80 92 79 75 75 73 89 89 87 86 90 91 92 93 93 91 90 91 91 91 90 88 89 86 89 86 88 85 88 89 84 79 79 82 86 82 77 74 77 77 75 76 78 81 82
92 86 89 91 92 90 93 82 78 79 91 87 86 86 89 90 91 92 93 91 91 92 92 89 89 90 87 85 89 90 83 88 86 88 85 78 79 83 82 80 82 80 76 82 81 77 76 78 82
84 85 77 89 91 93 91 77 84 90 83 86 86 86 87 89 92 94 95 93 92 93 89 89 93 90 87 86 88 88 84 89 85 85 85 80 81 84 84 84 84 83 80 81 83 79 76 80 78
82 73 77 82 94 91 89 79 77 71 79 86 86 87 87 86 90 94 95 94 92 91 88 88 89 88 86 85 86 88 84 86 88 83 75 86 88 89 84 82 85 86 82 82 83 78 75 81 81
73 76 80 80 89 90 86 76 73 69 71 73 87 88 85 85 88 93 95 95 93 92 89 88 89 85 85 85 86 87 88 84 79 83 84 86 86 89 86 84 87 83 82 81 81 80 81 78 80
81 81 81 86 93 89 85 74 73 72 72 67 78 87 87 86 91 94 95 95 93 91 87 87 86 83 84 84 84 84 84 86 84 85 86 88 87 87 86 83 87 86 79 79 83 84 83 81 79
81 78 80 87 92 90 86 74 72 70 72 67 72 86 88 88 87 91 92 93 92 88 86 85 84 82 83 85 84 86 86 88 88 89 88 88 90 87 84 81 85 86 82 82 83 77 79 81 81
79 77 79 80 88 92 87 70 66 70 77 78 81 91 91 90 86 89 90 91 92 88 86 84 84 82 84 85 84 85 86 85 86 84 87 89 90 89 82 83 83 86 84 82 84 83 79 78 81
73 84 82 81 79 73 88 70 67 68 66 79 81 77 91 92 90 90 91 91 91 89 89 85 84 83 83 84 83 83 83 83 85 74 87 88 89 88 89 85 83 85 84 80 81 84 76 77 77
77 86 82 81 77 77 79 74 81 76 74 74 70 76 91 93 93 91 92 91 93 91 90 87 84 83 83 82 84 84 82 86 88 87 83 84 86 89 88 87 87 85 85 83 82 84 82 79 80
86 81 80 80 77 66 74 76 76 72 73 72 81 83 88 94 95 95 94 93 93 93 91 88 83 81 82 82 82 82 81 84 85 85 84 86 86 87 88 88 85 85 82 83 84 85 84 83 81
81 75 62 61 62 62 77 73 77 87 83 80 79 87 93 93 94 94 93 92 91 90 90 88 82 80 81 81 82 83 82 82 83 84 86 84 86 86 85 86 84 85 84 85 84 83 83 84 82
76 74 63 53 59 65 77 69 77 91 95 92 91 95 95 95 92 94 93 93 91 91 89 88 82 80 81 82 80 81 83 85 85 86 87 87 88 89 85 85 86 86 86 85 82 83 84 84 83
75 70 80 70 73 67 73 78 86 92 92 91 83 82 86 78 95 95 96 95 93 91 89 87 83 81 81 82 81 80 82 83 84 85 86 87 86 89 86 86 86 86 85 84 84 83 83 84 82
77 82 68 71 57 56 68 73 75 82 87 91 88 75 73 72 82 98 97 96 95 94 92 90 86 82 82 82 83 83 81 83 83 83 84 85 88 89 86 86 85 86 86 86 84 83 84 82 82
73 71 73 74 71 60 60 70 89 84 88 90 88 77 70 72 75 89 98 97 96 95 94 92 89 84 83 84 83 82 82 83 83 85 85 85 85 87 87 87 86 85 85 85 84 83 84 82 82
77 71 73 63 60 69 69 72 90 91 94 95 94 88 87 80 70 71 92 98 97 95 95 93 92 90 86 85 83 83 83 82 83 82 86 86 85 87 87 85 86 85 85 84 84 83 84 84 82

GFSSGP_sfc_temp_081.txt.gz
Temp
80 82 80 74 62 60 58 64 71 73 76 83 83 77 72 74 73 59 77 81 83 80 80 82 82 83 83 83 83 83 83 83 83 83 83 83 83 83 83 83 83 84 84 84 84 84 84 83 84
82 83 78 68 59 55 56 68 72 77 82 84 82 81 76 69 77 75 77 83 83 80 80 80 81 82 83 83 83 83 83 83 83 83 83 83 83 83 83 84 84 84 84 83 84 84 83 83 83
84 86 68 63 60 56 60 74 77 83 86 83 80 82 77 70 79 79 84 85 83 81 81 80 82 83 83 83 83 83 83 83 83 82 83 84 83 84 84 84 84 84 83 84 84 84 84 83 83
80 75 70 60 60 64 65 78 81 82 82 82 80 71 79 84 80 84 87 85 83 80 81 82 83 83 83 83 83 83 83 83 83 83 84 84 84 84 84 84 84 84 84 84 84 84 83 83 82
79 70 62 60 65 72 71 84 83 78 79 78 77 71 74 82 86 87 87 87 81 79 80 81 83 83 83 83 83 83 83 84 83 84 84 84 84 84 84 84 84 84 84 84 84 84 84 83 83
68 68 59 57 64 73 79 81 84 81 80 77 75 73 73 84 84 86 88 85 83 80 80 82 83 83 83 83 83 83 84 84 83 84 84 84 84 84 84 84 84 84 84 84 84 84 83 83 83
69 64 61 61 65 70 77 81 82 80 78 77 81 70 75 80 84 87 88 85 84 82 80 79 80 82 83 83 84 83 83 83 83 84 84 83 84 84 84 84 84 85 85 84 84 84 83 83 83
78 71 64 64 59 58 68 68 79 79 77 86 84 70 69 80 86 87 88 85 83 81 80 78 77 77 77 78 84 84 83 84 83 83 84 84 84 84 84 83 84 85 85 85 84 84 84 83 83
86 66 62 61 65 62 70 66 78 78 76 82 85 79 81 86 87 87 85 82 80 81 80 80 79 77 78 78 82 82 83 83 84 83 84 82 75 79 81 83 84 85 85 84 84 84 84 83 81
77 68 69 70 69 62 69 68 73 76 70 77 80 83 84 85 84 84 83 79 79 79 80 81 80 79 80 85 77 77 80 78 77 77 75 71 74 75 81 82 84 85 85 85 83 82 82 79 74
79 69 71 71 72 72 70 71 73 77 68 78 76 78 82 82 83 84 83 82 80 82 83 82 83 82 80 80 77 78 77 77 76 76 74 74 76 75 75 74 77 77 82 80 79 77 73 75 73
73 81 78 72 74 71 68 72 71 72 74 84 83 83 83 82 83 83 83 82 82 83 85 83 83 82 79 79 79 80 79 79 78 79 76 74 73 70 72 72 73 75 73 73 69 71 75 76 76
78 81 86 75 74 73 71 71 69 67 75 82 85 82 82 83 85 86 85 85 84 83 84 81 80 78 77 78 79 80 80 81 79 77 75 73 72 71 72 73 73 72 72 72 72 72 74 76 77
83 84 87 75 74 78 72 71 73 71 77 83 82 81 84 84 85 87 84 83 83 84 82 80 81 80 79 81 83 83 82 84 84 76 77 75 73 73 73 74 72 72 70 72 72 71 74 74 78
83 76 81 81 82 77 72 69 69 74 76 81 81 82 84 84 85 85 85 83 84 86 84 81 80 80 79 80 83 82 84 84 80 78 76 76 75 76 74 72 71 72 73 73 73 72 74 71 76
73 72 63 78 83 85 75 63 72 73 73 75 81 84 84 84 87 87 86 85 85 85 82 84 88 80 79 79 79 80 82 80 80 79 75 76 77 77 78 76 75 76 76 75 72 74 72 75 75
66 57 65 73 84 84 79 62 66 71 72 76 79 82 83 84 85 87 87 87 85 82 82 82 81 79 79 78 78 80 80 79 78 77 75 75 79 82 79 79 77 78 77 77 75 73 73 74 75
58 60 64 68 79 82 77 67 68 70 72 68 75 81 82 81 85 88 87 87 85 83 83 79 82 79 78 77 77 78 78 78 77 77 77 79 80 82 78 78 78 76 76 77 76 76 75 74 78
71 69 66 73 82 78 76 66 68 71 69 68 69 72 80 82 83 89 89 87 84 83 82 79 78 79 79 75 75 75 76 78 76 78 80 79 80 82 78 77 78 75 76 75 77 76 75 75 76
70 67 67 73 81 76 68 66 68 70 69 72 71 73 71 82 83 83 87 86 83 82 80 78 79 77 78 76 75 76 76 77 78 81 80 81 81 81 79 76 77 77 75 76 75 74 72 73 74
69 64 67 67 77 76 67 62 62 69 71 71 72 72 71 75 82 84 86 85 83 81 79 78 78 78 77 78 75 76 77 77 76 78 78 80 81 81 79 78 77 78 76 75 76 76 73 71 73
58 75 76 75 67 56 71 51 61 66 65 66 70 69 68 69 81 85 84 84 83 81 82 78 78 78 77 79 76 75 74 73 75 76 78 79 81 80 81 79 78 78 77 75 75 79 74 72 70
68 77 73 71 65 58 67 55 58 66 64 66 66 66 68 71 81 84 86 85 85 83 83 80 78 79 80 77 78 75 74 76 76 75 77 77 79 80 81 78 78 78 77 76 76 76 75 74 73
79 72 69 65 58 48 60 56 55 60 67 71 72 71 69 79 85 85 87 87 85 85 83 81 78 78 78 76 75 75 75 75 79 75 78 78 78 78 80 81 78 78 77 76 77 77 77 75 75
69 56 46 44 46 47 59 58 63 69 74 75 75 78 83 81 85 84 85 86 85 83 82 81 78 76 78 77 76 75 75 75 75 75 79 78 76 76 78 79 78 77 77 77 77 76 76 76 75
63 58 48 40 42 51 61 52 64 77 81 81 80 82 81 82 86 85 85 87 86 84 82 81 79 77 78 77 76 75 75 77 75 77 77 80 82 81 79 78 79 78 78 78 77 76 76 76 76
63 57 66 53 57 53 58 63 73 79 76 80 80 79 80 83 87 87 87 87 87 85 83 81 78 78 78 78 77 75 74 76 76 77 78 78 80 81 80 80 79 78 78 78 76 75 75 76 76
62 68 53 54 41 42 53 57 58 68 76 78 79 77 74 76 77 78 74 87 88 88 86 84 79 78 78 79 79 78 77 75 76 77 77 78 79 80 81 81 79 78 78 78 76 76 76 76 76
63 61 58 58 55 49 44 53 69 73 75 76 78 78 76 71 75 78 73 71 71 89 86 84 79 79 78 79 79 79 78 76 75 76 77 77 78 78 80 79 78 78 78 78 76 76 76 76 75
65 63 56 50 48 52 50 57 70 69 71 76 78 80 78 75 72 70 71 70 69 70 88 85 81 80 80 80 80 79 79 78 79 75 75 77 78 77 79 81 80 79 78 77 77 76 79 77 76

GFSSGP_sfc_temp_084.txt.gz
Temp
81 81 78 73 62 60 57 61 71 71 74 79 79 76 73 72 69 58 73 76 78 77 79 81 82 83 83 83 83 83 83 83 83 83 83 83 82 83 83 83 83 83 83 83 83 84 83 83 84
79 80 75 68 59 54 56 67 68 73 79 80 80 78 75 67 74 69 71 78 80 78 78 80 82 83 83 82 83 83 83 83 83 83 83 83 83 83 83 83 83 83 84 84 84 84 83 83 83
80 83 67 63 59 54 58 68 74 78 81 79 76 80 73 67 73 74 78 79 79 77 78 80 82 83 83 83 83 83 83 83 83 83 83 83 83 84 83 83 83 83 83 83 83 83 83 83 83
79 72 68 60 57 64 63 76 79 77 75 77 75 68 76 80 77 79 80 80 78 78 79 82 83 83 83 83 83 83 83 83 83 83 83 83 83 84 83 84 84 84 84 84 83 83 83 83 83
75 69 61 59 59 69 69 73 79 75 73 75 76 69 71 78 82 80 80 80 76 77 79 80 82 83 83 83 83 83 83 83 83 84 83 84 84 84 84 84 84 84 84 84 84 84 83 83 84
67 67 59 57 61 65 69 71 80 74 75 75 72 70 69 80 79 80 80 78 78 77 78 80 82 83 83 83 83 83 83 83 83 84 83 84 83 84 84 84 84 84 84 84 84 83 83 82 83
66 62 61 62 60 61 64 69 72 73 74 73 78 67 72 77 81 81 79 79 79 78 77 77 79 82 83 83 83 84 83 83 83 83 83 83 84 84 84 84 84 84 84 84 84 83 83 83 83
72 66 62 62 59 60 66 67 77 75 75 82 81 66 67 77 82 80 79 78 77 77 77 75 75 76 76 78 83 83 83 83 83 83 83 84 84 84 84 83 84 84 84 84 84 84 83 82 83
81 63 59 66 65 62 66 64 70 79 76 81 79 77 79 82 82 78 76 75 75 76 75 74 74 74 75 77 82 82 83 83 83 82 83 80 75 77 80 82 84 84 84 84 84 84 83 82 82
70 60 66 71 70 66 67 65 69 70 70 70 74 80 82 82 80 76 74 72 73 73 74 75 74 74 75 82 76 76 79 77 76 75 74 71 73 75 80 82 84 84 84 84 82 82 83 77 73
72 65 70 72 72 73 70 69 73 71 67 72 71 76 80 80 79 77 75 75 74 75 76 76 76 76 75 77 74 74 75 75 75 75 70 73 73 72 74 74 75 75 80 76 75 75 72 75 73
67 77 74 74 76 74 71 71 71 73 71 76 79 79 80 79 80 77 76 76 75 76 78 78 77 76 74 75 75 75 76 75 75 74 73 73 71 71 71 73 74 73 72 71 70 71 73 74 75
71 75 80 76 77 76 73 70 70 70 75 79 80 80 79 79 81 80 80 79 78 77 78 78 78 76 74 75 74 75 74 76 76 73 73 72 72 71 71 72 72 72 72 71 71 71 73 73 75
77 77 79 76 75 74 72 71 68 74 73 75 78 78 79 80 80 81 80 78 78 80 79 80 78 76 76 76 76 76 76 76 76 73 72 74 72 71 69 71 71 71 70 71 72 71 71 72 75
78 71 75 72 75 71 76 66 65 73 73 74 77 78 81 81 83 80 81 78 81 81 79 79 78 77 78 77 79 76 77 79 76 75 74 74 73 72 73 71 71 70 69 71 71 71 72 71 74
68 64 59 67 75 74 75 61 69 71 74 73 75 79 80 80 81 82 83 80 81 79 78 80 85 79 77 77 80 77 79 78 76 75 74 74 74 74 72 71 71 71 70 71 71 71 71 72 73
59 53 58 69 79 70 69 60 66 72 76 73 73 77 80 80 79 83 84 81 81 80 79 79 78 77 78 76 77 78 77 78 75 73 73 74 77 79 74 77 71 73 71 71 71 71 70 71 72
53 52 57 62 72 69 67 64 67 69 72 73 75 76 79 80 79 83 84 82 83 81 80 78 78 75 76 75 75 75 75 75 75 74 75 76 77 79 77 74 73 74 74 73 72 74 75 75 73
63 60 60 68 75 71 68 63 66 67 69 69 70 74 75 80 80 84 84 82 82 81 79 78 75 73 74 72 72 72 73 73 73 75 77 77 78 79 75 74 75 73 72 73 73 73 73 73 72
64 60 60 67 73 67 63 60 66 67 68 69 68 71 76 80 80 82 84 82 80 80 78 77 77 74 75 74 73 74 74 76 75 76 76 78 79 78 76 75 73 74 73 74 74 73 71 71 71
61 57 62 62 70 67 64 60 61 66 69 70 71 75 77 79 79 81 83 81 80 79 76 77 77 76 75 74 74 73 74 74 73 74 76 77 78 78 76 76 75 75 74 73 73 73 72 70 71
53 68 70 68 61 53 64 47 57 63 63 66 71 73 73 73 78 81 82 81 80 80 79 78 77 77 76 74 73 72 71 71 73 73 75 76 78 78 78 77 76 76 75 73 73 75 71 71 70
63 72 67 65 57 54 57 52 52 63 60 62 68 72 73 77 77 78 82 82 82 82 80 78 78 76 78 76 76 72 71 72 73 75 75 75 75 77 79 77 76 75 74 73 74 74 72 72 71
75 66 61 56 52 46 53 53 50 58 64 68 71 71 74 76 78 79 83 84 81 82 81 78 77 76 76 76 73 73 72 72 72 72 73 73 74 75 77 78 76 75 74 74 75 74 74 73 73
65 53 43 43 43 43 48 51 55 65 71 73 71 71 76 80 80 77 79 82 80 80 80 78 76 75 76 75 75 73 73 73 73 73 76 73 73 73 75 75 75 74 75 75 75 74 75 74 73
56 54 44 38 39 45 53 48 59 70 74 77 77 76 77 75 78 78 81 82 82 80 80 78 76 76 77 76 75 74 73 75 73 73 77 79 78 77 76 76 76 75 75 76 75 74 74 75 74
58 50 57 48 43 44 49 58 67 69 69 73 76 74 76 77 77 82 83 84 82 80 80 79 77 77 77 77 77 73 72 72 74 74 74 79 80 78 76 77 76 76 75 75 74 73 74 74 74
56 60 49 46 39 37 46 49 52 57 61 65 72 75 75 77 78 81 81 80 80 82 81 81 79 78 77 78 78 77 76 72 73 74 74 75 77 76 76 76 77 76 76 75 74 73 74 73 73
53 49 48 48 46 41 40 47 59 59 62 61 68 76 76 76 77 80 79 80 80 79 79 80 80 79 77 78 78 78 77 73 72 75 76 75 75 76 76 77 77 77 75 74 73 73 74 74 73
57 49 45 39 41 44 44 47 64 63 63 64 67 75 77 78 75 75 74 72 71 73 80 76 78 78 79 79 78 77 77 77 72 73 75 75 75 75 77 76 78 78 76 75 73 73 76 74 73

GFSSGP_sfc_temp_087.txt.gz
Temp
80 79 76 70 61 60 56 60 67 68 69 75 76 74 71 70 67 56 70 73 75 75 77 80 82 83 83 83 81 82 82 83 82 82 83 82 82 83 83 83 83 83 83 83 83 83 83 83 83
78 78 74 67 58 53 55 66 65 69 76 77 77 77 72 66 71 67 68 76 77 76 76 78 81 82 83 83 82 83 83 83 82 83 82 82 83 83 83 83 83 83 83 83 83 83 83 83 83
78 80 66 62 57 54 56 68 70 76 79 77 74 77 70 66 70 71 74 77 77 75 76 78 82 82 83 83 83 83 83 83 82 83 83 83 83 83 83 83 83 83 83 83 83 83 83 83 84
77 72 67 59 57 62 61 70 76 75 75 75 71 65 71 75 73 74 77 78 75 75 77 81 83 83 83 83 83 83 83 83 82 83 83 83 83 83 83 83 83 84 83 83 83 83 83 82 83
74 66 61 60 60 65 66 72 77 72 74 73 74 66 66 74 77 77 76 77 74 74 76 79 83 83 83 83 83 83 83 83 83 83 83 83 83 83 84 84 84 84 83 83 83 83 83 83 83
65 65 59 56 59 62 65 69 68 72 73 71 70 68 67 75 74 76 77 76 77 75 76 78 82 82 83 83 83 83 83 83 83 83 83 83 83 83 83 83 84 84 84 84 83 83 83 83 83
64 61 61 62 61 60 62 67 66 70 72 70 76 65 68 71 76 77 76 76 77 77 75 76 77 81 83 83 83 83 83 83 83 83 83 83 83 83 83 84 84 84 84 84 83 83 83 83 83
69 64 59 63 61 59 66 66 70 73 71 79 80 64 63 72 76 76 76 75 74 74 75 74 75 76 76 78 84 83 83 83 83 83 83 83 83 84 84 83 84 84 84 84 84 83 83 83 83
79 62 55 63 63 61 67 63 72 76 75 78 77 75 75 77 76 74 72 72 72 74 73 73 73 73 74 76 80 82 83 83 83 83 83 81 76 78 79 81 84 84 84 84 83 83 84 83 84
67 56 61 69 70 64 66 65 65 70 74 72 73 77 78 76 74 71 70 70 70 72 72 72 72 73 74 81 76 76 78 76 75 75 73 72 74 75 79 81 84 84 84 83 83 83 80 77 73
69 62 69 71 72 70 67 66 70 66 67 72 69 73 74 74 73 71 71 71 70 72 74 72 72 73 74 75 73 74 74 74 74 74 71 72 73 73 74 74 74 74 78 74 74 74 72 73 72
63 73 73 71 75 73 69 74 71 71 70 76 77 76 75 73 73 72 72 72 71 72 73 72 73 72 72 73 72 73 73 73 73 72 72 72 69 70 71 72 72 72 72 70 70 70 72 73 72
66 71 75 74 74 74 74 70 68 70 74 77 78 77 76 74 75 75 75 75 73 71 73 73 73 72 72 72 72 72 72 73 74 72 72 72 70 70 71 71 71 71 71 70 70 71 72 72 73
73 73 74 73 73 74 72 70 71 73 74 73 77 76 77 77 76 75 75 74 73 74 74 74 74 73 73 72 72 72 73 74 74 73 72 72 71 70 70 70 70 70 70 70 71 70 71 72 74
74 67 70 70 71 70 72 65 67 72 75 73 75 76 77 78 78 76 77 75 76 76 76 75 74 74 73 73 73 73 74 75 73 72 72 73 72 71 69 70 70 70 69 70 70 70 71 71 75
63 62 56 63 69 73 71 61 71 73 71 69 74 76 77 77 78 79 79 77 78 78 76 76 81 77 74 74 74 75 75 74 74 73 72 73 73 72 70 70 70 70 69 69 70 70 69 70 71
57 51 55 59 72 71 67 60 69 72 72 69 72 74 76 76 79 80 81 79 79 78 76 76 76 76 75 74 76 74 76 74 72 73 72 73 74 75 72 71 70 71 70 69 70 70 69 69 70
50 51 52 58 67 70 64 62 67 68 71 70 71 74 76 76 77 82 80 80 80 78 78 77 77 76 74 74 73 73 73 73 73 72 73 74 74 75 74 73 71 71 70 70 70 70 70 70 71
60 56 55 63 70 67 63 63 65 66 68 68 70 72 75 77 78 81 80 81 79 79 77 77 75 73 73 71 71 70 71 71 72 73 75 75 74 75 74 72 72 72 71 71 71 71 71 71 70
59 56 56 63 69 64 60 59 65 65 66 69 69 72 74 77 75 79 79 79 78 77 77 77 76 74 74 72 71 73 72 72 72 74 74 76 76 76 75 73 72 72 71 71 72 71 69 69 70
55 52 56 59 64 64 62 59 60 64 67 68 69 74 76 75 75 78 79 78 78 77 76 76 76 75 74 73 72 72 73 71 72 72 73 75 77 76 75 74 72 72 72 71 71 72 70 69 69
49 64 65 64 57 50 60 45 58 63 62 65 67 68 72 76 77 78 79 77 78 78 78 78 76 75 74 72 72 72 70 70 72 72 72 75 76 76 76 75 74 74 72 71 72 73 70 69 69
60 67 64 62 54 50 54 49 50 60 58 62 67 69 72 75 78 78 80 78 79 80 78 78 76 75 73 74 74 73 70 71 72 72 73 73 74 76 77 75 74 74 73 72 72 72 71 70 70
70 62 57 51 49 43 50 51 49 54 61 66 69 71 73 75 76 80 82 81 79 80 79 78 75 75 74 74 71 72 72 71 70 70 72 72 72 73 75 76 74 74 72 72 73 73 72 72 71
60 50 42 41 41 42 46 49 51 61 64 68 69 71 74 77 76 78 79 80 78 78 78 77 75 74 74 74 72 72 73 71 71 71 73 71 71 72 73 74 73 73 73 73 73 72 72 72 71
52 50 43 37 37 42 47 47 52 63 65 67 71 75 76 76 77 79 77 80 79 79 78 77 75 74 75 74 73 71 71 72 72 71 72 74 75 76 75 74 74 74 74 74 73 73 73 73 72
53 46 49 43 39 43 46 52 59 63 62 64 65 68 75 75 77 79 79 80 80 79 78 77 75 75 75 76 75 72 71 70 72 72 72 74 74 77 75 74 74 74 74 73 73 72 72 73 72
53 54 45 43 37 36 44 44 45 54 55 60 61 64 69 74 75 78 79 78 80 81 80 79 77 76 76 76 76 76 74 72 72 72 72 72 74 74 75 74 74 74 74 74 72 72 72 72 72
47 44 41 42 42 38 38 41 56 58 57 58 60 63 67 73 73 74 77 80 77 79 80 78 77 77 76 77 77 77 75 70 70 71 73 73 73 73 74 74 74 74 74 73 72 72 72 72 72
53 44 39 36 36 39 40 41 59 59 61 60 61 61 64 65 66 68 69 70 69 71 77 75 76 77 77 77 77 76 76 74 71 71 72 73 74 73 74 74 74 74 75 73 72 72 74 72 72

GFSSGP_sfc_temp_090.txt.gz
Temp
78 78 75 70 60 60 56 60 65 65 66 71 74 70 67 68 65 55 67 71 75 74 76 80 82 82 83 82 83 82 82 82 82 82 82 82 82 82 82 82 83 83 83 83 83 83 83 84 84
76 77 72 66 57 53 56 65 63 67 73 73 74 75 70 63 69 64 67 73 76 75 75 78 81 82 83 82 82 82 83 82 82 82 82 82 82 83 83 83 83 83 83 83 83 83 84 83 84
77 78 66 61 58 54 56 65 69 73 75 74 71 73 70 63 68 69 72 75 75 74 75 78 82 82 83 83 83 83 83 82 82 82 82 82 83 83 83 83 83 83 83 83 83 83 84 84 83
73 69 67 60 58 60 61 65 70 71 74 73 71 64 70 74 72 72 75 76 74 74 77 81 82 83 83 83 83 83 83 82 83 83 83 82 82 83 83 82 83 83 83 83 83 83 83 83 83
72 66 59 61 59 63 65 71 75 73 72 70 72 63 63 71 74 75 75 75 73 73 76 79 82 83 83 83 83 83 82 82 83 82 83 82 83 83 83 82 84 83 83 83 83 83 83 83 83
65 65 58 56 60 63 65 66 68 71 68 70 67 66 65 72 73 74 75 74 76 75 76 78 82 83 83 83 83 83 83 83 82 83 83 83 83 83 83 83 83 84 84 83 83 83 83 83 84
63 61 59 62 60 61 63 67 67 68 69 68 73 64 67 69 73 74 74 75 76 76 75 76 77 80 83 82 83 83 83 83 83 83 83 83 83 83 83 84 84 84 84 84 84 83 83 83 83
67 64 59 61 61 61 66 67 67 69 66 77 76 62 63 69 73 74 74 73 73 74 74 74 75 76 76 78 82 83 83 83 83 83 83 83 83 83 83 82 84 84 84 84 83 83 83 83 83
77 60 54 61 62 61 68 66 69 72 73 76 77 73 73 73 74 71 71 72 72 73 73 73 74 74 75 77 80 82 83 83 83 82 82 80 77 78 79 82 84 84 84 84 84 84 84 82 83
64 55 60 67 67 64 66 65 65 69 72 69 69 72 73 73 71 70 70 69 73 73 72 72 73 73 74 80 76 77 79 78 76 76 75 74 75 76 80 81 84 84 83 84 83 82 81 77 75
66 60 68 69 71 69 66 65 69 66 67 69 66 68 70 70 70 69 70 70 71 75 73 72 72 73 74 75 74 75 75 75 74 74 73 74 74 75 75 75 75 75 79 75 77 76 75 76 75
61 70 71 70 73 70 67 69 65 67 70 75 73 72 71 69 70 70 69 69 69 72 72 71 72 72 73 74 74 74 74 75 74 73 73 73 72 73 73 73 74 74 73 72 73 73 75 76 76
64 69 72 73 73 73 74 69 69 69 75 75 76 73 71 70 71 72 72 71 70 70 71 71 72 72 72 73 73 73 74 75 75 73 73 73 71 72 73 73 73 73 73 72 72 74 75 75 77
70 70 71 71 71 75 70 69 71 72 75 74 74 71 72 72 72 72 72 70 70 71 71 71 72 72 72 72 72 73 73 75 75 74 73 74 72 71 73 72 72 72 72 72 73 73 74 75 76
69 64 67 67 70 69 73 63 67 72 73 72 71 72 73 73 74 72 73 72 72 71 72 71 72 73 72 72 73 73 74 75 75 73 74 74 73 73 72 73 72 72 72 73 73 74 74 74 77
61 60 54 61 68 72 68 62 70 72 71 70 71 73 73 73 74 75 75 74 73 73 71 72 78 74 72 72 73 74 74 74 74 72 73 75 74 73 71 72 72 72 71 73 72 73 73 74 75
56 51 54 58 68 69 66 63 68 70 70 69 71 71 73 74 74 76 77 75 75 74 72 72 74 73 73 73 73 74 75 74 73 72 73 74 74 74 72 73 72 73 72 73 73 73 73 74 75
50 51 50 56 64 66 63 60 64 68 69 68 71 71 73 74 73 77 78 77 77 75 74 74 75 73 73 73 73 73 73 74 75 74 73 75 73 76 73 74 73 73 73 73 73 74 74 74 75
59 56 53 59 66 62 62 60 62 66 67 67 69 70 72 73 76 78 79 78 77 75 73 73 72 72 72 71 71 71 72 73 73 75 76 75 74 75 74 74 74 73 73 74 74 74 74 74 74
57 55 53 60 65 62 59 57 62 64 64 67 68 70 72 74 75 77 77 77 77 75 74 73 73 72 73 72 72 73 72 73 74 75 76 77 77 76 73 74 74 73 74 74 74 74 73 74 73
53 51 53 56 61 61 59 55 57 62 65 67 69 71 73 74 74 75 76 76 77 75 74 74 74 72 74 72 72 71 73 72 73 74 75 76 76 78 77 76 74 73 74 74 74 74 74 73 73
45 62 63 60 55 49 58 46 52 58 60 64 66 67 70 72 75 76 76 75 76 76 77 75 75 73 74 72 72 72 71 71 73 73 74 76 77 76 77 76 75 74 75 74 74 76 74 74 73
58 64 61 59 53 48 52 49 51 57 57 62 65 66 69 72 74 76 77 77 76 78 77 77 74 73 73 73 73 72 71 72 74 74 75 75 75 77 78 76 76 75 75 75 75 75 75 74 74
66 59 54 49 47 43 47 49 48 52 56 62 67 68 70 73 76 77 79 78 77 79 78 77 73 72 71 73 71 71 71 71 72 73 73 74 73 76 75 77 75 76 75 74 75 76 75 75 75
57 49 39 40 40 41 43 47 46 57 60 61 61 67 71 72 75 75 77 77 77 77 77 76 73 71 71 72 71 71 72 72 72 73 73 73 73 74 75 75 75 76 76 75 75 75 75 76 76
49 47 41 36 35 42 44 44 51 60 62 64 65 65 69 73 76 75 78 78 77 77 76 76 73 73 72 72 72 70 71 73 73 73 73 74 75 76 76 75 75 76 77 77 76 76 76 76 76
49 45 46 41 36 41 44 49 57 62 60 61 61 62 62 70 76 77 78 80 78 77 76 75 74 74 73 73 72 70 70 71 73 73 73 74 75 77 77 76 75 76 77 75 76 76 76 76 76
51 50 44 42 36 35 41 42 45 54 56 59 59 59 61 65 73 77 79 78 79 79 77 77 75 75 74 75 74 73 72 71 72 73 73 73 75 76 76 76 76 75 76 76 75 75 76 75 76
45 41 40 41 39 37 35 40 55 56 59 58 59 60 61 62 65 73 76 73 73 74 79 77 76 75 75 75 75 74 73 71 71 73 74 74 75 75 75 75 76 76 76 76 75 75 75 75 75
47 41 37 39 37 36 38 40 55 57 59 61 61 61 62 64 64 64 66 68 70 72 72 75 76 76 76 75 75 75 74 73 72 72 73 74 74 74 75 75 75 76 76 76 76 76 77 75 75

GFSSGP_sfc_temp_093.txt.gz
Temp
83 84 80 71 61 60 57 62 69 67 69 77 78 75 74 75 70 67 80 84 85 85 86 85 82 83 83 83 83 82 82 82 82 82 82 82 83 82 82 83 83 82 84 84 83 84 84 84 84
84 81 74 68 58 56 58 67 65 72 76 79 80 78 74 69 74 73 77 84 86 87 88 87 81 83 83 83 83 83 83 82 83 82 82 83 83 83 83 83 83 82 83 83 83 84 84 84 84
83 81 70 67 60 58 61 67 69 75 78 78 74 79 74 69 73 77 84 85 86 85 87 86 82 82 83 83 83 83 83 82 83 82 82 83 83 83 83 83 82 83 84 83 84 84 84 84 83
79 76 72 65 61 62 62 68 75 75 78 76 76 68 74 78 78 80 84 86 86 86 87 84 83 83 83 83 83 83 82 82 83 82 82 83 83 83 83 83 84 83 83 83 84 84 84 84 83
78 72 62 64 62 65 68 70 78 75 75 75 76 66 66 76 80 83 84 86 86 87 88 87 82 83 83 83 83 83 83 83 83 82 83 83 83 83 83 84 83 83 84 84 84 84 84 83 84
71 71 63 62 63 65 68 69 73 73 70 72 71 71 69 78 79 82 85 86 88 87 88 88 83 83 83 83 83 83 83 83 82 83 83 83 83 84 83 84 84 84 84 84 84 83 84 84 84
70 67 64 65 64 63 64 68 68 70 71 70 77 68 70 75 81 83 85 86 87 88 86 86 87 85 83 83 83 82 83 83 83 83 82 83 83 83 84 84 84 84 84 84 84 83 83 84 83
76 72 64 67 65 61 68 67 70 71 68 80 81 68 67 74 81 83 85 85 86 87 86 84 85 86 86 86 83 82 83 83 83 83 83 83 83 83 84 83 84 84 84 83 84 84 83 83 83
80 69 63 66 66 64 70 68 70 72 73 78 80 78 80 80 82 81 81 81 82 84 85 87 86 85 85 86 85 83 82 83 83 83 83 83 85 86 87 84 84 84 84 84 84 84 82 82 83
74 70 66 73 72 66 68 68 67 70 72 69 73 77 78 79 79 79 78 78 79 79 83 86 86 85 85 87 85 85 86 87 86 84 84 84 84 85 87 85 84 84 84 84 83 82 82 86 89
73 69 72 73 74 71 69 67 68 67 69 72 68 71 76 78 79 79 79 80 79 79 83 84 83 84 85 84 86 86 87 87 84 83 83 84 84 85 87 85 87 86 82 89 88 88 89 87 89
70 75 76 74 75 72 67 71 70 70 71 78 76 77 78 77 79 80 79 80 80 79 81 83 83 82 83 85 86 86 86 86 87 84 82 83 85 84 84 86 85 84 85 84 85 88 86 87 85
71 75 79 78 76 76 73 68 72 71 76 77 77 77 77 79 79 81 82 82 81 79 81 82 82 81 82 82 84 85 85 87 86 84 83 85 85 83 84 83 85 84 85 86 85 86 88 87 88
77 77 78 78 76 78 73 71 73 75 76 75 75 77 78 79 80 80 80 79 79 80 82 83 82 82 82 82 81 83 85 85 86 86 84 82 84 83 84 83 84 84 86 86 86 85 87 87 88
77 73 75 75 76 75 77 66 66 77 75 72 75 77 78 79 80 79 81 80 81 82 83 82 82 83 81 82 83 84 85 87 86 85 83 83 82 83 82 84 84 85 85 84 85 85 86 89 89
74 74 70 71 75 76 74 66 72 75 75 73 75 76 77 79 80 82 83 83 83 84 81 82 85 84 82 82 83 85 86 86 85 85 85 83 82 81 81 84 84 84 84 85 86 87 87 88 88
71 68 68 66 76 73 72 68 73 77 76 73 72 76 78 78 80 82 84 84 84 83 82 82 83 83 82 82 84 84 84 85 86 85 85 83 82 82 83 85 83 82 84 85 86 87 87 86 88
65 67 68 67 71 71 72 68 71 73 75 72 74 76 78 78 80 83 85 85 85 84 83 82 83 82 82 83 82 84 84 86 86 85 86 83 83 83 82 84 82 83 85 85 87 84 86 86 87
71 70 68 71 75 71 73 73 72 72 74 73 74 75 78 79 83 85 85 85 85 84 82 82 81 81 82 82 82 82 83 84 82 86 84 84 82 83 82 85 83 84 84 85 84 86 84 87 86
70 68 67 71 73 73 70 70 71 73 74 74 74 75 77 80 81 82 84 85 84 83 82 81 81 81 81 83 83 85 85 85 86 86 85 85 84 84 83 83 84 83 85 83 84 84 86 87 86
68 68 67 69 70 71 69 66 67 70 73 75 77 78 80 80 81 82 83 83 84 83 82 82 81 81 82 83 83 82 82 83 84 84 85 83 87 86 84 84 84 83 85 86 84 84 82 86 85
65 72 71 69 68 66 70 64 65 68 68 71 74 76 79 80 82 84 84 84 84 84 85 83 82 81 82 82 82 81 84 80 86 86 86 86 85 85 87 85 85 84 87 84 85 86 85 84 85
68 72 71 70 69 67 65 68 64 68 66 69 73 75 78 80 83 85 85 85 86 86 85 84 82 81 82 81 82 83 83 86 86 86 83 84 84 85 85 85 84 84 86 84 84 83 82 87 87
74 69 67 67 68 61 64 67 60 62 62 67 72 76 77 79 78 85 87 87 86 87 86 85 82 80 81 80 81 81 82 82 84 84 85 86 83 86 85 85 84 84 85 84 86 85 83 84 85
71 68 58 57 58 59 63 64 57 64 66 65 67 71 75 80 81 81 84 85 84 85 84 85 81 79 80 80 81 81 82 82 82 82 85 85 86 87 84 84 84 84 84 84 84 84 84 84 86
68 69 61 50 53 60 62 57 55 66 69 70 70 70 72 74 80 82 82 85 84 84 84 81 80 80 80 80 80 81 81 84 86 85 87 88 88 88 87 85 85 85 84 85 84 86 87 85 86
63 63 65 60 57 62 62 60 63 68 68 68 64 64 65 72 76 82 84 86 86 84 83 83 81 80 80 81 81 80 81 81 84 84 84 87 86 88 86 86 85 85 84 84 84 86 84 84 84
65 64 61 63 51 52 54 54 55 58 61 64 60 60 63 67 78 82 85 85 86 84 85 84 84 81 82 82 82 82 81 82 82 83 83 84 85 85 86 86 86 85 85 85 83 85 85 83 86
61 61 58 62 58 57 52 53 60 56 58 59 59 60 61 64 65 70 75 85 86 83 84 83 84 82 82 83 83 82 82 82 82 83 84 84 85 84 84 85 85 85 85 85 82 83 84 83 84
59 54 55 58 52 55 61 51 60 58 59 61 61 61 62 63 64 66 67 69 74 80 81 81 84 84 84 82 81 82 82 82 82 82 83 84 84 84 84 84 84 84 85 85 83 84 86 83 83

GFSSGP_sfc_temp_096.txt.gz
Temp
84 90 90 78 64 62 61 66 73 74 78 83 87 83 81 83 78 71 93 96 94 93 92 89 83 83 83 83 83 83 83 83 83 83 83 83 83 83 83 84 84 84 84 84 84 84 84 84 84
94 87 84 77 64 59 66 71 73 78 83 87 86 86 82 76 84 84 88 94 95 96 95 92 82 83 83 83 83 83 83 83 83 83 83 83 83 83 83 83 83 84 84 84 84 84 84 84 84
91 88 73 70 69 66 64 73 79 82 86 85 83 88 83 76 84 87 94 94 96 95 95 89 82 83 83 83 83 83 83 83 83 83 83 83 83 84 84 83 84 84 84 84 84 83 84 84 83
88 84 79 66 66 71 69 76 82 81 85 84 85 77 82 85 88 92 95 96 95 95 96 85 83 83 83 83 83 83 83 83 82 82 83 84 84 83 84 84 84 83 84 84 84 84 84 84 84
90 79 71 66 69 71 74 82 85 80 82 82 83 72 76 85 91 93 94 96 95 97 95 91 83 83 83 83 83 83 83 83 83 83 83 83 84 84 83 84 84 84 84 84 84 84 84 84 84
76 81 68 62 70 72 75 78 81 80 80 78 80 78 77 87 89 92 95 96 98 97 97 92 84 83 83 83 83 83 83 83 83 83 82 84 84 84 84 84 84 84 84 84 83 84 84 84 83
75 75 72 72 71 69 67 76 75 77 78 78 86 78 80 86 91 94 96 97 98 98 95 93 92 87 83 84 83 83 83 83 83 83 83 83 83 84 84 84 84 84 84 84 84 84 84 84 83
82 82 73 75 70 68 68 70 73 79 75 87 88 77 76 86 92 95 96 96 97 96 94 92 92 91 90 90 83 83 83 83 83 84 83 83 84 84 84 83 84 84 84 84 84 84 84 83 83
87 77 74 73 72 70 78 72 77 80 80 80 85 86 88 89 92 92 91 92 93 93 95 96 94 93 90 91 88 84 83 84 83 85 83 84 89 91 90 85 84 85 84 85 84 84 84 84 83
84 81 74 79 79 73 77 76 74 77 76 75 82 90 89 89 89 88 89 89 90 90 93 96 96 93 92 93 88 88 91 91 90 88 89 92 90 89 92 87 84 85 85 84 84 83 84 87 96
83 79 80 79 80 81 74 69 73 75 72 75 79 83 86 87 88 89 89 90 90 91 94 95 92 89 91 89 91 94 95 93 91 89 91 91 92 93 93 91 93 91 87 95 91 92 97 94 96
79 82 84 81 79 74 73 72 71 73 75 83 85 86 87 86 88 89 89 90 88 89 92 93 91 89 89 92 95 95 94 93 94 91 89 89 92 90 92 93 91 90 94 90 93 95 92 93 92
80 83 85 85 83 82 79 76 71 75 80 83 86 87 86 88 89 91 92 92 90 87 90 91 89 87 86 89 93 94 93 95 94 92 90 92 92 89 92 89 93 92 93 93 94 93 93 94 95
85 84 85 86 84 84 75 72 79 79 78 82 85 86 88 89 89 89 90 89 89 89 90 91 89 88 89 89 88 90 93 92 94 93 91 88 92 90 90 89 92 92 94 94 94 92 93 93 96
85 81 83 84 85 82 82 71 71 79 78 80 83 86 88 89 90 88 90 89 90 91 91 90 90 90 88 88 89 91 93 95 94 89 89 89 89 88 89 91 91 93 91 90 91 91 94 97 97
81 83 78 82 84 84 79 66 75 71 75 79 82 85 86 87 89 90 91 91 91 92 89 90 93 91 88 88 89 92 94 93 95 90 91 89 88 88 87 90 91 91 91 94 94 95 95 95 95
80 77 77 77 85 82 78 65 73 80 79 80 81 85 86 86 89 90 92 92 92 91 89 89 90 91 89 87 90 91 89 90 92 89 94 89 89 88 91 92 89 88 92 93 94 94 94 92 95
75 77 78 76 79 80 76 69 74 81 83 80 82 83 85 86 88 91 92 93 93 92 90 89 90 89 88 89 88 92 91 86 92 92 95 89 91 89 89 91 88 90 92 92 94 91 93 95 94
82 80 78 79 83 80 79 81 79 80 82 80 80 82 84 87 91 92 92 93 92 92 89 88 87 86 88 89 89 90 90 86 90 91 90 89 89 88 87 92 89 90 91 91 89 91 89 93 94
80 78 78 79 82 81 77 79 80 81 81 82 81 80 80 85 89 90 91 92 91 90 89 87 87 86 87 90 90 92 90 91 93 92 91 91 90 89 88 89 90 90 91 88 89 89 93 94 93
79 78 77 77 79 82 76 75 76 77 82 79 79 82 84 84 88 89 90 91 92 90 89 88 86 86 87 89 89 87 89 87 89 86 90 92 91 91 90 89 89 88 91 91 89 90 88 91 93
74 80 78 77 77 73 81 63 73 77 77 74 79 78 82 83 86 91 91 91 92 92 92 90 88 86 87 87 89 86 90 90 93 92 91 91 91 91 91 90 89 89 94 91 90 93 92 88 90
77 81 79 79 77 77 76 74 72 78 73 76 79 80 83 88 86 89 93 93 94 94 93 92 88 87 88 87 87 86 87 92 93 94 85 86 89 91 92 90 89 88 93 89 89 88 88 93 93
81 78 77 79 79 68 77 76 68 71 68 75 79 82 83 81 87 86 94 95 94 96 94 94 88 86 86 87 86 86 87 89 90 90 84 88 92 91 90 91 89 90 90 89 90 89 88 89 91
79 76 65 63 64 66 79 75 64 70 71 73 75 78 82 87 82 84 90 93 93 93 93 93 89 85 86 86 87 86 86 86 87 87 90 90 93 94 87 88 87 90 89 89 90 88 89 89 91
75 77 69 56 62 68 75 67 59 74 77 75 69 70 75 80 86 81 82 93 93 93 92 91 89 85 86 87 86 86 86 89 91 90 94 93 95 95 91 90 89 90 90 90 89 91 92 90 90
75 70 81 72 76 71 71 66 72 75 75 73 66 64 67 75 86 87 91 92 94 93 92 91 89 86 87 88 86 86 86 86 90 89 90 93 93 96 92 91 90 90 90 89 89 92 89 90 89
75 80 69 72 60 59 66 63 62 64 65 68 63 60 63 68 76 86 84 89 92 95 94 92 88 83 85 88 89 88 88 87 88 89 88 90 92 92 92 90 91 90 89 89 88 90 89 88 91
71 71 73 76 72 65 61 61 62 61 61 62 61 61 61 64 68 73 68 73 88 94 92 93 92 90 86 88 89 87 87 89 88 89 89 89 90 90 90 90 91 90 90 89 88 88 90 88 88
70 68 71 67 63 71 71 54 62 61 63 63 62 62 63 64 65 68 71 71 72 79 88 91 92 92 91 90 88 88 85 86 89 88 89 90 88 89 89 90 89 90 91 90 88 88 91 88 88

GFSSGP_sfc_temp_099.txt.gz
Temp
84 91 96 83 63 69 68 67 80 82 84 93 93 91 86 86 75 72 96 99 97 95 91 89 83 84 83 83 83 83 83 83 83 83 83 83 84 84 84 84 84 84 84 85 85 84 84 84 83
91 92 87 74 65 66 67 77 77 85 88 92 92 90 88 80 90 91 93 97 98 98 96 92 82 83 83 83 83 82 83 83 83 83 83 84 84 84 84 84 84 84 84 84 84 84 84 84 84
88 93 73 71 66 61 65 77 82 87 91 91 89 92 87 80 92 93 98 98 100 97 96 88 83 83 83 83 83 83 83 83 83 83 84 83 84 84 84 84 84 84 84 84 83 84 84 84 84
90 81 78 69 67 73 76 80 86 87 91 92 90 81 87 95 93 97 99 101 99 99 96 85 83 84 84 84 84 83 83 83 83 84 84 84 84 84 84 84 84 84 84 84 84 84 84 83 83
88 79 69 65 71 76 83 87 87 85 87 88 89 80 83 93 99 99 99 101 99 96 95 91 83 84 83 84 83 83 84 83 83 84 84 84 84 84 84 84 84 84 84 84 84 84 84 83 83
76 79 66 64 70 75 82 88 86 83 83 86 85 82 83 94 96 98 101 101 98 98 96 92 84 84 83 84 83 84 83 84 84 83 84 84 84 84 84 84 84 85 84 84 85 84 84 84 83
73 74 70 70 70 71 75 86 84 82 83 84 91 81 85 91 97 99 102 102 100 96 93 92 91 86 83 84 83 84 83 83 83 83 83 84 84 84 84 85 84 84 84 85 85 84 84 83 83
87 80 75 76 71 70 74 79 78 82 84 91 95 80 80 91 98 101 102 102 101 100 98 94 92 91 88 89 84 84 83 83 83 84 83 84 84 84 85 84 84 85 85 85 85 84 84 83 83
95 70 69 75 71 74 74 73 80 85 85 84 90 92 93 95 98 98 98 98 96 97 97 95 92 89 87 89 88 84 83 83 84 84 84 84 88 90 89 85 84 85 85 85 84 84 84 83 83
88 63 78 84 79 79 79 79 79 80 80 82 88 94 94 95 95 94 94 94 95 92 94 91 91 88 87 93 89 90 90 90 87 91 86 91 85 88 92 87 85 85 85 84 84 85 85 85 94
88 69 86 83 81 85 81 80 74 77 75 81 84 88 91 93 93 94 95 95 94 96 90 92 90 87 89 91 93 88 91 92 89 91 84 90 91 90 94 90 91 90 86 93 90 84 84 93 98
83 88 86 85 85 85 79 79 71 77 78 86 88 92 91 91 93 95 95 95 94 94 96 90 91 86 85 94 87 86 90 92 91 94 92 91 85 89 89 94 93 92 84 92 85 92 92 95 96
85 89 91 90 86 85 80 74 70 75 82 90 91 91 91 93 94 96 97 97 94 93 95 94 93 89 91 92 95 85 93 85 94 93 91 88 92 89 92 92 94 94 95 94 92 86 91 95 96
92 91 90 91 88 86 80 73 74 75 84 87 90 90 92 93 95 95 95 93 92 93 94 94 92 90 90 91 91 92 82 92 91 86 92 93 94 92 91 92 94 94 95 94 89 85 81 94 95
91 85 89 90 90 80 83 74 69 76 84 86 88 90 92 94 95 93 95 93 93 95 94 92 92 93 89 90 91 91 95 85 84 89 91 91 92 91 91 85 91 94 92 91 92 91 91 92 97
87 88 81 89 86 86 80 65 71 77 83 86 88 90 91 92 95 95 95 95 95 96 92 92 97 93 92 90 92 93 84 83 80 94 93 91 90 90 90 91 94 93 93 95 85 86 91 95 96
84 79 80 82 91 84 69 66 67 77 82 84 87 89 90 91 93 95 96 96 95 95 92 92 94 93 91 90 93 95 90 95 95 86 87 91 90 90 88 84 91 89 93 88 86 85 82 93 96
78 80 85 81 87 82 71 67 68 75 78 80 87 88 89 91 92 94 96 97 96 95 93 92 93 90 90 91 91 92 92 94 94 94 81 91 90 91 90 88 90 91 88 92 80 87 94 92 95
88 83 82 84 88 80 65 65 69 77 79 79 80 83 86 87 93 95 96 97 96 94 91 91 90 88 90 90 91 88 83 90 90 94 92 92 91 90 90 91 90 91 87 82 91 91 89 93 95
86 85 84 86 88 70 63 68 66 77 80 82 82 80 82 84 89 92 92 95 95 92 91 89 89 87 89 92 91 86 90 92 86 92 92 92 91 90 91 91 91 90 89 89 90 90 91 93 95
84 84 82 80 84 83 78 70 71 80 83 82 83 82 84 83 85 90 90 94 95 92 90 89 88 87 89 91 89 92 90 92 92 92 92 92 92 92 91 90 86 91 93 91 90 91 87 85 93
79 89 87 84 80 73 78 56 63 78 76 80 80 80 80 80 83 92 91 95 95 93 93 90 89 88 89 91 88 86 88 86 79 88 94 93 93 89 92 91 91 89 84 86 92 94 91 88 91
82 89 84 84 81 78 71 68 56 79 74 74 80 82 80 82 88 90 93 93 97 96 94 92 89 88 89 89 88 89 82 90 92 80 88 91 90 93 91 91 91 90 91 91 90 89 88 94 89
86 84 83 84 82 72 75 71 63 64 74 77 81 82 84 86 85 91 89 93 96 98 96 94 89 87 88 88 88 88 89 84 85 79 89 90 93 92 92 90 90 90 82 90 91 90 89 88 88
83 79 68 66 68 69 81 71 62 74 75 73 74 77 83 86 90 92 87 89 91 96 96 95 89 86 87 88 88 88 88 89 88 89 91 75 88 87 89 90 88 89 90 91 91 89 89 89 90
79 80 71 59 65 72 85 68 67 80 73 71 70 71 77 84 90 92 88 92 90 94 95 95 90 87 88 88 88 88 88 91 91 91 93 90 79 91 90 90 90 91 91 91 91 91 91 91 91
79 74 87 79 81 75 74 69 77 81 78 71 65 66 69 77 88 91 85 87 88 94 95 94 92 89 88 89 88 88 88 88 91 92 91 95 95 87 92 92 91 92 91 91 90 89 90 91 89
79 86 75 77 64 63 70 66 69 67 68 67 63 62 65 73 81 91 86 81 87 89 94 96 94 90 90 91 90 90 89 89 89 91 89 92 93 94 77 92 91 91 91 90 89 91 91 89 91
77 75 78 82 78 69 65 64 74 68 64 66 62 62 64 67 71 75 76 75 79 74 74 94 95 92 90 89 91 90 90 90 89 90 90 90 91 93 91 92 92 91 90 90 89 88 90 89 89
79 77 80 70 68 76 73 50 69 71 71 67 63 63 65 66 69 73 72 71 66 67 69 80 71 91 88 88 88 90 90 89 91 89 91 91 89 91 91 91 90 91 91 91 89 88 92 89 89

GFSSGP_sfc_temp_102.txt.gz
Temp
82 87 89 77 62 65 63 71 83 82 85 93 94 87 80 81 77 66 91 93 91 88 86 86 83 83 83 83 83 83 83 83 83 83 83 83 84 84 84 84 84 84 84 84 84 84 84 84 84
90 91 81 71 62 58 64 80 77 84 90 93 91 89 84 77 86 87 89 93 93 90 90 86 82 83 83 83 83 83 83 83 83 83 83 84 84 84 84 84 84 84 84 84 84 84 84 84 83
84 89 70 63 62 63 64 79 81 88 91 91 84 88 86 81 89 90 95 95 94 92 89 84 83 83 83 83 83 84 83 83 83 83 84 84 84 84 84 84 84 84 84 84 84 84 84 84 84
83 79 77 63 64 74 73 81 87 87 91 90 87 81 90 95 91 94 98 97 94 91 89 84 83 83 84 84 83 84 83 83 84 84 84 84 84 84 84 84 84 84 84 84 84 84 84 83 83
85 76 63 64 70 76 81 87 89 85 87 86 86 80 83 92 96 97 97 97 93 91 88 86 83 83 84 83 83 84 84 83 84 84 84 84 84 84 84 84 84 84 84 84 84 84 84 83 83
74 74 65 64 71 79 84 89 85 85 86 85 83 82 83 94 94 97 98 94 92 91 90 87 84 83 84 83 84 83 84 84 83 84 84 84 84 84 84 84 85 85 85 85 84 84 83 83 83
75 71 65 66 71 71 80 89 81 84 84 82 89 78 85 90 96 99 95 95 95 94 90 87 86 84 84 83 84 83 83 83 83 83 84 84 84 84 84 84 84 85 85 85 84 84 83 83 83
85 75 69 71 70 69 79 84 82 81 79 89 91 77 79 90 97 96 97 93 89 93 89 88 85 86 84 85 84 84 83 83 84 84 84 83 84 85 84 84 84 85 85 85 84 84 83 83 83
91 62 65 72 73 72 77 75 81 84 86 87 87 89 91 95 99 95 88 87 90 93 92 91 89 88 86 86 85 83 84 84 84 83 84 83 83 86 85 84 84 85 85 85 85 84 83 83 84
76 60 65 84 82 74 75 77 79 81 82 84 87 91 94 95 95 93 88 89 88 86 88 92 91 88 88 90 84 84 85 85 82 83 83 78 81 85 87 85 84 85 85 85 85 85 84 84 87
73 65 78 82 85 80 80 78 77 76 77 83 82 86 91 93 94 94 91 90 84 88 86 84 85 87 89 84 78 83 87 87 86 79 82 85 86 84 85 83 84 84 84 86 84 84 85 85 83
71 82 86 86 85 80 79 81 73 71 79 87 89 91 91 91 93 94 92 90 91 83 87 88 88 87 86 74 77 88 83 87 88 85 85 82 83 80 82 85 85 81 85 78 83 79 77 89 88
84 87 88 88 86 82 80 77 71 71 84 90 90 91 90 92 94 95 95 94 86 78 90 88 88 84 82 73 77 74 78 85 89 88 86 86 82 84 85 84 85 82 85 82 81 80 84 86 89
93 84 88 86 85 82 76 72 75 73 84 85 87 89 91 93 94 94 93 91 92 92 90 90 89 88 89 83 78 75 74 78 82 87 89 84 85 83 85 84 86 84 82 82 80 77 80 81 86
90 84 89 82 82 80 80 69 67 75 82 83 87 89 91 93 95 93 93 90 92 93 91 89 90 90 86 89 84 76 75 77 88 86 88 89 87 85 79 83 81 84 86 85 84 82 85 84 87
86 86 75 84 84 84 81 63 66 73 77 81 87 89 90 92 94 95 94 92 92 92 88 90 94 90 88 88 84 74 75 74 72 84 85 88 88 88 85 85 81 86 86 82 83 81 81 83 84
83 75 77 78 88 78 75 61 65 73 77 82 86 88 90 90 92 94 95 94 93 90 88 89 90 90 88 88 85 83 75 76 80 83 82 86 88 88 84 83 83 86 82 82 81 76 81 83 83
75 77 79 77 81 77 69 63 67 69 70 80 85 87 88 88 90 93 94 94 94 91 89 90 90 86 87 87 87 84 88 83 81 75 80 84 83 86 79 82 85 86 83 80 77 79 82 84 83
85 83 79 81 82 76 72 65 66 70 74 81 84 86 87 87 90 93 94 95 93 91 88 88 86 85 85 86 85 82 85 86 85 75 82 82 85 86 79 80 85 86 79 82 82 85 85 83 86
83 79 79 74 79 74 70 65 69 69 71 78 83 85 83 82 86 90 92 93 92 88 87 86 84 84 85 86 82 80 76 83 84 84 86 87 88 87 86 82 85 84 82 85 85 84 79 83 86
83 82 76 63 78 73 69 59 62 64 67 69 83 87 87 83 81 90 91 91 91 87 86 86 84 84 85 87 81 74 77 81 81 82 84 87 87 88 86 86 85 82 83 83 85 85 83 80 84
78 88 78 77 72 63 74 53 65 66 64 64 75 80 84 84 82 90 91 91 91 88 89 86 86 84 85 82 85 82 80 75 82 82 84 86 85 87 87 88 87 86 82 82 84 85 83 83 80
81 90 85 86 80 69 71 68 64 66 61 64 70 81 83 85 84 88 90 90 92 91 90 87 85 84 85 84 84 80 72 67 75 75 84 84 83 84 89 87 87 84 74 79 84 86 84 80 80
90 84 85 83 81 66 72 73 61 57 60 77 80 82 83 85 86 88 88 92 90 93 91 88 84 83 84 85 83 82 76 72 74 77 80 81 85 86 85 88 86 84 78 82 86 86 86 82 81
85 78 66 64 66 66 78 73 65 64 66 63 72 71 76 80 84 88 89 90 88 90 90 88 83 82 84 84 85 84 83 73 73 79 81 79 82 84 83 84 85 84 85 83 85 86 85 84 83
80 78 69 57 61 68 78 61 64 72 68 66 72 73 75 73 71 82 88 84 86 88 89 87 83 82 84 85 84 84 84 80 81 84 81 77 76 75 82 84 85 85 85 85 85 84 84 85 84
78 73 84 75 77 72 65 64 69 73 70 69 68 70 72 75 83 73 83 88 86 85 83 87 84 83 84 85 84 84 85 85 87 88 87 87 75 80 85 85 85 86 85 86 84 84 84 84 84
79 85 71 74 60 60 62 62 62 64 64 65 63 64 67 72 74 80 76 74 75 75 74 81 86 84 84 86 84 86 85 85 86 87 87 88 81 74 75 73 84 87 86 87 84 82 84 83 84
75 73 76 78 75 65 56 56 72 70 67 63 62 63 65 68 71 71 72 72 73 73 70 70 75 84 83 86 86 85 86 86 86 86 88 86 88 77 72 72 74 85 86 86 84 82 84 83 82
82 77 78 68 65 72 57 53 69 72 71 67 64 63 66 68 71 72 72 69 67 69 69 68 69 70 73 78 84 85 85 86 86 86 87 87 86 87 80 76 82 81 85 84 83 83 85 82 82

GFSSGP_sfc_temp_105.txt.gz
Temp
81 81 81 75 61 60 60 68 81 77 78 85 87 80 76 79 73 59 80 82 82 80 81 82 82 83 83 83 83 83 83 83 83 83 83 83 84 83 83 84 83 84 84 84 84 84 84 84 83
82 83 78 68 58 55 59 74 74 78 81 82 83 79 75 70 80 78 77 83 83 81 80 81 82 83 83 83 83 83 83 83 83 83 83 83 84 84 84 84 84 84 84 84 84 84 83 83 84
82 86 67 63 59 58 57 70 78 82 82 82 81 84 79 73 82 81 84 84 83 82 81 81 82 83 83 83 83 83 83 83 83 83 83 83 84 84 84 84 84 84 84 84 84 84 84 84 84
80 74 69 61 58 71 73 78 83 79 83 84 82 74 83 87 83 85 87 87 82 80 81 82 83 83 83 83 83 83 83 83 83 83 84 84 84 84 84 84 84 84 84 84 84 84 84 83 83
79 70 61 59 66 75 79 83 82 79 80 81 82 74 77 86 89 88 87 85 81 79 80 81 83 83 83 83 83 83 83 83 83 83 83 84 84 84 84 84 84 84 84 84 84 84 83 83 83
69 69 61 59 69 77 78 83 81 79 80 81 78 76 78 88 88 88 88 84 82 80 80 81 83 83 83 83 83 83 83 83 83 84 83 84 84 84 84 85 85 85 85 85 84 83 83 83 83
67 65 61 65 68 71 76 82 77 79 79 79 82 73 78 85 90 90 86 85 84 82 80 79 80 83 83 83 83 83 83 83 83 84 83 84 84 84 84 84 85 85 85 85 84 83 83 83 83
76 67 66 66 66 67 78 77 81 77 77 88 86 72 73 83 89 89 87 86 84 82 81 79 78 78 77 79 84 83 83 83 83 84 84 84 84 84 84 83 84 85 85 85 84 83 83 83 83
76 61 59 65 68 70 77 75 81 77 83 83 86 83 86 88 90 86 83 84 82 82 79 80 79 78 77 78 82 82 83 83 83 83 84 82 76 79 80 83 84 85 85 85 84 83 83 83 84
69 59 60 71 76 72 76 77 77 78 80 80 82 87 89 88 85 81 80 78 79 79 82 81 77 80 80 84 76 76 78 77 75 77 77 75 76 76 81 82 85 85 85 85 84 84 84 84 78
72 61 67 70 76 77 77 75 78 75 73 78 78 82 86 84 82 79 80 81 81 82 78 80 79 78 75 75 75 74 76 76 76 76 74 75 77 76 76 76 78 76 82 79 82 80 79 80 79
72 74 72 80 79 79 75 77 69 72 68 83 85 86 86 83 83 81 83 80 80 79 78 78 81 72 72 72 73 73 74 75 76 76 76 76 78 74 74 75 74 76 76 75 76 74 75 80 83
79 78 71 82 76 72 78 72 69 70 77 87 88 87 84 83 87 85 83 81 80 78 79 76 72 71 72 69 71 72 72 77 78 78 79 78 77 75 76 76 77 74 76 74 75 76 75 77 84
86 76 68 79 76 75 72 70 74 73 78 85 86 84 84 84 88 85 80 79 78 81 81 78 71 71 71 68 71 70 72 72 78 79 82 79 78 77 79 77 78 78 80 77 72 75 75 77 80
85 76 74 78 76 74 75 67 68 74 79 82 84 84 85 85 87 85 81 79 81 82 82 80 75 75 71 71 74 72 72 74 77 79 82 80 80 77 78 76 80 77 78 78 75 74 78 77 81
78 73 59 71 76 76 74 58 69 73 72 71 81 84 85 86 86 85 85 83 85 83 81 83 88 79 76 72 71 71 72 71 70 79 80 81 80 81 77 79 78 78 78 76 76 77 73 77 77
70 65 66 71 78 73 71 60 68 72 70 68 78 83 84 85 84 85 86 84 83 82 80 79 83 80 78 72 72 70 71 72 72 76 76 81 81 81 77 77 77 77 78 77 76 74 75 76 80
61 64 66 67 74 73 65 63 68 70 68 67 77 81 82 85 82 85 86 86 84 81 81 80 81 79 79 77 73 72 72 73 73 74 77 79 78 79 76 76 77 77 75 75 73 75 79 79 79
74 72 69 75 76 67 63 61 66 68 67 67 77 77 79 82 83 86 87 86 84 81 80 78 78 77 77 76 74 74 73 73 72 73 79 80 78 79 75 75 76 77 76 76 77 76 76 77 77
74 72 64 66 70 65 63 60 65 67 67 67 72 77 80 78 80 83 84 84 83 79 79 77 77 77 77 76 77 76 72 74 75 76 78 79 79 79 78 76 77 77 75 76 77 77 75 75 77
71 65 64 65 64 63 62 58 59 66 67 66 69 75 83 78 79 81 83 82 82 79 78 77 77 77 77 75 74 72 72 74 74 75 75 78 81 81 79 78 77 77 76 76 77 77 75 72 76
62 78 69 63 59 52 65 46 56 62 63 64 66 68 75 78 84 83 81 81 81 81 81 77 77 77 78 78 74 74 71 71 72 75 78 77 80 80 81 80 79 77 75 75 76 80 76 75 73
72 78 70 66 58 61 60 51 56 62 60 63 65 66 71 79 81 79 83 83 83 83 81 79 77 76 78 77 75 73 70 68 71 72 75 76 78 80 82 80 79 76 73 75 76 77 76 75 75
85 79 72 62 55 49 59 57 52 57 61 62 65 68 71 78 81 83 88 86 83 84 82 80 77 75 77 77 77 73 71 69 70 72 73 74 75 77 79 81 78 77 76 76 77 77 78 76 76
76 63 51 51 46 50 64 58 55 60 62 61 62 66 72 76 82 80 81 84 84 83 81 80 77 74 76 77 77 74 73 73 72 73 73 73 74 74 76 77 77 76 76 77 77 77 77 77 76
65 63 52 48 50 54 64 49 53 65 65 65 65 66 70 71 72 73 74 77 78 83 81 81 77 76 76 77 76 74 73 71 73 73 74 72 72 73 75 77 78 77 78 78 78 77 76 77 76
66 58 69 54 58 53 51 57 64 65 64 65 64 65 65 67 68 72 70 72 77 76 81 80 78 77 77 77 76 75 74 73 74 74 76 72 73 76 76 77 77 77 78 78 77 76 76 76 76
64 68 56 55 45 44 49 55 53 57 60 62 62 63 63 66 68 68 68 70 72 72 72 71 71 70 76 79 77 76 76 76 76 77 76 73 75 73 73 74 76 77 78 78 77 76 77 76 77
63 58 57 58 55 48 45 46 62 59 59 60 61 63 66 65 66 66 66 67 68 70 69 70 68 67 68 68 71 76 76 76 77 76 75 76 74 73 73 73 74 74 78 79 76 76 77 76 75
67 63 60 51 50 56 51 47 61 62 61 60 60 63 67 68 67 66 66 66 66 67 67 68 69 68 67 68 70 74 75 76 76 76 78 76 73 72 72 72 73 74 76 77 77 76 79 76 76

GFSSGP_sfc_temp_108.txt.gz
Temp
80 81 79 73 60 60 60 66 74 74 76 81 80 78 72 74 70 58 75 78 79 78 80 82 82 83 82 82 82 82 82 82 83 83 83 83 83 83 83 83 83 83 84 84 84 84 84 83 83
79 81 73 67 58 55 60 72 69 75 78 82 80 78 73 66 76 72 72 78 80 78 78 80 82 82 83 82 83 83 83 83 83 83 83 83 83 84 84 84 84 84 84 84 84 84 84 84 84
81 83 66 62 57 57 60 71 73 78 81 80 76 80 75 68 75 74 78 80 79 77 77 80 82 82 83 83 82 83 83 83 83 83 83 83 83 84 84 84 84 83 84 84 84 84 83 84 84
78 70 67 59 57 63 68 73 77 77 79 81 78 70 78 82 78 79 80 80 78 77 79 82 82 83 82 83 83 83 83 83 83 83 84 83 84 84 84 84 84 84 84 84 84 84 84 84 84
73 68 59 59 62 67 72 78 78 75 77 77 77 70 71 80 82 81 81 80 76 76 79 81 82 83 83 83 83 83 83 83 83 83 83 84 84 84 84 84 84 84 84 84 84 84 83 84 84
67 67 58 57 67 72 76 80 78 75 76 76 74 72 70 81 80 81 81 78 79 77 78 80 83 83 83 83 83 83 83 83 83 83 84 84 84 84 84 84 84 84 84 84 84 84 82 82 84
66 63 61 66 66 68 74 82 76 75 75 74 80 69 73 78 81 81 79 79 79 79 78 77 79 82 83 83 83 83 83 83 83 83 83 83 84 84 84 84 85 85 84 84 84 83 83 83 83
69 65 58 62 65 64 76 77 79 77 74 84 83 69 68 78 82 80 79 78 77 77 77 76 76 76 76 78 83 83 83 83 83 84 84 84 84 84 84 83 84 85 84 84 84 83 83 83 83
76 60 56 61 67 64 76 75 75 78 79 81 83 80 82 83 82 78 76 76 76 77 75 76 75 74 75 77 81 82 83 83 82 83 84 80 75 78 79 83 84 85 84 84 84 83 83 83 84
68 58 62 68 68 68 72 75 72 76 76 77 79 82 83 82 81 77 74 73 74 73 75 76 75 74 76 82 75 75 78 75 74 75 75 74 73 74 79 82 85 85 84 84 84 84 84 83 78
68 61 70 72 72 71 74 73 78 74 69 76 73 78 81 80 79 77 76 76 75 76 77 76 75 75 75 74 73 73 73 74 74 75 73 73 75 74 73 75 77 76 82 78 80 78 78 78 78
66 76 74 77 77 73 72 75 70 72 72 82 82 82 81 80 78 78 77 76 77 77 77 77 76 72 70 72 72 72 72 73 74 73 73 72 72 72 72 73 73 73 74 73 75 73 75 76 78
71 75 77 77 76 77 77 72 69 71 79 84 85 81 80 79 79 81 80 79 78 74 74 73 73 70 69 71 71 71 72 72 75 74 75 73 73 73 73 74 74 73 73 72 73 73 74 76 78
79 75 76 74 71 77 72 71 73 72 77 81 84 82 80 79 80 79 78 77 77 77 73 72 73 72 69 69 71 70 71 72 74 76 77 75 75 73 73 73 74 72 74 74 73 73 73 75 77
77 65 71 72 70 71 73 64 69 75 77 80 83 82 81 82 80 78 78 77 78 78 74 73 73 72 69 70 72 70 72 73 74 75 78 78 76 75 74 74 74 75 75 75 75 75 75 75 78
69 64 59 70 68 72 70 58 68 73 75 75 82 82 80 80 80 80 79 78 79 78 74 74 81 73 70 71 71 70 71 71 71 73 76 78 77 76 75 75 74 75 75 74 75 73 72 75 75
60 54 57 60 69 69 66 58 66 71 73 74 77 78 79 79 79 80 81 80 80 79 77 76 74 74 73 72 70 69 71 70 71 73 74 78 78 78 76 76 74 75 75 75 75 72 73 74 74
55 59 58 62 68 69 62 61 65 68 70 71 74 73 79 80 79 81 82 82 81 80 77 78 77 74 73 71 70 70 71 72 72 73 75 76 76 77 75 76 75 75 74 73 72 74 75 75 75
63 67 67 68 68 66 60 59 62 66 69 69 70 70 77 80 82 82 82 82 81 78 76 76 75 73 73 70 70 69 69 71 71 72 77 77 76 77 74 73 75 75 74 73 75 78 74 75 74
65 64 60 63 66 63 60 59 63 66 67 69 69 71 75 78 78 80 79 81 80 76 76 75 76 74 75 75 73 73 72 72 72 72 76 77 77 77 75 74 75 75 74 75 75 76 73 72 74
64 59 59 61 64 64 61 58 58 64 68 67 68 70 74 77 77 77 78 79 79 76 75 76 75 75 74 74 72 71 71 71 72 73 73 75 78 78 77 76 75 75 74 73 74 75 74 71 73
56 72 71 62 60 51 62 49 54 61 63 65 66 68 71 78 80 79 78 78 79 77 79 77 76 74 74 73 72 73 70 69 71 71 73 75 78 77 78 77 76 74 74 73 74 76 74 73 71
67 73 66 65 57 56 55 50 50 61 60 63 65 68 70 74 79 78 78 79 80 79 79 78 76 73 75 74 72 71 70 70 70 72 74 73 74 77 79 77 76 74 72 74 75 75 73 73 73
76 68 62 58 52 46 57 51 51 55 60 65 67 67 71 71 75 76 80 80 80 81 79 78 75 72 74 75 73 71 70 69 69 71 72 72 73 75 76 78 77 75 74 74 75 75 75 74 74
71 59 44 43 45 44 54 54 52 60 64 66 65 66 68 70 71 74 75 78 78 78 78 77 74 71 74 75 73 72 69 69 72 72 71 71 72 73 74 75 75 74 75 75 75 75 75 74 74
62 61 47 41 42 46 59 51 57 62 63 64 66 66 68 71 69 71 74 77 77 79 79 78 74 72 74 74 74 72 72 71 73 73 72 72 72 72 74 75 76 76 76 76 75 74 74 74 74
61 59 62 52 56 49 50 55 60 62 61 64 63 65 65 66 68 69 71 72 73 75 78 78 75 72 73 74 73 72 72 72 73 73 73 73 72 74 75 75 75 76 76 76 75 74 74 74 74
66 69 58 56 45 44 47 51 51 57 59 61 61 61 63 65 66 68 69 68 70 70 73 74 72 69 68 69 70 73 72 72 72 71 72 72 73 74 74 74 75 75 76 76 75 73 74 74 74
60 56 58 55 51 45 41 48 59 59 60 58 61 62 62 64 64 66 67 68 68 69 69 69 68 67 67 68 69 70 72 74 73 73 73 74 73 72 72 74 73 74 75 75 74 73 75 74 73
62 57 53 50 51 46 44 48 59 59 59 61 62 64 64 64 64 64 65 66 67 67 68 68 67 68 68 69 69 70 72 73 73 74 73 73 73 72 73 72 71 72 74 75 74 74 77 75 74

GFSSGP_sfc_temp_111.txt.gz
Temp
80 81 78 72 60 59 59 62 71 69 70 75 77 73 70 70 67 57 71 75 77 77 78 81 82 82 82 82 82 82 83 83 83 83 83 83 83 83 83 83 83 84 84 84 84 84 84 84 84
78 80 73 66 58 55 57 69 67 73 77 78 77 76 71 64 71 70 70 77 78 77 76 78 81 82 82 82 82 82 83 83 83 83 83 83 83 84 83 84 84 84 84 84 84 84 84 83 84
80 76 65 61 58 56 57 69 70 76 79 77 73 77 72 66 72 71 75 78 78 75 76 79 82 82 82 82 83 83 82 83 83 83 83 83 83 84 84 84 84 84 84 84 84 84 84 84 83
75 68 66 59 57 66 68 72 75 75 78 79 74 67 75 77 75 75 78 78 75 74 77 81 82 83 82 82 83 83 83 83 83 83 83 84 84 84 84 84 84 84 84 84 84 84 84 84 83
71 67 59 58 62 67 72 77 76 72 74 76 76 67 68 75 78 77 77 77 74 73 77 79 82 82 83 82 83 83 82 83 83 83 83 84 84 84 84 83 83 84 84 84 84 84 84 84 84
66 66 58 57 62 72 75 77 75 73 73 73 71 69 66 76 75 76 77 75 77 76 76 78 82 82 83 82 83 83 83 83 83 83 83 84 84 84 84 84 84 84 84 84 84 84 84 84 84
66 63 57 63 64 67 72 77 73 71 72 71 76 65 66 72 76 78 76 76 77 77 76 76 78 81 83 83 83 83 83 83 83 83 83 83 84 84 84 84 84 84 84 84 84 83 83 83 83
69 63 58 60 64 63 75 72 76 74 71 80 79 64 62 72 77 76 76 75 74 75 75 74 75 75 76 77 83 83 83 83 83 83 83 83 84 84 84 83 84 84 84 84 84 83 83 83 83
75 59 56 60 62 61 74 71 77 81 75 78 79 75 76 77 77 74 72 72 73 74 73 73 73 73 74 76 80 82 83 83 83 82 83 80 75 77 78 82 84 84 84 84 84 84 83 84 84
67 57 60 69 69 66 70 74 75 74 74 71 74 77 78 76 74 71 70 69 70 71 72 72 72 73 74 80 74 74 76 74 74 74 73 72 73 74 78 81 84 84 84 84 84 84 84 82 76
67 61 70 72 73 73 70 72 76 72 68 72 71 72 75 75 74 72 71 71 71 73 74 72 72 73 73 73 72 72 72 73 72 73 72 73 73 73 73 73 73 74 80 76 78 77 77 78 76
63 72 74 73 72 70 70 74 71 72 68 79 77 76 75 74 73 72 72 73 72 73 74 73 73 72 73 72 72 72 72 72 72 72 72 71 71 71 72 72 72 72 73 73 73 72 73 75 76
68 72 76 76 74 73 74 70 70 69 74 80 79 78 76 75 75 75 76 75 75 72 73 72 72 70 71 71 71 71 72 72 73 72 72 71 71 71 71 72 72 72 72 71 72 72 73 75 75
74 72 74 74 73 72 67 66 68 72 78 78 78 76 76 76 76 76 75 74 74 74 74 72 71 70 70 69 71 69 71 72 72 72 73 73 72 70 70 72 73 71 72 72 71 72 73 74 75
71 64 71 71 71 69 73 67 67 73 79 76 77 76 77 77 78 75 76 75 75 74 74 72 72 70 69 69 71 70 71 73 74 75 75 75 73 72 72 72 72 72 73 74 73 74 73 73 76
64 63 59 69 69 69 69 57 68 73 75 74 77 77 76 77 77 77 78 76 76 74 72 73 79 72 68 69 70 71 71 70 71 72 74 75 75 74 73 72 72 73 73 73 73 71 71 74 74
59 51 56 63 71 69 66 57 64 72 74 73 77 77 76 76 77 76 78 77 76 75 73 73 73 70 70 70 69 69 70 70 70 72 73 76 76 76 73 73 73 74 73 73 73 72 72 72 73
52 53 55 59 66 68 61 59 64 69 71 71 74 77 76 76 76 77 78 78 77 74 73 73 73 72 71 70 68 69 69 70 71 72 72 74 75 76 74 73 74 74 71 73 71 72 73 72 72
60 58 60 63 69 65 61 58 62 65 70 69 70 71 74 74 78 79 78 79 77 75 73 72 72 70 71 69 68 68 68 70 71 71 74 75 75 75 74 73 74 73 73 72 74 73 72 73 72
61 59 55 62 64 62 59 60 60 64 64 67 67 68 74 75 75 75 77 78 76 75 74 72 72 70 71 72 71 71 70 71 71 72 74 75 76 75 75 73 73 73 73 73 73 73 71 71 72
57 60 58 58 64 66 61 57 60 64 66 68 68 70 71 75 73 75 75 77 75 74 73 73 72 72 72 73 71 70 71 71 71 71 72 73 76 76 75 75 73 73 73 72 73 73 72 71 71
49 67 67 61 56 51 61 49 56 58 60 65 67 67 67 71 73 75 76 76 75 76 76 75 73 72 73 72 72 71 70 68 70 71 72 73 76 75 77 75 75 74 72 72 73 75 72 71 70
61 72 68 62 54 51 53 50 50 58 57 62 65 68 69 69 74 75 76 78 77 78 76 76 72 72 72 71 71 70 70 69 70 71 72 72 73 75 76 75 75 72 71 73 74 74 73 72 72
70 63 58 54 51 46 52 55 49 55 59 63 68 69 68 71 71 72 78 80 78 78 77 77 72 71 72 73 71 71 71 69 69 70 71 71 71 73 75 75 75 73 72 73 74 74 73 73 73
63 51 42 43 42 43 49 52 54 59 64 65 66 66 68 68 68 72 72 78 76 75 76 76 71 70 71 73 71 71 70 70 70 71 71 70 70 71 73 73 73 73 73 73 74 73 73 73 73
56 55 46 40 40 44 50 48 52 60 63 63 67 70 67 67 69 69 71 74 77 76 75 76 71 70 71 72 72 71 70 68 70 71 71 71 71 72 73 73 74 74 74 74 73 73 73 73 73
58 55 59 48 45 48 48 55 60 61 60 61 62 64 65 67 69 69 71 72 74 73 75 76 73 70 71 72 72 71 70 71 71 71 72 71 72 73 73 74 74 74 74 74 73 72 73 73 73
63 64 52 48 41 42 45 48 51 54 57 61 59 61 62 65 68 69 70 70 70 71 73 74 72 70 69 71 71 72 71 71 71 70 71 72 71 72 72 73 74 74 74 74 73 72 73 73 72
58 53 51 52 47 44 41 45 57 57 57 58 60 63 62 64 66 67 68 69 68 69 69 68 68 68 67 69 70 70 71 72 71 71 71 71 71 71 72 72 73 74 74 74 73 72 73 73 72
57 51 51 48 46 45 43 49 58 60 59 59 59 61 64 65 65 66 66 67 67 68 67 67 67 67 68 68 69 69 69 70 71 72 73 73 71 71 71 71 72 72 73 74 73 73 75 73 72

GFSSGP_sfc_temp_114.txt.gz
Temp
79 81 78 71 59 58 58 63 69 65 66 72 74 71 67 67 64 55 69 73 76 76 77 80 82 83 83 83 82 83 83 83 83 83 83 83 83 83 83 83 84 84 84 84 84 84 84 83 83
78 79 73 66 56 55 55 66 63 69 73 75 74 73 68 62 70 69 70 76 77 76 76 78 81 82 82 82 82 83 83 83 83 82 82 82 83 83 83 84 84 84 84 84 84 84 84 84 83
79 77 65 58 57 54 55 65 68 73 75 74 71 74 70 66 72 72 73 76 76 74 76 78 82 82 82 82 82 82 83 83 83 83 83 83 83 84 84 83 84 84 84 84 84 84 83 83 83
73 68 66 58 56 63 65 68 72 72 76 75 72 65 70 76 73 73 76 77 74 74 76 81 82 83 83 83 83 83 83 83 83 83 83 83 84 84 84 84 84 84 84 84 83 84 84 83 83
72 67 59 59 61 67 71 75 76 71 72 73 73 64 64 72 75 76 75 76 73 73 76 79 82 82 82 83 83 83 83 83 83 83 83 84 83 84 84 84 84 84 84 84 84 84 84 84 83
66 66 58 57 63 69 72 75 73 70 71 71 69 66 64 73 73 74 75 73 74 74 75 78 82 82 82 83 83 81 83 83 83 83 83 84 83 83 83 84 84 84 84 84 84 84 83 84 84
64 62 57 60 63 66 69 75 71 70 70 69 74 61 67 69 73 74 73 74 75 75 74 76 77 81 83 83 83 83 83 83 83 83 83 83 83 84 84 84 84 85 84 84 84 83 83 83 83
67 62 59 61 61 63 72 72 72 73 69 77 76 61 63 69 74 74 73 73 73 74 74 74 75 76 76 78 83 82 82 83 83 83 83 84 83 83 82 83 83 84 85 84 84 83 83 83 83
71 58 56 59 59 62 73 70 76 78 73 75 76 71 72 74 74 71 71 71 72 74 72 73 73 74 75 77 80 81 83 82 83 82 82 78 76 78 79 83 84 84 84 84 84 83 83 83 83
66 57 60 66 67 64 72 74 73 73 70 69 68 72 74 73 72 70 71 71 72 72 72 72 73 73 75 79 75 74 76 75 74 75 74 74 75 76 79 81 84 85 84 84 84 84 84 82 79
67 60 69 70 72 71 73 73 75 70 66 70 65 68 70 71 70 70 70 71 71 72 72 72 72 73 74 73 73 73 72 73 73 73 73 74 74 74 74 74 75 75 79 77 79 78 79 79 78
63 70 72 73 74 70 69 74 70 70 70 75 72 72 71 70 69 70 69 70 70 71 72 72 72 72 72 72 72 72 72 72 73 73 74 73 73 74 74 74 73 74 75 75 76 75 75 77 78
64 71 74 73 74 72 75 70 68 67 73 77 75 73 71 71 71 72 72 73 71 70 72 72 72 71 72 72 71 72 72 72 74 73 74 73 73 73 74 73 74 74 74 74 75 74 75 76 78
70 70 72 72 70 71 70 65 66 68 74 74 73 71 72 72 72 72 72 71 71 72 72 72 72 71 71 71 72 71 72 73 73 73 74 74 74 73 73 74 74 74 74 75 74 74 75 76 78
70 63 69 69 68 65 67 61 61 72 75 73 72 73 74 74 74 73 74 72 73 72 73 71 71 70 70 71 72 71 73 74 73 73 75 75 75 74 74 73 74 74 75 76 76 75 76 77 79
63 61 58 66 66 67 66 56 66 72 72 71 73 73 74 74 74 75 76 73 74 73 71 72 77 71 70 70 71 72 72 72 73 74 75 76 76 76 75 75 75 76 75 75 75 75 75 77 78
56 50 55 61 68 66 64 57 67 73 71 70 71 73 73 72 73 74 76 75 74 73 72 72 73 70 70 70 71 71 72 72 72 74 74 76 76 77 76 75 75 76 76 76 75 76 76 76 76
52 51 52 57 63 65 63 59 64 71 71 70 69 73 72 72 72 75 76 76 75 73 72 72 72 70 69 70 69 69 71 71 72 74 74 76 76 77 76 75 76 76 74 75 75 76 76 76 75
59 56 55 61 67 63 60 58 63 65 69 68 69 72 73 72 74 75 76 77 75 73 71 71 70 70 70 69 68 68 69 70 72 73 75 75 76 77 75 75 76 76 76 76 77 76 75 76 75
58 56 53 61 64 62 60 59 61 65 67 69 69 67 72 73 71 72 74 75 74 72 72 70 71 70 71 71 70 70 70 72 73 73 75 76 76 76 76 75 76 76 76 76 76 75 75 76 75
54 53 53 57 61 63 62 58 60 63 64 69 68 69 70 72 72 73 73 74 74 72 72 71 71 71 72 73 71 71 72 72 72 72 74 76 76 77 76 76 75 76 76 76 76 76 75 75 75
47 64 63 59 55 49 59 48 56 60 60 64 66 67 67 69 72 72 73 74 74 74 74 72 72 71 72 72 72 72 71 70 71 72 74 75 77 76 77 77 76 76 76 76 77 77 76 75 74
59 67 62 61 52 50 52 48 53 59 57 60 66 67 67 69 71 73 74 75 76 76 74 74 71 71 72 72 72 72 71 71 72 72 73 74 75 76 78 76 76 75 75 76 77 77 76 76 76
67 61 56 52 50 43 50 50 49 55 59 61 66 69 67 69 70 72 74 73 74 76 75 74 71 71 72 72 72 71 71 71 71 72 72 72 74 75 76 77 76 76 76 76 76 77 77 76 76
58 51 42 40 42 42 46 49 50 56 62 64 66 68 69 69 69 70 71 73 75 73 73 74 71 70 72 72 72 71 71 71 72 72 72 72 73 73 75 76 74 75 76 76 77 77 77 77 76
54 53 44 38 38 43 50 46 52 59 61 66 68 70 69 67 68 69 71 73 75 74 73 74 71 70 71 72 72 72 71 71 71 72 73 73 72 74 76 75 75 76 77 76 77 77 77 77 77
55 51 55 46 42 43 46 52 58 60 60 63 66 68 65 68 69 70 70 71 73 74 73 73 71 70 71 72 72 71 70 70 71 72 73 73 74 76 76 76 76 76 76 76 76 76 77 77 77
58 61 50 45 39 38 44 47 48 55 58 61 62 63 65 67 69 70 70 70 71 72 73 74 71 70 71 72 72 71 71 72 72 72 72 73 74 75 75 75 76 76 76 76 75 76 76 77 77
55 51 49 49 45 41 39 45 57 57 60 60 62 61 62 65 67 68 69 69 69 70 72 72 71 69 70 71 72 71 72 73 72 71 70 72 74 74 74 73 74 75 75 76 75 75 76 76 76
53 49 49 46 43 42 43 44 59 60 61 62 62 63 62 63 65 67 67 69 68 68 68 67 67 68 68 69 70 70 71 72 73 73 73 72 72 73 74 74 74 75 75 76 76 76 77 76 76

GFSSGP_sfc_temp_117.txt.gz
Temp
83 84 79 72 63 65 64 66 74 69 70 78 79 76 73 71 69 67 81 82 85 85 87 86 81 83 83 82 83 83 83 83 83 83 83 83 83 83 83 83 84 83 84 84 84 84 83 83 83
84 81 74 72 64 61 61 72 70 73 78 81 80 77 74 65 74 74 77 83 86 87 88 87 80 83 83 83 83 83 83 83 83 83 83 83 83 83 83 84 84 84 84 84 84 84 84 84 83
80 81 70 67 60 62 63 72 74 77 80 78 74 79 74 67 75 77 83 84 86 85 86 85 82 82 82 82 82 83 83 83 83 83 83 83 83 83 84 84 84 84 84 84 84 84 84 84 83
74 73 70 66 63 68 70 76 78 77 79 78 78 69 73 80 78 81 84 85 85 86 87 84 82 83 83 83 82 83 83 83 83 83 83 83 84 84 84 84 84 84 84 83 84 84 84 83 83
73 68 63 65 66 70 75 79 81 77 77 76 77 67 68 77 82 83 84 85 85 87 87 87 83 83 83 83 83 83 83 83 83 83 83 84 83 84 84 84 84 83 84 84 83 84 84 83 83
67 70 61 61 66 72 76 79 80 78 76 75 74 72 69 78 80 81 85 85 87 87 87 86 83 82 82 83 82 83 83 83 83 83 83 84 84 84 84 85 84 84 85 84 84 84 84 84 83
66 68 59 64 66 69 72 80 75 75 76 74 79 70 69 74 81 83 84 85 86 87 84 85 86 85 82 83 83 83 83 83 83 83 83 83 83 84 83 84 85 85 85 84 84 84 84 83 83
72 67 61 61 66 65 74 75 76 77 73 81 82 68 65 74 81 83 84 85 86 85 84 83 84 84 84 87 83 83 83 83 83 83 84 83 84 84 84 83 84 85 85 84 84 84 83 83 83
74 62 57 60 66 65 76 70 76 82 78 79 79 79 80 79 82 81 80 81 82 83 84 85 86 85 84 86 85 83 83 83 83 83 81 83 86 88 89 84 84 85 85 84 84 84 84 84 84
73 61 61 66 68 69 73 74 76 76 75 71 74 78 79 79 79 79 79 78 81 80 83 85 85 85 85 86 83 84 84 86 84 84 84 86 85 86 88 86 84 85 85 85 84 84 84 85 92
73 64 70 71 75 75 74 75 77 74 70 74 73 74 76 78 79 79 79 80 79 81 83 83 83 83 83 82 83 85 85 85 85 83 83 84 85 85 86 86 88 88 84 91 90 90 92 89 90
69 74 74 76 75 75 72 74 73 72 73 81 79 78 78 78 79 80 80 80 79 80 82 82 82 81 81 83 84 83 84 85 85 84 83 84 86 84 85 86 85 85 88 86 87 88 86 88 88
73 75 77 79 76 75 76 71 68 67 78 80 79 78 78 79 79 81 81 82 81 80 81 81 81 80 81 80 82 83 83 85 85 85 84 85 86 84 85 84 87 86 88 88 86 86 87 88 89
78 77 75 74 76 75 69 66 67 68 77 77 78 78 79 79 80 80 80 80 80 81 82 82 81 81 81 81 81 82 82 84 85 86 86 84 87 85 86 85 87 86 88 88 86 85 88 89 91
78 72 72 72 74 69 68 60 63 72 77 76 77 78 79 80 81 80 81 81 82 82 83 82 81 81 80 81 82 83 84 86 86 86 84 84 85 85 84 86 87 87 88 86 87 87 89 92 93
72 72 65 69 72 69 69 58 65 73 73 71 76 78 78 80 81 83 83 83 83 83 81 82 84 82 80 80 82 84 84 85 85 86 88 85 85 84 85 88 88 88 88 88 88 88 89 90 92
68 64 66 65 72 67 64 65 68 72 70 69 72 77 79 79 81 83 84 83 83 83 82 81 82 81 81 80 81 82 82 84 85 87 88 85 85 85 87 88 87 87 89 88 88 89 87 88 90
65 66 67 67 69 70 66 66 71 73 68 71 70 75 79 79 81 83 83 85 85 83 82 82 82 80 78 80 79 82 83 84 85 86 87 85 86 86 86 87 87 88 89 89 88 85 88 88 87
72 70 67 68 72 70 67 67 70 70 68 68 68 74 78 79 83 84 82 85 84 83 81 81 80 79 79 79 80 81 82 83 84 86 84 85 85 85 84 88 87 88 88 86 86 88 85 89 87
71 69 64 66 69 69 67 66 70 72 70 72 68 70 73 79 80 81 81 83 83 82 81 80 79 78 79 81 80 82 82 84 86 84 84 85 85 85 86 85 87 85 88 85 85 85 89 88 86
70 69 65 66 67 69 68 62 64 70 71 71 68 70 73 77 80 81 81 83 84 82 81 81 79 78 79 81 81 80 81 80 83 83 84 85 85 85 85 85 86 86 87 88 86 86 84 87 87
67 73 71 66 66 62 66 57 60 65 67 68 67 67 70 75 79 83 82 83 83 83 84 82 80 79 80 80 81 79 81 79 81 82 83 84 85 85 85 85 85 85 88 85 87 88 86 86 86
69 73 73 70 65 65 62 63 64 63 62 65 69 70 69 73 77 80 83 84 86 85 84 83 81 79 80 80 81 82 79 81 85 82 81 82 82 85 86 85 85 85 88 86 86 86 85 87 87
73 70 68 67 64 57 65 65 62 59 65 69 73 75 72 72 77 81 83 83 84 85 84 84 81 79 80 79 80 80 81 80 79 81 83 81 85 85 84 85 85 85 85 85 87 85 85 85 86
69 69 55 53 54 57 63 60 68 68 70 72 72 74 76 71 78 79 79 81 82 83 83 84 81 79 80 81 80 80 80 81 80 81 80 79 84 83 83 84 83 85 84 85 85 85 85 86 86
68 70 63 51 54 61 61 58 66 67 70 74 76 76 73 74 76 78 81 83 82 81 82 83 81 80 81 81 81 80 80 82 82 83 85 85 85 81 85 83 83 85 85 85 85 87 89 86 88
67 62 74 63 61 61 61 63 67 66 68 71 74 74 70 74 75 75 80 82 83 79 81 82 81 80 81 82 81 80 79 79 81 81 82 85 84 83 84 84 84 85 85 85 84 87 85 86 86
73 76 64 65 53 53 55 58 65 61 65 70 72 73 74 75 75 75 77 79 81 79 83 83 81 80 81 81 82 80 81 80 80 80 81 82 82 84 84 84 84 85 85 85 83 85 85 84 88
68 68 67 70 65 59 55 60 65 66 67 66 72 75 75 74 74 75 74 78 79 79 78 81 80 79 80 81 80 79 79 81 81 81 80 81 81 82 83 83 83 84 84 84 83 83 84 83 84
69 66 68 64 57 63 63 62 66 67 69 69 68 70 75 77 76 75 74 74 76 76 76 76 80 79 80 82 80 79 80 80 81 80 81 81 81 81 81 82 83 82 83 83 83 83 86 83 83

GFSSGP_sfc_temp_120.txt.gz
Temp
86 87 83 76 70 78 72 73 82 78 79 86 87 83 80 80 78 71 93 94 94 94 92 89 83 83 83 83 83 83 83 83 83 83 83 83 83 83 84 84 84 84 84 84 84 83 83 83 84
91 84 84 83 70 69 71 80 76 81 85 88 86 84 82 74 84 85 87 93 94 95 94 92 81 83 83 83 83 83 84 83 83 83 83 83 83 83 84 84 84 84 84 84 84 84 84 84 83
85 85 81 74 76 70 71 81 81 84 87 85 81 87 82 75 85 87 93 94 96 94 91 88 82 83 83 83 83 83 83 83 83 83 84 83 84 84 84 84 84 84 84 84 84 84 83 84 83
79 78 82 69 71 75 79 83 85 84 85 86 84 76 81 90 87 91 93 95 95 95 96 84 83 83 83 83 83 83 84 83 83 84 84 83 84 84 85 84 84 84 84 83 83 83 84 84 84
76 80 73 71 73 79 85 87 88 83 83 84 84 76 78 85 92 93 93 96 96 97 95 91 83 83 83 83 83 83 84 84 83 84 84 84 84 84 85 84 84 84 84 84 84 84 84 84 83
75 81 69 68 72 79 84 88 88 84 83 83 81 79 76 87 90 92 95 96 98 96 94 92 83 83 83 83 83 83 83 84 83 84 84 83 84 84 85 85 85 85 85 85 85 85 83 83 83
73 75 70 75 72 74 79 89 84 83 82 83 88 78 75 86 92 94 95 96 97 97 92 88 92 86 83 83 83 83 83 84 83 83 83 84 84 84 85 85 85 85 85 85 84 84 84 84 83
78 76 70 74 72 71 81 82 85 85 81 89 90 76 72 82 91 95 95 95 96 95 93 89 90 91 91 90 83 83 83 84 83 84 84 84 84 85 85 83 85 85 85 85 85 84 84 84 83
83 72 62 69 73 73 83 74 82 88 84 86 86 88 86 86 92 92 91 91 91 93 93 95 94 92 92 91 87 84 83 83 83 84 83 85 88 94 92 85 85 85 85 85 85 85 84 84 84
84 76 63 73 76 77 80 79 82 82 82 81 85 88 87 89 89 88 88 88 90 89 90 93 87 92 93 94 89 89 91 93 89 91 90 91 92 91 92 88 85 85 85 85 85 84 85 87 99
81 72 70 71 79 85 75 76 85 82 79 83 81 83 85 87 88 88 89 90 89 90 93 94 90 89 87 86 90 93 94 93 89 88 91 92 93 93 95 94 94 95 87 97 95 97 99 96 97
78 79 79 81 81 82 80 82 80 80 81 90 88 87 87 87 89 90 90 89 88 89 90 91 90 86 88 91 93 93 93 93 93 91 90 90 92 91 92 94 93 93 95 93 94 96 94 96 95
80 83 82 85 77 76 81 71 72 72 85 90 89 87 87 88 89 91 92 91 89 88 89 89 89 87 87 86 90 92 90 94 93 92 92 93 93 90 93 92 94 94 97 95 94 95 95 96 97
86 84 82 83 79 79 70 72 73 70 86 86 86 87 88 89 90 89 89 89 88 89 89 90 89 88 87 88 87 88 91 91 93 94 91 90 94 92 92 93 95 94 96 95 95 92 95 96 98
87 78 79 78 77 72 74 63 64 70 85 83 85 87 88 89 90 88 89 88 90 91 90 89 89 90 87 87 88 91 91 94 93 93 90 90 93 90 91 93 95 95 94 94 95 96 97 98 100
82 82 72 74 73 68 67 61 69 79 83 82 85 86 86 88 89 90 91 90 91 92 88 89 92 90 88 86 89 92 92 93 93 94 94 91 91 90 91 95 95 94 96 97 96 96 97 97 99
80 74 72 70 79 70 72 63 69 79 80 80 84 86 87 87 89 90 92 91 91 90 88 88 89 89 88 86 89 89 88 92 93 95 95 91 91 91 95 96 93 94 97 96 97 96 96 96 98
74 77 78 73 77 74 70 69 73 72 70 74 80 83 86 87 89 90 92 92 92 91 89 88 89 87 86 88 87 90 91 93 94 94 95 91 92 91 94 93 92 96 98 96 95 91 95 96 96
82 79 77 78 80 75 69 72 73 69 68 67 71 77 87 87 91 92 92 92 92 91 88 87 87 85 86 87 88 89 89 90 92 93 91 90 91 91 91 95 93 96 94 91 92 96 92 96 97
80 78 77 75 78 77 73 72 75 74 70 70 71 80 85 87 87 88 90 92 91 89 88 87 86 85 85 88 89 90 91 92 93 93 91 92 91 91 91 91 94 90 95 90 91 90 95 96 94
79 78 76 75 75 78 75 66 70 73 76 76 71 75 78 81 88 89 88 90 91 90 88 87 86 86 85 87 88 87 88 84 85 89 90 91 91 92 91 91 91 92 92 95 91 92 89 93 94
76 81 78 76 74 64 78 59 67 72 72 75 77 68 73 83 88 92 91 90 91 91 91 89 87 85 85 85 87 85 87 85 88 86 91 92 91 91 91 90 91 90 95 91 94 94 92 90 93
77 81 80 79 76 75 73 72 75 76 68 71 76 72 73 77 88 89 91 92 93 92 92 90 87 85 86 85 85 87 86 89 89 90 86 88 88 90 92 90 90 90 94 91 91 91 89 95 94
82 79 79 78 77 67 76 74 71 72 72 74 75 80 79 76 87 89 92 93 93 94 92 91 87 85 85 84 84 83 84 87 88 87 87 89 91 91 89 91 90 90 92 90 92 91 89 89 90
79 77 66 63 65 66 78 72 77 80 79 79 79 79 82 78 83 85 87 91 90 91 91 91 87 84 85 86 85 85 84 86 85 85 87 87 89 92 88 89 89 91 89 90 91 90 90 91 91
76 78 69 57 63 69 75 67 78 83 83 84 85 83 85 80 80 80 88 90 89 90 90 90 87 85 86 86 85 85 85 85 84 87 92 91 92 91 90 89 90 90 90 91 90 92 94 91 94
76 71 83 74 77 71 73 76 76 78 79 80 82 83 81 80 76 86 90 91 91 90 89 89 88 86 87 88 86 86 86 85 83 86 88 90 90 91 90 90 90 90 90 89 89 92 89 91 90
80 83 71 72 60 59 69 70 77 73 77 79 81 82 83 79 78 84 87 89 91 91 90 90 89 87 87 88 88 88 88 87 87 85 85 87 89 90 89 89 90 89 89 90 88 91 90 88 92
76 74 76 79 75 66 64 70 80 78 79 79 82 83 84 83 83 83 86 86 89 88 87 89 89 88 88 88 88 87 88 88 87 88 87 87 88 88 88 88 89 89 89 89 87 88 89 87 88
81 79 79 69 66 72 72 67 79 79 80 81 82 84 86 85 83 77 81 84 85 85 85 84 87 88 89 89 87 87 87 88 88 86 86 88 85 86 87 88 88 88 89 89 88 88 91 88 88

GFSSGP_sfc_temp_123.txt.gz
Temp
84 86 91 85 70 69 75 77 87 83 84 93 92 88 84 84 80 71 97 97 97 92 92 89 82 83 83 84 83 83 84 84 83 83 83 83 83 83 83 84 84 84 84 84 84 84 84 84 84
96 92 88 78 66 64 74 84 81 85 90 92 91 87 83 80 90 90 92 97 93 94 93 92 82 83 83 84 84 84 84 84 83 83 84 83 84 84 84 84 84 84 84 84 84 84 84 84 83
92 92 79 71 66 68 74 84 85 88 92 91 86 89 87 83 91 93 98 94 91 91 89 88 83 83 84 84 84 84 84 84 84 83 84 84 84 84 84 84 84 84 84 84 84 84 84 84 83
84 83 86 69 71 82 83 87 89 87 91 89 89 80 91 95 94 96 100 99 92 93 95 85 83 84 84 84 84 84 84 84 83 84 84 84 84 84 84 84 84 84 84 84 84 84 84 84 83
78 79 72 64 77 86 89 90 91 82 87 86 86 81 83 93 98 98 99 101 99 88 95 90 83 83 83 84 84 84 84 84 84 84 84 84 84 85 84 84 85 84 84 84 84 84 84 83 83
79 86 68 68 78 86 88 92 87 84 87 88 86 83 80 95 96 98 101 99 96 97 97 92 84 83 84 84 84 84 84 84 84 84 84 84 84 84 85 85 85 84 85 85 84 84 84 83 83
74 67 70 77 78 80 84 94 87 84 84 86 91 79 86 92 97 100 101 101 94 94 94 93 91 86 84 84 84 84 84 84 84 84 84 84 84 85 85 85 85 85 85 85 84 84 84 83 83
79 79 74 76 73 76 87 89 90 84 82 96 93 79 82 92 98 101 100 101 88 94 93 86 91 91 90 89 84 84 84 84 84 84 84 84 84 85 85 84 85 85 85 85 85 84 84 84 83
88 70 69 75 77 77 86 82 90 93 89 91 92 90 93 96 99 98 96 97 96 92 91 93 95 94 94 90 88 85 84 84 84 85 84 85 90 92 91 85 85 85 86 85 85 85 85 84 84
83 69 73 78 86 83 83 82 86 87 86 86 90 92 92 95 95 93 93 92 94 91 86 89 89 97 89 96 88 89 91 91 92 93 89 88 90 92 94 88 85 86 86 86 86 86 86 85 95
88 74 74 74 85 88 80 82 89 87 83 88 84 87 90 93 93 93 93 94 93 90 89 93 88 92 93 91 91 90 89 93 91 91 90 93 93 93 96 93 93 94 89 91 91 97 100 98 100
80 84 81 80 82 81 79 82 85 86 88 93 92 91 92 91 93 95 94 94 93 94 95 93 90 88 88 94 92 87 84 93 95 93 92 92 95 92 85 96 96 95 95 95 97 97 97 97 98
83 85 84 86 85 83 84 79 76 82 91 94 93 92 91 93 94 96 96 95 94 92 93 93 91 89 89 89 94 95 92 88 95 94 95 96 95 89 95 93 96 96 98 98 96 96 97 97 98
89 86 84 83 82 75 73 72 75 79 92 91 91 91 93 93 95 94 94 93 92 93 93 93 92 89 89 89 90 91 93 93 96 95 94 89 94 85 94 93 97 96 97 97 96 93 97 98 98
90 82 85 77 81 76 77 68 67 72 90 88 90 91 93 93 95 92 94 93 94 95 93 92 92 92 85 89 90 94 94 97 96 94 90 93 94 91 92 95 95 96 96 94 96 96 98 99 99
87 82 71 78 78 77 77 65 67 75 84 86 89 91 91 93 94 94 95 95 95 94 91 92 97 92 90 90 92 95 96 96 96 95 95 93 92 93 92 91 94 97 98 99 98 99 98 99 98
83 73 68 71 79 76 74 64 71 76 84 84 87 89 89 91 93 93 95 95 95 93 91 92 93 93 90 89 92 89 92 95 96 97 96 93 93 94 89 87 94 93 98 99 96 98 97 96 99
72 75 74 74 76 76 74 64 72 79 82 78 79 85 86 90 91 94 95 93 93 93 92 88 92 90 88 90 91 83 92 96 97 94 89 93 94 94 91 93 95 91 95 96 95 92 96 97 97
83 76 60 70 84 78 71 66 73 73 74 75 70 81 83 88 90 95 94 93 91 93 87 85 83 87 86 88 90 89 90 83 90 95 93 92 93 93 92 92 94 95 95 91 94 95 93 97 98
80 75 71 71 84 77 73 66 73 73 71 71 70 71 76 84 87 91 92 93 92 90 84 88 88 86 88 86 83 86 81 86 84 85 93 93 93 93 93 87 89 83 94 91 92 91 92 97 97
84 81 76 75 81 83 73 64 63 72 74 75 72 80 77 80 79 93 90 89 94 92 90 84 86 86 87 88 89 90 83 85 88 84 89 93 93 94 93 92 87 93 92 91 92 92 92 90 95
76 86 70 60 77 67 81 57 64 65 70 75 77 74 71 68 77 86 95 88 95 94 94 91 89 85 88 88 88 84 87 85 89 82 84 87 93 93 93 92 93 91 87 91 94 94 90 91 93
75 87 84 80 75 75 74 59 59 71 67 72 79 82 81 74 84 88 94 93 96 93 95 93 89 86 87 87 86 89 84 84 91 86 88 87 89 92 93 92 92 91 94 92 92 91 89 93 91
88 83 83 84 82 69 74 77 58 67 74 75 77 83 82 84 88 91 86 95 83 91 96 94 89 86 87 85 86 86 84 85 83 90 88 89 92 92 91 93 91 91 92 92 92 91 91 90 91
84 80 69 63 66 67 82 78 72 73 85 82 80 82 84 85 86 82 89 83 90 86 95 94 88 85 86 87 85 86 86 85 86 87 89 88 84 87 90 90 90 92 90 91 92 90 91 91 90
80 81 72 60 66 72 81 71 74 88 91 90 87 86 86 87 88 86 89 77 84 85 90 93 88 86 88 88 86 85 87 90 88 89 80 92 94 89 85 90 92 91 91 92 91 93 93 92 93
80 75 87 75 74 72 71 78 84 90 87 88 86 86 84 84 87 89 85 89 87 93 85 90 89 87 88 89 87 87 87 87 88 87 88 92 92 94 92 91 90 91 91 91 91 91 91 92 91
84 89 75 77 62 62 65 66 54 79 83 86 87 88 85 83 86 87 85 88 81 95 93 94 91 88 89 91 90 89 89 88 88 88 87 90 92 92 90 91 91 91 91 90 89 92 91 90 92
80 78 79 82 78 68 63 69 77 84 86 85 88 89 86 83 86 87 84 91 85 89 90 93 91 89 89 91 90 90 90 91 88 88 88 89 89 91 90 90 90 90 90 91 89 89 89 89 89
86 81 82 72 69 76 75 63 88 87 89 90 89 90 88 84 86 85 86 87 86 77 89 89 91 91 91 91 90 90 90 90 90 89 90 89 87 87 88 89 89 90 90 91 89 88 91 89 88

GFSSGP_sfc_temp_126.txt.gz
Temp
83 85 90 83 64 66 74 77 87 83 84 90 89 79 81 80 78 66 89 85 92 88 87 85 82 83 83 83 82 83 83 82 82 83 83 83 83 83 83 83 83 83 83 84 84 84 84 83 83
93 93 85 73 63 63 72 83 80 84 88 88 81 88 83 78 87 85 85 92 92 90 89 86 82 83 83 82 83 83 83 83 82 83 83 83 83 83 83 84 83 84 84 84 84 84 84 83 83
87 92 73 63 64 69 72 83 84 87 91 85 79 89 85 81 89 85 91 91 91 88 87 83 83 83 84 83 83 83 83 83 83 83 83 83 84 84 84 84 84 84 83 84 83 84 84 83 83
87 83 79 65 66 80 82 85 88 83 89 89 88 81 90 94 90 91 95 95 92 89 87 83 83 83 84 84 83 83 83 83 82 83 83 84 84 84 84 84 84 84 84 84 84 84 84 83 83
82 78 64 62 70 84 87 88 88 82 83 85 87 80 81 92 97 94 94 95 93 89 87 86 83 83 83 84 84 84 84 84 83 84 84 84 84 84 84 84 84 84 84 84 84 84 83 83 83
69 69 59 66 78 84 85 80 82 80 82 85 84 82 81 94 94 94 93 85 93 92 88 87 83 83 83 84 84 83 84 83 83 84 84 84 84 84 84 84 85 85 85 84 84 83 83 83 83
68 64 67 78 77 80 81 87 85 83 85 85 88 79 85 89 96 95 93 94 92 90 89 86 86 84 84 84 84 84 84 84 83 84 84 84 84 84 85 85 85 85 85 85 84 83 83 83 83
71 65 68 80 75 75 89 87 83 85 82 93 92 79 76 90 96 90 94 92 88 93 89 86 85 86 84 85 84 84 84 84 84 84 84 84 84 85 85 83 85 85 85 85 85 84 83 83 83
86 61 65 76 75 79 89 80 82 89 90 91 92 89 91 96 95 91 86 88 90 89 89 90 88 86 86 86 85 84 84 84 84 83 84 82 83 86 86 85 85 85 85 85 85 84 84 84 84
77 60 61 66 79 79 85 83 84 86 87 86 89 93 95 94 93 89 87 85 87 84 81 92 86 86 85 90 84 85 86 86 84 83 77 76 84 85 89 86 85 85 85 85 85 85 85 85 87
82 60 65 65 75 88 83 81 90 82 82 86 83 87 92 92 91 91 90 84 87 88 91 88 85 85 79 86 86 87 86 88 88 85 85 87 85 84 86 84 81 80 85 83 87 88 85 84 83
80 84 77 82 84 85 78 80 85 85 87 91 90 90 92 91 90 91 88 89 81 86 89 90 88 86 85 87 81 83 85 88 89 89 90 86 74 73 74 83 83 78 87 87 84 88 89 91 90
82 83 85 86 82 81 84 77 82 84 92 93 92 91 91 92 90 91 92 93 87 81 87 88 87 86 86 85 82 82 86 82 89 88 88 82 84 80 84 84 83 85 86 86 86 87 89 90 91
88 86 84 83 79 82 75 74 81 86 92 90 90 90 92 93 90 89 91 90 90 90 89 87 85 87 88 86 86 86 82 83 89 85 83 82 82 83 85 83 87 85 87 87 88 87 88 87 89
87 81 81 81 78 72 74 68 70 76 91 88 89 90 92 93 92 88 90 90 91 90 91 84 86 87 87 87 88 83 82 91 89 87 75 80 84 80 75 85 84 87 87 89 87 87 88 88 91
82 78 69 77 78 76 77 59 74 77 83 85 88 90 91 92 93 92 91 90 92 89 88 89 90 83 86 84 85 88 84 87 88 86 88 91 89 87 80 80 87 89 85 87 87 84 88 89 88
79 70 72 70 80 76 74 61 72 74 76 82 87 88 89 90 90 92 93 90 89 87 88 84 83 84 85 87 87 88 89 89 89 89 88 90 91 79 74 79 87 87 86 83 86 86 87 87 87
71 74 71 70 76 74 72 69 73 73 71 72 85 88 87 88 87 91 93 91 91 91 89 83 83 83 85 84 80 87 89 88 88 84 87 89 88 78 75 83 87 86 84 82 87 85 86 86 87
80 75 72 67 72 74 70 68 71 72 71 74 82 85 83 87 88 92 89 87 86 89 82 85 81 82 85 85 77 83 82 86 84 87 88 87 89 90 80 84 87 76 77 86 87 86 85 86 87
81 77 75 65 62 74 69 65 72 74 76 75 70 71 75 82 89 87 88 90 89 83 82 80 82 82 82 82 80 78 81 83 83 86 87 88 89 90 83 85 85 82 84 85 86 86 83 86 87
80 79 71 62 62 65 71 62 66 73 74 71 68 68 69 73 80 79 87 88 87 83 81 82 80 83 83 84 83 80 78 83 77 80 86 84 88 90 79 86 85 81 74 80 84 86 82 82 85
76 84 69 61 56 54 74 53 61 68 70 73 70 70 70 70 75 81 89 86 84 85 86 83 82 83 84 86 82 81 80 75 80 84 82 85 88 86 91 90 89 83 70 76 84 88 82 80 81
80 85 76 72 66 56 67 57 60 64 64 72 74 74 77 79 78 81 87 87 85 89 87 85 82 81 83 82 83 82 82 80 85 79 82 81 87 90 89 89 89 87 85 84 86 85 83 80 77
88 83 79 71 57 49 65 67 53 59 64 69 77 80 81 82 80 85 78 78 88 90 92 88 82 80 82 84 82 83 84 77 77 83 78 84 82 86 85 87 88 86 81 78 86 86 85 82 82
84 78 64 64 61 62 79 71 64 70 76 74 76 81 84 83 83 82 74 73 76 88 88 88 82 80 82 82 83 83 82 83 80 83 84 82 81 83 84 86 86 86 86 85 86 85 85 85 83
79 78 68 56 61 65 78 65 71 80 81 79 82 84 85 83 83 86 80 72 72 77 77 87 83 81 83 82 81 83 85 84 85 84 84 83 81 84 85 86 87 87 86 89 86 85 85 85 84
80 73 84 74 64 65 71 72 78 79 80 79 82 83 83 85 85 88 83 78 74 78 76 85 83 82 83 84 81 81 83 82 84 83 82 83 81 79 85 86 87 87 82 88 86 85 83 82 85
83 87 73 75 59 57 68 68 70 67 59 82 82 83 83 84 85 88 78 77 76 81 84 85 85 83 84 86 84 83 83 84 86 85 84 86 85 79 82 85 84 84 85 87 85 83 85 84 85
79 76 79 80 76 64 57 63 75 64 64 65 76 86 86 85 85 88 89 85 80 74 72 85 84 85 85 86 85 84 85 85 85 85 85 84 86 88 85 87 84 86 84 86 84 83 83 83 83
85 80 80 70 67 73 72 71 76 71 67 65 65 89 89 86 87 86 88 87 79 74 71 75 86 85 87 87 85 85 86 86 85 84 84 86 85 86 85 86 86 83 85 82 83 84 84 82 84